[[{"header":{"parameterUnit":"m.s-1","parameterCategory":1,"la1":31.0,"la2":29.5877,"lo1":-88.7671,"lo2":-86.6584,"dy":0.0162,"dx":0.0185,"nx":115,"ny":88,"refTime":"2023-11-15T06:00:00:Z","depth":0,"parameterNumber":2,"parameterNumberName":"U-component_of_WINDS"},"data":[0.0,0.0,0.0,0.0,0.0,0.0,0.0,0.0,0.0,0.0,0.0,0.0,0.0,0.0,0.0,0.0,0.0,0.0,0.0,0.0,0.0,0.0,0.0,0.0,0.0,0.0,0.0,0.0,0.0,0.0,0.0,0.0,0.0,0.0,0.0,0.0,0.0,0.0,0.0,0.0,0.0,0.0,0.0,0.0,0.0,0.0,0.0,0.0,0.0,0.0,0.0,0.0,0.0,0.0,0.0,0.0,0.0,0.0,0.0,0.0,0.0,0.0,0.0,0.0,0.0,0.0,0.0,0.0,0.0,0.0,0.0,0.0,0.0,0.0,0.0,0.0,0.0,0.0,0.0,0.0,0.0,0.0,0.0,0.0,0.0,0.0,0.0,0.0,0.0,0.0,0.0,0.0,0.0,0.0,0.0,0.0,0.0,0.0,0.0,0.0,0.0,0.0,0.0,0.0,0.0,0.0,0.0,0.0,0.0,0.0,0.0,0.0,0.0,0.0,0.0,0.0,0.0,0.0,0.0,0.0,0.0,0.0,0.0,0.0,0.0,0.0,0.0,0.0,0.0,0.0,0.0,0.0,0.0,0.0,0.0,0.0,0.0,0.0,0.0,0.0,0.0,0.0,0.0,0.0,0.0,0.0,0.0,0.0,0.0,0.0,0.0,0.0,0.0,0.0,0.0,0.0,0.0,0.0,0.0,0.0,0.0,0.0,0.0,0.0,0.0,0.0,0.0,0.0,0.0,0.0,0.0,0.0,0.0,0.0,0.0,0.0,0.0,0.0,0.0,0.0,0.0,0.0,0.0,0.0,0.0,0.0,0.0,0.0,0.0,0.0,0.0,0.0,0.0,0.0,0.0,0.0,0.0,0.0,0.0,0.0,0.0,0.0,0.0,0.0,0.0,0.0,0.0,0.0,0.0,0.0,0.0,0.0,0.0,0.0,0.0,0.0,0.0,0.0,0.0,0.0,0.0,0.0,0.0,0.0,0.0,0.0,0.0,0.0,0.0,0.0,0.0,0.0,0.0,0.0,0.0,0.0,0.0,0.0,0.0,0.0,0.0,0.0,0.0,0.0,0.0,0.0,0.0,0.0,0.0,0.0,0.0,0.0,0.0,0.0,0.0,0.0,0.0,0.0,0.0,0.0,0.0,0.0,0.0,0.0,0.0,0.0,0.0,0.0,0.0,0.0,0.0,0.0,0.0,0.0,0.0,0.0,0.0,0.0,0.0,0.0,0.0,0.0,0.0,0.0,0.0,0.0,0.0,0.0,0.0,0.0,0.0,0.0,0.0,0.0,0.0,0.0,0.0,0.0,0.0,0.0,0.0,0.0,0.0,0.0,0.0,0.0,0.0,0.0,0.0,0.0,0.0,0.0,0.0,0.0,0.0,0.0,0.0,0.0,0.0,0.0,0.0,0.0,0.0,0.0,0.0,0.0,0.0,0.0,0.0,0.0,0.0,0.0,0.0,0.0,0.0,0.0,0.0,0.0,0.0,0.0,0.0,0.0,0.0,0.0,0.0,0.0,0.0,0.0,0.0,0.0,0.0,0.0,0.0,0.0,0.0,0.0,0.0,0.0,0.0,0.0,0.0,0.0,0.0,0.0,0.0,0.0,0.0,0.0,0.0,0.0,0.0,0.0,0.0,0.0,0.0,0.0,0.0,0.0,0.0,0.0,0.0,0.0,0.0,0.0,0.0,0.0,0.0,0.0,0.0,0.0,0.0,0.0,0.0,0.0,0.0,0.0,0.0,0.0,0.0,0.0,0.0,0.0,0.0,0.0,0.0,0.0,0.0,0.0,0.0,0.0,0.0,0.0,0.0,0.0,0.0,0.0,0.0,0.0,0.0,0.0,0.0,0.0,0.0,0.0,0.0,0.0,0.0,0.0,0.0,0.0,0.0,0.0,0.0,0.0,0.0,0.0,0.0,0.0,0.0,0.0,0.0,0.0,0.0,0.0,0.0,0.0,0.0,0.0,0.0,0.0,0.0,0.0,0.0,0.0,0.0,0.0,0.0,0.0,0.0,0.0,0.0,0.0,0.0,0.0,0.0,0.0,0.0,0.0,0.0,0.0,0.0,0.0,0.0,0.0,0.0,0.0,0.0,0.0,0.0,0.0,0.0,0.0,0.0,0.0,0.0,0.0,0.0,0.0,0.0,0.0,0.0,0.0,0.0,0.0,0.0,0.0,0.0,0.0,0.0,0.0,0.0,0.0,0.0,0.0,0.0,0.0,0.0,0.0,0.0,0.0,0.0,0.0,0.0,0.0,0.0,0.0,0.0,0.0,0.0,0.0,0.0,0.0,0.0,0.0,0.0,0.0,0.0,0.0,0.0,0.0,0.0,0.0,0.0,0.0,0.0,0.0,0.0,0.0,0.0,0.0,0.0,0.0,0.0,0.0,0.0,0.0,0.0,0.0,0.0,0.0,0.0,0.0,0.0,0.0,0.0,0.0,0.0,0.0,0.0,0.0,0.0,0.0,0.0,0.0,0.0,0.0,0.0,0.0,0.0,0.0,0.0,0.0,0.0,0.0,0.0,0.0,0.0,0.0,0.0,0.0,0.0,0.0,0.0,0.0,0.0,0.0,0.0,0.0,0.0,0.0,0.0,0.0,0.0,0.0,0.0,0.0,0.0,0.0,0.0,0.0,0.0,0.0,0.0,0.0,0.0,0.0,0.0,0.0,0.0,0.0,0.0,0.0,0.0,0.0,0.0,0.0,0.0,0.0,0.0,0.0,0.0,0.0,0.0,0.0,0.0,0.0,0.0,0.0,0.0,0.0,0.0,0.0,0.0,0.0,0.0,0.0,0.0,0.0,0.0,0.0,0.0,0.0,0.0,0.0,0.0,0.0,0.0,0.0,0.0,0.0,0.0,0.0,0.0,0.0,0.0,0.0,0.0,0.0,0.0,0.0,0.0,0.0,0.0,0.0,0.0,0.0,0.0,0.0,0.0,0.0,0.0,0.0,0.0,0.0,0.0,0.0,0.0,0.0,0.0,0.0,0.0,0.0,0.0,0.0,0.0,0.0,0.0,0.0,0.0,0.0,0.0,0.0,0.0,0.0,0.0,0.0,0.0,0.0,0.0,0.0,0.0,0.0,0.0,0.0,0.0,0.0,0.0,0.0,0.0,0.0,0.0,0.0,0.0,0.0,0.0,0.0,0.0,0.0,0.0,0.0,0.0,0.0,0.0,0.0,0.0,0.0,0.0,0.0,0.0,0.0,0.0,0.0,0.0,0.0,0.0,0.0,0.0,0.0,0.0,0.0,0.0,0.0,0.0,0.0,0.0,0.0,0.0,0.0,0.0,0.0,0.0,0.0,0.0,0.0,0.0,0.0,0.0,0.0,0.0,0.0,0.0,0.0,0.0,0.0,0.0,0.0,0.0,0.0,0.0,0.0,0.0,0.0,0.0,0.0,0.0,0.0,0.0,0.0,0.0,0.0,0.0,0.0,0.0,0.0,0.0,0.0,0.0,0.0,0.0,0.0,0.0,0.0,0.0,0.0,0.0,0.0,0.0,0.0,0.0,0.0,0.0,0.0,0.0,0.0,0.0,0.0,0.0,0.0,0.0,0.0,0.0,0.0,0.0,0.0,0.0,0.0,0.0,0.0,0.0,0.0,0.0,0.0,0.0,0.0,0.0,0.0,0.0,0.0,0.0,0.0,0.0,0.0,0.0,0.0,0.0,0.0,0.0,0.0,0.0,0.0,0.0,0.0,0.0,0.0,0.0,0.0,0.0,0.0,0.0,0.0,0.0,0.0,0.0,0.0,0.0,0.0,0.0,0.0,0.0,0.0,0.0,0.0,0.0,0.0,0.0,0.0,0.0,0.0,0.0,0.0,0.0,0.0,0.0,0.0,0.0,0.0,0.0,0.0,0.0,0.0,0.0,0.0,0.0,0.0,0.0,0.0,0.0,0.0,0.0,0.0,0.0,0.0,0.0,0.0,0.0,0.0,0.0,0.0,0.0,0.0,0.0,0.0,0.0,0.0,0.0,0.0,0.0,0.0,0.0,0.0,0.0,0.0,0.0,0.0,0.0,0.0,0.0,0.0,0.0,0.0,0.0,0.0,0.0,0.0,0.0,0.0,0.0,0.0,0.0,0.0,0.0,0.0,0.0,0.0,0.0,0.0,0.0,0.0,0.0,0.0,0.0,0.0,0.0,0.0,0.0,0.0,0.0,0.0,0.0,0.0,0.0,0.0,0.0,0.0,0.0,0.0,0.0,0.0,0.0,0.0,0.0,0.0,0.0,0.0,0.0,0.0,4.1147,0.0,0.0,0.0,0.0,0.0,0.0,0.0,0.0,0.0,0.0,0.0,0.0,0.0,0.0,0.0,0.0,0.0,0.0,0.0,0.0,0.0,0.0,0.0,0.0,0.0,0.0,0.0,0.0,0.0,0.0,0.0,0.0,0.0,0.0,0.0,0.0,0.0,0.0,0.0,0.0,0.0,0.0,0.0,0.0,0.0,0.0,0.0,0.0,0.0,0.0,0.0,0.0,0.0,0.0,0.0,0.0,0.0,0.0,0.0,0.0,0.0,0.0,0.0,0.0,0.0,0.0,0.0,0.0,0.0,0.0,0.0,0.0,0.0,0.0,0.0,0.0,0.0,0.0,0.0,0.0,0.0,0.0,0.0,0.0,0.0,0.0,0.0,0.0,0.0,0.0,0.0,0.0,0.0,0.0,0.0,0.0,0.0,0.0,0.0,0.0,0.0,0.0,0.0,0.0,0.0,0.0,0.0,0.0,0.0,0.0,4.1498,4.1108,4.1498,4.1498,4.1108,0.0,0.0,0.0,0.0,0.0,0.0,0.0,0.0,0.0,0.0,0.0,0.0,0.0,0.0,0.0,0.0,0.0,0.0,0.0,0.0,0.0,0.0,0.0,0.0,0.0,0.0,0.0,0.0,0.0,0.0,0.0,0.0,0.0,0.0,0.0,0.0,0.0,0.0,0.0,0.0,0.0,0.0,0.0,0.0,0.0,0.0,0.0,0.0,0.0,0.0,0.0,0.0,0.0,0.0,0.0,0.0,0.0,0.0,0.0,0.0,0.0,0.0,0.0,0.0,0.0,0.0,0.0,0.0,0.0,0.0,0.0,0.0,0.0,0.0,0.0,0.0,0.0,0.0,0.0,0.0,0.0,0.0,0.0,0.0,0.0,0.0,0.0,0.0,0.0,0.0,0.0,0.0,0.0,0.0,0.0,0.0,0.0,0.0,0.0,0.0,0.0,0.0,0.0,0.0,0.0,0.0,0.0,0.0,0.0,0.0,0.0,0.0,4.1459,4.1498,4.1147,0.0,0.0,0.0,0.0,0.0,0.0,0.0,0.0,0.0,0.0,0.0,0.0,0.0,0.0,0.0,0.0,0.0,0.0,0.0,0.0,0.0,0.0,0.0,0.0,0.0,0.0,0.0,0.0,0.0,0.0,0.0,0.0,0.0,0.0,0.0,0.0,0.0,0.0,0.0,0.0,0.0,0.0,0.0,0.0,0.0,0.0,0.0,0.0,0.0,0.0,0.0,0.0,0.0,0.0,0.0,0.0,0.0,0.0,0.0,0.0,0.0,0.0,0.0,0.0,0.0,0.0,0.0,0.0,0.0,0.0,0.0,0.0,0.0,0.0,0.0,0.0,0.0,0.0,0.0,0.0,0.0,0.0,0.0,0.0,0.0,0.0,0.0,0.0,0.0,0.0,0.0,0.0,0.0,0.0,0.0,0.0,0.0,0.0,0.0,0.0,0.0,0.0,0.0,0.0,0.0,0.0,0.0,0.0,0.0,0.0,4.2708,4.1186,4.263,0.0,4.1225,0.0,0.0,0.0,0.0,0.0,0.0,0.0,0.0,0.0,0.0,0.0,0.0,0.0,0.0,0.0,0.0,0.0,0.0,0.0,0.0,0.0,0.0,0.0,0.0,0.0,0.0,0.0,0.0,0.0,0.0,0.0,0.0,0.0,0.0,0.0,0.0,0.0,0.0,0.0,0.0,0.0,0.0,0.0,0.0,0.0,0.0,0.0,0.0,0.0,0.0,0.0,0.0,0.0,0.0,0.0,0.0,0.0,0.0,0.0,0.0,0.0,0.0,0.0,0.0,0.0,0.0,0.0,0.0,0.0,0.0,0.0,0.0,0.0,0.0,0.0,0.0,0.0,0.0,0.0,0.0,0.0,0.0,0.0,0.0,0.0,0.0,0.0,0.0,0.0,0.0,0.0,0.0,0.0,0.0,0.0,0.0,0.0,0.0,0.0,0.0,0.0,0.0,0.0,0.0,0.0,0.0,0.0,0.0,0.0,0.0,4.181,4.1108,4.1771,4.181,0.0,0.0,0.0,0.0,0.0,0.0,0.0,0.0,0.0,0.0,0.0,0.0,0.0,0.0,0.0,0.0,0.0,0.0,0.0,0.0,0.0,0.0,0.0,0.0,0.0,0.0,0.0,0.0,0.0,0.0,0.0,0.0,0.0,0.0,0.0,0.0,0.0,0.0,0.0,0.0,0.0,0.0,0.0,0.0,0.0,0.0,0.0,0.0,0.0,0.0,0.0,0.0,0.0,0.0,0.0,0.0,0.0,0.0,0.0,0.0,0.0,0.0,0.0,0.0,0.0,0.0,0.0,0.0,0.0,0.0,0.0,0.0,0.0,0.0,0.0,0.0,0.0,0.0,0.0,0.0,0.0,0.0,0.0,0.0,0.0,0.0,0.0,0.0,0.0,0.0,0.0,0.0,0.0,0.0,0.0,0.0,0.0,0.0,0.0,0.0,0.0,0.0,0.0,0.0,0.0,0.0,0.0,0.0,0.0,0.0,4.1342,4.1459,4.1459,4.1225,4.1108,4.1108,0.0,0.0,0.0,0.0,0.0,0.0,0.0,0.0,0.0,0.0,0.0,0.0,0.0,0.0,0.0,0.0,0.0,0.0,0.0,0.0,0.0,0.0,0.0,0.0,0.0,0.0,0.0,0.0,0.0,0.0,0.0,0.0,0.0,0.0,0.0,0.0,0.0,0.0,0.0,0.0,0.0,0.0,0.0,0.0,0.0,0.0,0.0,0.0,0.0,0.0,0.0,0.0,0.0,0.0,0.0,0.0,0.0,0.0,0.0,0.0,0.0,0.0,0.0,0.0,0.0,0.0,0.0,0.0,0.0,0.0,0.0,0.0,0.0,0.0,0.0,0.0,0.0,0.0,0.0,0.0,0.0,0.0,0.0,0.0,0.0,0.0,0.0,0.0,0.0,0.0,0.0,0.0,0.0,0.0,0.0,0.0,0.0,0.0,0.0,0.0,0.0,0.0,0.0,0.0,0.0,0.0,0.0,0.0,4.1108,4.1888,4.2318,4.2279,4.1537,4.1108,0.0,0.0,0.0,0.0,0.0,0.0,0.0,0.0,0.0,0.0,0.0,0.0,0.0,0.0,0.0,0.0,0.0,0.0,0.0,0.0,0.0,0.0,0.0,0.0,0.0,0.0,0.0,0.0,0.0,0.0,0.0,0.0,0.0,0.0,0.0,0.0,0.0,0.0,0.0,0.0,0.0,0.0,0.0,0.0,0.0,0.0,0.0,0.0,0.0,0.0,0.0,0.0,0.0,0.0,0.0,0.0,0.0,0.0,0.0,0.0,0.0,0.0,0.0,0.0,0.0,0.0,0.0,0.0,0.0,0.0,0.0,0.0,0.0,0.0,0.0,0.0,0.0,0.0,0.0,0.0,0.0,0.0,0.0,0.0,0.0,0.0,0.0,0.0,0.0,0.0,0.0,0.0,0.0,0.0,0.0,0.0,0.0,0.0,0.0,0.0,0.0,0.0,0.0,0.0,0.0,0.0,0.0,0.0,0.0,4.1108,4.142,4.1576,4.1537,4.1264,4.1108,0.0,0.0,0.0,0.0,0.0,0.0,0.0,0.0,0.0,0.0,0.0,0.0,0.0,0.0,0.0,0.0,0.0,0.0,0.0,0.0,0.0,0.0,0.0,0.0,0.0,0.0,0.0,0.0,0.0,0.0,0.0,0.0,0.0,0.0,0.0,0.0,0.0,0.0,0.0,0.0,0.0,0.0,0.0,0.0,0.0,0.0,0.0,0.0,0.0,0.0,0.0,0.0,0.0,0.0,0.0,0.0,0.0,0.0,0.0,0.0,0.0,0.0,0.0,0.0,0.0,0.0,0.0,0.0,0.0,0.0,0.0,0.0,0.0,0.0,0.0,0.0,0.0,0.0,0.0,0.0,0.0,0.0,0.0,0.0,0.0,0.0,0.0,0.0,0.0,0.0,0.0,0.0,0.0,0.0,0.0,0.0,0.0,0.0,0.0,0.0,0.0,0.0,0.0,0.0,0.0,0.0,0.0,0.0,0.0,4.1108,0.0,4.1108,4.1108,4.1108,4.1108,0.0,0.0,0.0,0.0,0.0,0.0,0.0,0.0,0.0,0.0,0.0,0.0,0.0,0.0,0.0,0.0,0.0,0.0,0.0,0.0,0.0,0.0,0.0,0.0,0.0,0.0,0.0,0.0,0.0,0.0,0.0,0.0,0.0,0.0,0.0,0.0,0.0,0.0,0.0,0.0,0.0,0.0,0.0,0.0,0.0,0.0,0.0,0.0,0.0,0.0,0.0,0.0,0.0,0.0,0.0,0.0,0.0,0.0,0.0,0.0,0.0,0.0,0.0,0.0,0.0,0.0,0.0,0.0,0.0,0.0,0.0,0.0,0.0,0.0,0.0,0.0,0.0,0.0,0.0,0.0,0.0,0.0,0.0,0.0,0.0,0.0,0.0,0.0,0.0,0.0,0.0,0.0,0.0,0.0,0.0,0.0,0.0,0.0,0.0,0.0,0.0,0.0,0.0,0.0,0.0,0.0,0.0,0.0,4.1147,4.1147,4.1186,4.1225,4.1147,4.1186,4.1108,0.0,0.0,0.0,0.0,0.0,0.0,0.0,0.0,0.0,0.0,0.0,0.0,0.0,0.0,0.0,0.0,0.0,0.0,0.0,0.0,0.0,0.0,0.0,0.0,0.0,0.0,0.0,0.0,0.0,0.0,0.0,0.0,0.0,0.0,0.0,0.0,0.0,0.0,0.0,0.0,0.0,0.0,0.0,0.0,0.0,0.0,0.0,0.0,0.0,0.0,0.0,0.0,0.0,0.0,0.0,0.0,0.0,0.0,0.0,0.0,0.0,0.0,0.0,0.0,0.0,0.0,0.0,0.0,0.0,0.0,0.0,0.0,0.0,0.0,0.0,0.0,0.0,0.0,0.0,0.0,0.0,0.0,0.0,0.0,0.0,0.0,0.0,0.0,0.0,0.0,0.0,0.0,0.0,0.0,0.0,0.0,0.0,0.0,0.0,0.0,0.0,0.0,0.0,0.0,0.0,0.0,0.0,0.0,0.0,4.2864,4.2903,4.2903,4.2864,4.2318,4.1732,0.0,0.0,0.0,0.0,0.0,0.0,0.0,0.0,0.0,0.0,0.0,0.0,0.0,0.0,0.0,0.0,0.0,0.0,0.0,0.0,0.0,0.0,0.0,0.0,0.0,0.0,0.0,0.0,0.0,0.0,0.0,0.0,0.0,0.0,0.0,0.0,0.0,0.0,0.0,0.0,0.0,0.0,0.0,0.0,0.0,0.0,0.0,0.0,0.0,0.0,0.0,0.0,0.0,0.0,0.0,0.0,0.0,0.0,0.0,0.0,0.0,0.0,0.0,0.0,0.0,0.0,0.0,0.0,0.0,0.0,0.0,0.0,0.0,0.0,0.0,0.0,0.0,0.0,0.0,0.0,0.0,0.0,0.0,0.0,0.0,0.0,0.0,0.0,0.0,0.0,0.0,0.0,0.0,0.0,0.0,0.0,0.0,0.0,0.0,0.0,0.0,0.0,0.0,0.0,0.0,0.0,0.0,0.0,0.0,4.548,4.466,4.4192,4.4192,4.3333,4.2474,4.1615,0.0,0.0,0.0,0.0,0.0,0.0,0.0,0.0,0.0,0.0,0.0,0.0,0.0,0.0,0.0,0.0,0.0,0.0,0.0,0.0,0.0,0.0,0.0,0.0,0.0,0.0,0.0,0.0,0.0,0.0,0.0,0.0,0.0,0.0,0.0,0.0,0.0,0.0,0.0,0.0,0.0,0.0,0.0,0.0,0.0,0.0,0.0,0.0,0.0,0.0,0.0,0.0,0.0,0.0,0.0,0.0,0.0,0.0,0.0,0.0,0.0,0.0,0.0,0.0,0.0,0.0,0.0,0.0,0.0,0.0,0.0,0.0,0.0,0.0,0.0,0.0,0.0,0.0,0.0,0.0,0.0,0.0,0.0,0.0,0.0,0.0,0.0,0.0,0.0,0.0,0.0,0.0,0.0,0.0,0.0,0.0,0.0,0.0,0.0,0.0,0.0,0.0,0.0,0.0,0.0,0.0,0.0,0.0,4.8759,4.6573,4.5441,4.5324,4.4426,4.345,0.0,0.0,0.0,0.0,0.0,0.0,0.0,0.0,0.0,0.0,0.0,0.0,0.0,0.0,0.0,0.0,0.0,0.0,0.0,0.0,0.0,0.0,0.0,0.0,0.0,0.0,0.0,0.0,0.0,0.0,0.0,0.0,0.0,0.0,0.0,0.0,0.0,0.0,0.0,0.0,0.0,0.0,0.0,0.0,0.0,0.0,0.0,0.0,0.0,0.0,0.0,0.0,0.0,0.0,0.0,0.0,0.0,0.0,0.0,0.0,0.0,0.0,0.0,0.0,0.0,0.0,0.0,0.0,0.0,0.0,0.0,0.0,0.0,0.0,0.0,0.0,0.0,0.0,0.0,0.0,0.0,0.0,0.0,0.0,0.0,0.0,0.0,0.0,0.0,0.0,0.0,0.0,0.0,0.0,0.0,0.0,0.0,0.0,0.0,0.0,0.0,0.0,0.0,0.0,0.0,0.0,0.0,0.0,0.0,4.8759,5.0008,5.0087,4.8798,4.7354,4.5558,0.0,0.0,0.0,0.0,0.0,0.0,0.0,0.0,0.0,0.0,0.0,0.0,0.0,0.0,0.0,0.0,0.0,0.0,0.0,0.0,0.0,0.0,0.0,0.0,0.0,0.0,0.0,0.0,0.0,0.0,0.0,0.0,0.0,0.0,0.0,0.0,0.0,0.0,0.0,0.0,0.0,0.0,0.0,0.0,0.0,0.0,0.0,0.0,0.0,0.0,0.0,0.0,0.0,0.0,0.0,0.0,0.0,0.0,0.0,0.0,0.0,0.0,0.0,0.0,0.0,0.0,0.0,0.0,0.0,0.0,0.0,0.0,0.0,0.0,0.0,0.0,0.0,0.0,0.0,0.0,0.0,0.0,0.0,0.0,0.0,0.0,0.0,0.0,0.0,0.0,0.0,0.0,0.0,0.0,0.0,0.0,0.0,0.0,0.0,0.0,0.0,0.0,0.0,0.0,0.0,0.0,0.0,0.0,4.8369,5.0399,5.2624,5.3288,5.2312,4.954,4.6885,0.0,0.0,0.0,0.0,0.0,0.0,0.0,0.0,0.0,0.0,0.0,0.0,0.0,0.0,0.0,0.0,0.0,0.0,0.0,0.0,0.0,0.0,0.0,0.0,0.0,0.0,0.0,0.0,0.0,0.0,0.0,0.0,0.0,0.0,0.0,0.0,0.0,0.0,0.0,0.0,0.0,0.0,0.0,0.0,0.0,0.0,0.0,0.0,0.0,0.0,0.0,0.0,0.0,0.0,0.0,0.0,0.0,0.0,0.0,0.0,0.0,0.0,0.0,0.0,0.0,0.0,0.0,0.0,0.0,0.0,0.0,0.0,0.0,0.0,0.0,0.0,0.0,0.0,0.0,0.0,0.0,0.0,0.0,0.0,0.0,0.0,0.0,0.0,0.0,0.0,0.0,0.0,0.0,0.0,0.0,0.0,0.0,0.0,0.0,0.0,0.0,0.0,0.0,0.0,0.0,0.0,0.0,0.0,5.0165,5.2624,5.4498,5.5396,5.5201,5.1258,4.7861,0.0,0.0,0.0,0.0,0.0,0.0,0.0,0.0,0.0,0.0,0.0,0.0,0.0,0.0,0.0,0.0,0.0,0.0,0.0,0.0,0.0,0.0,0.0,0.0,0.0,0.0,0.0,0.0,0.0,0.0,0.0,0.0,0.0,0.0,0.0,0.0,0.0,0.0,0.0,0.0,0.0,0.0,0.0,0.0,0.0,0.0,0.0,0.0,0.0,0.0,0.0,0.0,0.0,0.0,0.0,0.0,0.0,0.0,0.0,0.0,0.0,0.0,0.0,0.0,0.0,0.0,0.0,0.0,0.0,0.0,0.0,0.0,0.0,0.0,0.0,0.0,0.0,0.0,0.0,0.0,0.0,0.0,0.0,0.0,0.0,0.0,0.0,0.0,0.0,0.0,0.0,0.0,0.0,0.0,0.0,0.0,0.0,0.0,0.0,0.0,0.0,0.0,0.0,0.0,0.0,0.0,0.0,0.0,5.075,5.2663,5.5083,5.5981,5.5279,5.239,4.9657,0.0,0.0,0.0,0.0,0.0,0.0,0.0,0.0,0.0,0.0,0.0,0.0,0.0,0.0,0.0,0.0,0.0,0.0,0.0,0.0,0.0,0.0,0.0,0.0,0.0,0.0,0.0,0.0,0.0,0.0,0.0,0.0,0.0,0.0,0.0,0.0,0.0,0.0,0.0,0.0,0.0,0.0,0.0,0.0,0.0,0.0,0.0,0.0,4.2739,0.0,0.0,0.0,0.0,0.0,0.0,0.0,0.0,0.0,0.0,0.0,0.0,0.0,0.0,0.0,0.0,0.0,0.0,0.0,0.0,0.0,0.0,0.0,0.0,0.0,0.0,0.0,0.0,0.0,0.0,0.0,0.0,0.0,0.0,0.0,0.0,0.0,0.0,0.0,0.0,0.0,0.0,0.0,0.0,0.0,0.0,0.0,0.0,0.0,0.0,0.0,0.0,0.0,0.0,0.0,0.0,0.0,0.0,0.0,5.2159,5.3912,5.5669,5.6372,5.5864,5.3366,5.0633,0.0,0.0,0.0,0.0,0.0,0.0,0.0,0.0,0.0,0.0,0.0,0.0,0.0,0.0,0.0,0.0,0.0,0.0,0.0,0.0,0.0,0.0,0.0,0.0,0.0,0.0,0.0,0.0,0.0,0.0,0.0,0.0,0.0,0.0,0.0,0.0,0.0,0.0,0.0,0.0,0.0,0.0,0.0,0.0,0.0,0.0,0.0,0.0,0.0,0.0,0.0,0.0,0.0,0.0,0.0,0.0,0.0,0.0,0.0,0.0,0.0,0.0,0.0,0.0,0.0,0.0,0.0,0.0,0.0,0.0,0.0,0.0,0.0,0.0,0.0,0.0,0.0,0.0,0.0,0.0,0.0,0.0,0.0,0.0,0.0,0.0,0.0,0.0,0.0,0.0,0.0,0.0,0.0,0.0,0.0,0.0,0.0,0.0,0.0,0.0,0.0,0.0,0.0,0.0,0.0,0.0,0.0,5.0945,5.3526,5.524,5.6177,5.6606,5.6567,5.4068,5.118,4.79,0.0,0.0,0.0,0.0,0.0,0.0,0.0,0.0,0.0,0.0,0.0,0.0,0.0,0.0,0.0,0.0,0.0,0.0,0.0,0.0,0.0,0.0,0.0,0.0,0.0,0.0,0.0,0.0,0.0,0.0,0.0,0.0,0.0,0.0,0.0,0.0,0.0,0.0,4.2047,4.3008,0.0,0.0,0.0,0.0,0.0,0.0,0.0,0.0,4.5163,0.0,0.0,0.0,0.0,0.0,0.0,0.0,0.0,0.0,0.0,0.0,0.0,0.0,0.0,0.0,0.0,0.0,0.0,0.0,0.0,0.0,0.0,0.0,0.0,0.0,0.0,0.0,0.0,0.0,0.0,0.0,0.0,0.0,0.0,0.0,0.0,0.0,0.0,0.0,0.0,0.0,0.0,0.0,0.0,0.0,0.0,0.0,0.0,0.0,0.0,0.0,0.0,0.0,0.0,0.0,0.0,4.758,5.0941,5.3522,5.5279,5.6138,5.6606,5.6528,5.4068,5.1414,4.872,0.0,0.0,0.0,0.0,0.0,0.0,0.0,0.0,0.0,0.0,0.0,0.0,0.0,0.0,0.0,0.0,0.0,0.0,0.0,0.0,0.0,0.0,0.0,0.0,0.0,0.0,0.0,0.0,0.0,0.0,0.0,0.0,0.0,0.0,0.0,0.0,0.0,0.0,0.0,4.5086,4.524,0.0,0.0,0.0,0.0,0.0,0.0,0.0,0.0,4.6163,0.0,0.0,0.0,0.0,0.0,0.0,0.0,0.0,0.0,0.0,0.0,0.0,0.0,0.0,0.0,0.0,0.0,0.0,0.0,0.0,0.0,0.0,0.0,0.0,0.0,0.0,0.0,0.0,0.0,0.0,0.0,0.0,0.0,0.0,0.0,0.0,0.0,0.0,0.0,0.0,0.0,0.0,0.0,0.0,0.0,0.0,0.0,0.0,0.0,0.0,0.0,0.0,0.0,0.0,0.0,4.8283,5.1605,5.422,5.5903,5.6372,5.6606,5.6567,5.4068,5.1453,0.0,0.0,0.0,0.0,0.0,0.0,0.0,0.0,0.0,0.0,0.0,0.0,0.0,0.0,0.0,0.0,0.0,0.0,0.0,0.0,0.0,0.0,0.0,0.0,0.0,0.0,0.0,0.0,0.0,0.0,0.0,0.0,0.0,0.0,0.0,0.0,0.0,0.0,0.0,0.0,4.6355,4.6894,4.6894,0.0,0.0,0.0,0.0,0.0,0.0,4.7163,4.6778,0.0,0.0,0.0,0.0,0.0,0.0,0.0,0.0,0.0,0.0,0.0,0.0,0.0,0.0,0.0,0.0,0.0,0.0,0.0,0.0,0.0,0.0,0.0,0.0,0.0,0.0,0.0,0.0,0.0,0.0,0.0,0.0,0.0,0.0,0.0,0.0,0.0,0.0,0.0,0.0,0.0,0.0,0.0,0.0,0.0,0.0,0.0,0.0,0.0,0.0,0.0,0.0,0.0,0.0,0.0,4.8829,5.2425,5.504,5.6528,5.6762,5.6762,5.6567,5.3912,5.1297,0.0,0.0,0.0,0.0,0.0,0.0,0.0,0.0,0.0,0.0,0.0,0.0,0.0,0.0,0.0,0.0,0.0,0.0,0.0,0.0,0.0,0.0,0.0,0.0,0.0,0.0,0.0,0.0,0.0,0.0,0.0,0.0,0.0,0.0,0.0,0.0,0.0,0.0,0.0,0.0,0.0,4.8086,4.8086,4.7702,0.0,0.0,0.0,0.0,4.8432,4.8202,0.0,0.0,0.0,0.0,0.0,0.0,0.0,0.0,0.0,0.0,0.0,0.0,0.0,0.0,0.0,0.0,0.0,0.0,0.0,0.0,0.0,0.0,0.0,0.0,0.0,0.0,0.0,0.0,0.0,0.0,0.0,0.0,0.0,0.0,0.0,0.0,0.0,0.0,0.0,0.0,0.0,0.0,0.0,0.0,0.0,0.0,0.0,0.0,0.0,0.0,0.0,0.0,0.0,0.0,0.0,0.0,4.8868,5.301,5.5626,5.6567,5.7309,5.7309,5.6606,5.3327,5.0672,0.0,0.0,0.0,0.0,0.0,0.0,0.0,0.0,0.0,0.0,0.0,0.0,0.0,0.0,0.0,0.0,0.0,0.0,0.0,0.0,0.0,0.0,0.0,0.0,0.0,0.0,0.0,0.0,0.0,0.0,0.0,0.0,0.0,0.0,0.0,0.0,0.0,0.0,0.0,0.0,0.0,4.8086,4.8086,4.8702,4.8856,0.0,0.0,5.0164,5.0356,5.0894,0.0,0.0,0.0,0.0,0.0,0.0,0.0,0.0,0.0,0.0,0.0,0.0,0.0,0.0,0.0,0.0,0.0,0.0,0.0,0.0,0.0,0.0,0.0,0.0,0.0,0.0,0.0,0.0,0.0,0.0,0.0,0.0,0.0,0.0,0.0,0.0,0.0,0.0,0.0,0.0,0.0,0.0,0.0,0.0,0.0,0.0,0.0,0.0,0.0,0.0,0.0,0.0,0.0,0.0,0.0,4.7631,5.0274,5.3591,5.6172,5.7933,5.7894,5.7426,5.6606,5.3678,5.0867,0.0,0.0,0.0,0.0,0.0,0.0,0.0,0.0,0.0,0.0,0.0,0.0,0.0,0.0,0.0,0.0,0.0,0.0,0.0,0.0,0.0,0.0,0.0,0.0,0.0,0.0,0.0,0.0,0.0,0.0,0.0,0.0,0.0,0.0,0.0,0.0,0.0,0.0,0.0,0.0,0.0,0.0,4.8933,5.0394,0.0,0.0,0.0,5.1933,5.1471,0.0,0.0,0.0,0.0,0.0,0.0,0.0,0.0,0.0,0.0,0.0,0.0,0.0,0.0,0.0,0.0,0.0,0.0,0.0,0.0,0.0,0.0,0.0,0.0,0.0,0.0,0.0,0.0,0.0,0.0,0.0,0.0,0.0,0.0,0.0,0.0,0.0,0.0,0.0,0.0,0.0,0.0,0.0,0.0,0.0,0.0,0.0,0.0,0.0,0.0,0.0,0.0,0.0,0.0,0.0,0.0,0.0,5.1367,5.4372,5.6953,5.8987,5.8441,5.7621,5.6606,5.4068,0.0,0.0,0.0,0.0,0.0,0.0,0.0,0.0,0.0,0.0,0.0,0.0,0.0,0.0,0.0,0.0,0.0,0.0,0.0,0.0,0.0,0.0,0.0,0.0,0.0,0.0,0.0,3.5045,0.0,0.0,0.0,0.0,0.0,0.0,0.0,0.0,0.0,0.0,0.0,0.0,0.0,0.0,5.0818,5.0394,5.2318,5.3395,0.0,0.0,5.3587,5.2972,5.3587,5.3164,0.0,0.0,0.0,0.0,0.0,0.0,0.0,0.0,0.0,0.0,0.0,0.0,0.0,0.0,0.0,0.0,0.0,0.0,0.0,0.0,0.0,0.0,0.0,0.0,0.0,0.0,0.0,0.0,0.0,0.0,0.0,0.0,0.0,0.0,0.0,0.0,0.0,0.0,0.0,0.0,0.0,0.0,0.0,0.0,0.0,0.0,0.0,0.0,0.0,0.0,0.0,0.0,0.0,0.0,0.0,5.1445,5.5504,5.8085,5.9065,5.9026,5.8246,5.6606,5.4068,5.1102,0.0,0.0,0.0,0.0,0.0,0.0,0.0,0.0,0.0,0.0,0.0,0.0,0.0,0.0,0.0,0.0,0.0,0.0,0.0,0.0,0.0,0.0,0.0,0.0,0.0,0.0,0.0,0.0,0.0,0.0,0.0,0.0,0.0,0.0,0.0,0.0,0.0,0.0,0.0,0.0,0.0,5.2125,5.2856,5.4434,5.5472,0.0,0.0,5.5511,5.5434,5.6126,5.5318,5.1279,0.0,0.0,0.0,0.0,0.0,0.0,0.0,0.0,0.0,0.0,0.0,0.0,0.0,0.0,0.0,0.0,0.0,0.0,0.0,0.0,0.0,0.0,0.0,0.0,0.0,0.0,0.0,0.0,0.0,0.0,0.0,0.0,0.0,0.0,0.0,0.0,0.0,0.0,0.0,0.0,0.0,0.0,0.0,0.0,0.0,0.0,0.0,0.0,0.0,0.0,0.0,0.0,0.0,4.9376,5.2967,5.6172,5.8748,6.0549,5.9651,5.8558,5.7387,5.4849,5.1882,0.0,0.0,0.0,0.0,0.0,0.0,0.0,0.0,0.0,0.0,0.0,0.0,0.0,0.0,0.0,0.0,0.0,0.0,0.0,0.0,0.0,0.0,0.0,0.0,0.0,0.0,0.0,0.0,4.1431,4.2431,4.1431,0.0,0.0,0.0,0.0,0.0,0.0,0.0,0.0,0.0,0.0,5.3203,5.4549,5.5742,0.0,0.0,5.6126,5.628,5.578,5.5972,5.5126,5.1933,5.0741,0.0,0.0,0.0,0.0,0.0,0.0,0.0,0.0,0.0,0.0,0.0,0.0,0.0,0.0,0.0,0.0,0.0,0.0,0.0,0.0,0.0,0.0,0.0,0.0,0.0,0.0,0.0,0.0,0.0,0.0,0.0,0.0,0.0,0.0,0.0,0.0,0.0,0.0,0.0,0.0,0.0,0.0,0.0,0.0,0.0,0.0,0.0,0.0,0.0,0.0,0.0,0.0,5.0078,5.3591,5.6641,5.9217,6.1252,5.9846,5.8675,5.7777,5.5318,5.2468,0.0,0.0,0.0,0.0,0.0,0.0,0.0,0.0,0.0,0.0,0.0,0.0,0.0,0.0,0.0,0.0,0.0,0.0,0.0,0.0,0.0,0.0,0.0,0.0,0.0,0.0,0.0,0.0,4.2547,4.3085,4.1931,0.0,0.0,0.0,0.0,0.0,0.0,0.0,0.0,0.0,0.0,5.4857,5.628,5.7011,5.7165,5.6549,5.678,5.678,5.6165,5.6088,5.5241,5.2702,0.0,0.0,0.0,0.0,0.0,0.0,0.0,0.0,0.0,0.0,0.0,0.0,0.0,0.0,0.0,0.0,0.0,0.0,0.0,0.0,0.0,0.0,0.0,0.0,0.0,0.0,0.0,0.0,0.0,0.0,0.0,0.0,0.0,0.0,0.0,0.0,0.0,0.0,0.0,0.0,0.0,0.0,0.0,0.0,0.0,0.0,0.0,0.0,0.0,0.0,0.0,0.0,0.0,5.0906,5.2776,5.6875,5.949,6.0393,5.9534,5.8675,5.7816,5.5357,5.278,5.0126,0.0,0.0,0.0,0.0,0.0,0.0,0.0,0.0,0.0,0.0,0.0,0.0,0.0,0.0,0.0,0.0,0.0,0.0,0.0,0.0,0.0,0.0,0.0,0.0,0.0,0.0,3.9662,4.0854,4.1893,0.0,0.0,0.0,0.0,0.0,0.0,0.0,0.0,0.0,0.0,5.5318,5.7242,5.8127,5.8242,5.8242,5.8242,5.755,5.7011,5.6994,5.6973,5.6126,0.0,0.0,0.0,0.0,0.0,0.0,0.0,0.0,0.0,0.0,0.0,0.0,0.0,0.0,0.0,0.0,0.0,0.0,0.0,0.0,0.0,0.0,0.0,0.0,0.0,0.0,0.0,4.197,4.1931,0.0,0.0,0.0,0.0,0.0,0.0,0.0,0.0,0.0,0.0,0.0,4.6729,4.7272,0.0,0.0,0.0,0.0,0.0,0.0,0.0,0.0,0.0,0.0,0.0,0.0,5.1261,5.3596,5.6641,5.8948,6.0315,5.8987,5.8363,5.8636,5.6216,5.3366,5.0204,0.0,0.0,0.0,0.0,0.0,0.0,0.0,0.0,0.0,0.0,0.0,0.0,0.0,0.0,0.0,0.0,0.0,0.0,0.0,0.0,0.0,0.0,0.0,0.0,0.0,4.1816,0.0,0.0,0.0,0.0,0.0,0.0,0.0,0.0,0.0,0.0,0.0,5.1895,5.528,5.6472,5.7703,5.9704,5.9496,5.9133,0.0,0.0,0.0,0.0,0.0,0.0,0.0,0.0,0.0,0.0,0.0,0.0,0.0,0.0,5.1779,5.0087,4.9356,4.9163,4.9702,0.0,0.0,0.0,0.0,0.0,0.0,0.0,0.0,0.0,0.0,0.0,0.0,0.0,0.0,0.0,0.0,4.3766,0.0,0.0,0.0,0.0,0.0,0.0,0.0,0.0,4.8174,4.9111,4.9419,4.9922,4.9887,0.0,4.9622,4.8568,0.0,0.0,0.0,0.0,0.0,0.0,0.0,0.0,5.2117,5.4455,5.727,5.9261,6.0315,5.93,5.8831,5.9065,5.6606,5.3951,5.1102,4.9384,4.7276,0.0,0.0,0.0,0.0,0.0,0.0,0.0,0.0,0.0,0.0,0.0,0.0,0.0,0.0,0.0,0.0,0.0,0.0,0.0,0.0,0.0,0.0,0.0,4.2816,0.0,0.0,0.0,0.0,0.0,0.0,0.0,0.0,0.0,4.9548,5.1895,5.4626,5.7126,5.7934,5.8842,6.0188,0.0,0.0,0.0,0.0,0.0,0.0,0.0,5.8086,5.7731,5.7985,5.8143,5.7983,5.7456,5.7126,5.7396,0.0,0.0,5.4126,5.3241,5.3126,5.3972,5.4126,5.4318,5.4857,5.4972,5.5126,0.0,0.0,0.0,0.0,0.0,0.0,0.0,0.0,4.7463,4.7346,0.0,4.6498,0.0,0.0,0.0,0.0,0.0,0.0,0.0,0.0,5.2472,5.3639,5.2893,5.2932,5.2893,5.2815,5.2038,5.1609,5.1288,4.8213,0.0,0.0,0.0,0.0,0.0,0.0,5.3639,5.543,5.8636,6.0354,6.0393,6.0354,5.9924,5.9026,5.6645,5.4537,5.2819,5.1141,4.9774,4.8798,4.5714,0.0,0.0,0.0,0.0,0.0,0.0,0.0,0.0,0.0,0.0,0.0,0.0,0.0,0.0,0.0,0.0,0.0,0.0,0.0,0.0,4.2701,0.0,0.0,0.0,0.0,0.0,0.0,0.0,0.0,0.0,0.0,5.2279,5.4934,5.7357,5.828,0.0,0.0,0.0,0.0,5.9533,5.88,5.8718,5.8813,5.8836,5.9504,5.9783,5.8954,0.0,0.0,6.2144,6.0727,5.9903,6.0727,6.0827,6.0111,5.7747,5.7148,5.7319,5.8165,5.8303,5.8418,5.8457,5.8501,5.8501,5.3132,0.0,0.0,0.0,0.0,5.1808,5.239,5.2702,5.2312,5.1683,5.0824,5.0204,0.0,0.0,0.0,0.0,0.0,0.0,5.1453,5.3483,5.5123,5.602,5.6372,5.6957,5.6957,5.6333,5.6098,5.5357,5.4181,5.3205,5.1336,4.8681,0.0,0.0,0.0,0.0,5.5387,5.707,5.867,5.9768,6.0393,5.9807,5.9065,5.8207,5.6918,5.5708,5.4576,5.3483,5.1921,4.9813,4.8798,0.0,0.0,0.0,0.0,0.0,0.0,0.0,0.0,0.0,0.0,0.0,0.0,0.0,0.0,0.0,0.0,0.0,0.0,0.0,4.3431,4.4927,4.5368,0.0,0.0,0.0,0.0,0.0,0.0,0.0,0.0,0.0,5.6421,5.7302,5.8495,0.0,0.0,6.0166,6.0517,6.1214,6.163,6.1402,0.0,0.0,0.0,6.2713,6.2795,6.2534,6.3054,6.341,6.3402,6.2904,6.2654,6.2887,6.2926,6.2848,6.2754,6.1059,6.0111,6.0804,6.1092,6.135,6.1949,6.2161,6.2189,5.7504,5.5673,5.4502,5.3877,5.3795,5.4654,5.5313,5.5821,5.5591,5.5044,5.4259,5.4029,5.2975,5.1336,5.1023,0.0,0.0,0.0,5.4494,5.6328,5.7187,5.7855,5.8363,5.887,5.8827,5.8324,5.8324,5.7816,5.6801,5.6801,5.5747,5.3678,0.0,0.0,5.4232,5.5938,5.7651,5.9334,6.0544,6.1252,6.1408,6.0237,5.9339,5.8831,5.7699,5.6684,5.5825,5.4966,5.3639,5.1726,5.0672,4.8681,0.0,0.0,0.0,0.0,0.0,0.0,0.0,0.0,0.0,0.0,0.0,3.9767,4.0577,0.0,0.0,0.0,4.3743,4.5156,4.6733,4.7538,0.0,0.0,0.0,0.0,0.0,0.0,0.0,5.4705,5.7193,5.905,5.9765,6.0229,6.0712,6.1296,6.0997,6.106,6.195,0.0,6.3104,6.3143,6.3676,6.4079,6.4048,6.4393,6.477,6.5065,6.4722,6.4597,6.4803,6.4828,6.4775,6.4814,6.4814,6.4969,6.5474,6.4131,6.3109,6.365,6.3826,6.4072,6.4575,6.4737,6.4775,6.1291,6.0154,5.625,5.504,5.5777,5.6636,5.6987,5.6948,5.7699,5.7543,5.6875,5.7582,5.7035,5.5552,5.4767,0.0,0.0,5.6523,5.7338,5.8124,5.8944,5.9295,5.9295,5.9334,5.9295,5.9295,5.9217,5.9222,5.9183,5.9104,5.9143,5.9143,5.6055,5.5357,5.7001,5.8553,6.0154,6.1915,6.3477,6.3867,6.3008,6.1369,6.0471,6.0354,5.8792,5.7543,5.6723,5.5864,5.5005,5.4068,5.1804,5.0399,5.0008,0.0,0.0,0.0,0.0,0.0,0.0,0.0,0.0,0.0,0.0,0.0,0.0,0.0,0.0,0.0,4.753,0.0,5.0885,5.0339,0.0,0.0,0.0,5.1943,5.3713,5.5409,5.6737,5.7533,0.0,0.0,6.2352,0.0,6.3424,6.2458,6.2393,6.274,6.3628,6.3934,6.4126,6.4187,6.4285,6.4341,6.4519,6.512,6.5836,6.6516,6.5981,6.5678,6.6128,6.6295,6.632,6.6256,6.632,6.632,6.6358,6.6164,6.6344,6.6305,6.6305,6.6252,6.6213,6.6203,6.6231,6.2189,6.133,6.0276,5.9607,5.9256,6.0115,6.0115,5.9529,5.9685,5.9295,5.8514,5.8709,5.8553,5.8163,5.7968,5.8358,5.9178,5.9412,5.9959,6.0778,6.0974,6.1056,6.1095,6.1095,6.1056,6.1056,6.0388,6.0076,6.0037,5.9412,5.9456,6.0041,5.9256,5.9417,6.0475,6.09,6.1949,6.3672,6.4101,6.3867,6.3008,6.1954,6.1095,6.0393,5.9339,5.8402,5.7543,5.6723,5.5903,5.5044,5.4381,5.2858,5.0243,4.872,0.0,0.0,0.0,0.0,0.0,0.0,0.0,0.0,0.0,4.3051,4.4447,0.0,4.6187,0.0,4.8839,5.0885,5.2608,5.2655,0.0,0.0,5.4246,5.5384,5.6407,5.8661,6.045,6.1318,6.2484,6.3326,6.3493,6.3754,6.3998,6.4317,6.393,6.369,6.4001,6.4676,6.5121,6.5207,6.5705,6.6154,6.6154,6.6316,6.679,6.7598,6.7006,6.6532,6.6674,6.6713,6.6713,6.6674,6.6674,6.6666,6.6705,6.6674,6.6978,6.7446,6.7082,6.6513,6.6513,6.6615,6.6705,6.3282,6.2813,6.2423,6.1993,6.1564,6.1681,6.1408,6.0974,6.0974,6.07,6.0271,6.0271,6.0271,6.0271,6.0271,6.0505,6.0934,6.0974,6.1252,6.1681,6.172,6.172,6.172,6.172,6.172,6.1681,6.1213,6.0974,6.0974,6.0505,6.051,6.0978,6.0978,6.1603,6.2813,6.2852,6.3516,6.4843,6.4492,6.4062,6.3555,6.1993,6.0861,6.0393,5.9183,5.8285,5.7816,5.6645,5.5786,5.5318,5.4576,5.3249,5.1375,5.0087,4.8369,0.0,0.0,0.0,0.0,0.0,0.0,0.0,0.0,0.0,0.0,0.0,4.9126,4.9821,5.1829,5.3503,5.4506,5.4939,5.5335,5.5862,5.7106,5.8414,5.9766,6.1479,6.288,6.3748,6.4637,6.5153,6.5139,6.5172,6.5358,6.5805,6.5475,6.525,6.527,6.5714,6.607,6.6109,6.6823,6.7537,6.7888,6.7966,6.8122,6.8513,6.8279,6.7966,6.7966,6.7966,6.7927,6.7966,6.7966,6.7966,6.7966,6.7927,6.8122,6.8429,6.8248,6.7914,6.7829,6.7904,6.7927,6.4414,6.4219,6.3477,6.3086,6.293,6.2189,6.1798,6.172,6.172,6.172,6.172,6.172,6.172,6.172,6.172,6.172,6.172,6.172,6.172,6.172,6.172,6.172,6.172,6.172,6.172,6.172,6.172,6.172,6.172,6.172,6.172,6.172,6.172,6.2579,6.4219,6.4297,6.4726,6.5585,6.4726,6.4219,6.4101,6.1798,6.051,6.0354,5.8831,5.7894,5.7777,5.6177,5.5318,5.524,5.3834,5.2975,5.2858,5.1453,5.0204,0.0,4.8642,0.0,0.0,0.0,0.0,0.0,0.0,0.0,0.0,5.1528,5.2253,5.3718,5.5255,5.6319,5.6573,5.7218,5.8032,5.92,5.9993,6.1187,6.2903,6.385,6.4666,6.5406,6.6252,6.6733,6.6594,6.672,6.6795,6.6751,6.6673,6.6655,6.6798,6.6876,6.6951,6.699,6.7693,6.8552,6.9255,6.9411,6.9372,6.9489,6.9372,6.9411,6.9294,6.9333,6.9333,6.9333,6.9255,6.9333,6.9411,6.9333,6.9411,6.9528,6.9522,6.9444,6.9288,6.9215,6.9372,6.4921,6.4297,6.4101,6.3672,6.2969,6.2813,6.2345,6.172,6.172,6.172,6.172,6.172,6.172,6.172,6.172,6.172,6.172,6.172,6.172,6.172,6.172,6.172,6.172,6.172,6.172,6.172,6.172,6.172,6.172,6.172,6.172,6.172,6.172,6.2579,6.4219,0.0,0.0,0.0,6.4726,6.3984,6.3243,6.2071,6.1134,6.0432,5.9378,0.0,5.7777,5.6177,5.5318,5.5279,5.4966,0.0,0.0,0.0,0.0,0.0,0.0,0.0,0.0,0.0,0.0,0.0,5.3826,5.3447,5.3416,5.4587,5.5753,5.6691,5.7067,5.783,5.927,5.9532,6.001,6.0945,6.2477,6.3584,6.3873,6.523,6.6349,6.6505,6.6673,6.6795,6.6778,6.679,6.6795,6.6795,6.6795,6.7102,6.7715,6.7799,6.7849,6.7927,6.863,6.945,7.0309,6.9918,6.9801,7.0152,6.984,6.9489,6.9489,6.9489,6.9411,6.945,6.9411,6.945,6.945,6.9411,6.9723,7.0309,7.0465,7.023,6.9567,6.9411,6.9176,6.5936,0.0,6.5116,6.4687,0.0,6.3828,6.3399,6.2969,6.254,6.2345,6.2306,6.1876,6.172,6.172,6.172,6.172,6.172,6.172,6.172,6.172,6.172,6.172,6.172,6.172,6.172,6.172,6.172,6.172,6.172,6.172,6.172,6.172,6.172,6.2345,6.3633,6.4492,6.5155,6.5585,6.4726,6.3867,6.2969,6.172,6.0666,5.9768,0.0,0.0,0.0,0.0,0.0,0.0,0.0,0.0,0.0,0.0,0.0,5.4654,5.4615,5.481,5.5201,5.5626,5.6246,5.7065,5.7529,5.7193,5.584,5.7293,5.8431,5.8725,5.9099,5.9921,6.1295,6.1022,6.1266,6.268,6.3279,6.3858,6.4723,6.5608,6.6366,6.6756,6.6795,6.6795,6.6795,6.6795,6.6795,6.6834,6.7185,6.7576,6.7966,6.8083,6.8318,6.9215,6.9723,7.0348,7.1089,7.105,7.0777,7.1167,7.0972,7.0738,7.0699,7.0699,7.0699,7.066,7.066,7.0699,7.066,7.0699,7.0816,7.1206,7.1324,7.1206,7.0738,7.0699,7.0582,6.7107,6.7146,6.6209,6.5819,6.5741,6.4882,6.4531,6.4492,0.0,0.0,0.0,6.2618,6.2149,6.2149,6.1837,6.172,6.172,6.172,6.172,6.172,6.172,6.172,6.172,6.172,6.172,6.172,6.172,6.172,6.172,6.172,6.172,6.172,6.172,6.2228,6.3243,6.496,6.5741,6.5585,6.4726,6.3906,6.3008,6.1447,6.0237,5.9339,5.8636,5.8207,5.8011,5.7231,5.7113,5.7738,5.7192,5.6801,5.6801,5.6957,5.7035,5.7035,5.7192,5.7582,5.8207,5.8402,5.8792,5.9495,6.0198,5.9982,5.8421,5.9611,6.0477,6.0538,6.1128,6.188,6.2765,6.2229,6.2357,6.3935,6.3631,6.3967,6.5346,6.5741,6.6131,6.6678,6.6795,6.6795,6.6795,6.6795,6.6873,6.7107,6.7615,6.8279,6.8513,6.8669,6.9215,7.0543,7.0894,7.1206,7.1753,7.1909,7.1987,7.1909,7.1948,7.1987,7.1987,7.1987,7.1987,7.1831,7.1987,7.1909,7.1948,7.187,7.1987,7.1987,7.1987,7.1987,7.1987,7.1987,7.1831,6.8362,6.8908,6.7303,6.6639,6.6561,6.578,6.5429,6.539,6.5306,6.5624,6.617,6.4609,6.3945,6.3867,6.2384,6.172,6.172,6.172,6.172,0.0,6.172,6.172,6.172,6.172,6.172,6.172,6.172,6.172,6.172,6.172,6.172,6.172,6.172,6.2501,6.4101,6.578,6.6288,6.5585,6.4765,6.3867,6.3008,6.2032,6.1095,6.0276,6.008,5.969,5.8948,5.8128,5.7699,5.7816,5.7699,5.7621,5.766,5.8363,5.8753,5.8792,5.9456,5.9924,6.0041,6.0705,6.1213,6.133,6.1447,6.1403,6.1158,6.1353,6.1777,6.2479,6.2635,6.2797,6.2998,6.3455,6.3611,6.3433,6.4448,6.5346,6.5624,6.6209,6.6639,6.6795,6.6795,6.6795,6.6795,6.6795,6.7068,6.7693,6.8161,6.8669,6.9918,7.0309,7.0738,7.1558,7.1831,7.187,7.1948,7.1987,7.1987,7.1987,7.1987,7.1987,7.1987,7.1987,7.1987,7.1987,7.1987,7.1987,7.1987,7.1987,7.1987,7.1987,7.1987,7.1987,7.1987,7.1987,7.1753,6.902,6.9221,6.8005,6.7498,6.7459,6.66,6.6522,6.6951,6.6951,6.6873,6.6678,6.5507,6.4726,6.4219,6.3477,6.2579,6.172,6.2696,6.2618,6.1759,6.2189,6.2149,6.172,6.172,6.172,6.172,6.172,6.172,6.172,6.172,6.1954,6.2423,6.2852,6.3516,6.4336,6.5546,6.5975,6.5585,6.5194,6.4375,6.3047,6.2618,6.1759,6.0432,6.0393,6.0471,6.051,6.0119,6.0119,6.0588,6.0627,6.0432,5.9963,6.0315,6.051,6.0549,6.09,6.1095,6.1095,6.1447,6.172,6.172,6.172,6.172,6.172,6.2149,6.2384,6.2345,6.3125,6.3711,6.3711,6.4062,6.4492,6.5038,6.5468,6.578,6.6209,6.6522,6.6795,6.6795,6.6795,6.6795,6.6795,6.6795,6.7146,6.7966,6.8786,6.9957,7.1167,7.1402,7.1519,7.1909,7.1987,7.1987,7.1987,7.1987,7.1987,7.1987,7.1987,7.1987,7.1987,7.1987,7.1987,7.1987,7.1987,7.1987,7.1987,7.1987,7.1987,7.1987,7.1987,7.1987,7.1987,7.1987,7.1675,6.9684,6.9606,6.8552,6.8005,6.7771,6.7107,6.7185,6.7815,6.801,6.7732,6.7063,6.6444,6.5897,6.5429,6.4882,6.3945,6.3125,6.4062,6.3945,6.3008,6.336,6.3243,6.2579,6.2384,6.2189,6.2032,6.1993,6.1993,6.1993,6.1993,6.2423,6.3282,6.4179,6.4609,6.4609,6.5468,6.5858,6.5858,6.5858,6.5155,6.3672,6.3399,6.2618,6.1408,6.1291,6.1603,6.2228,6.2267,6.2579,6.3243,6.3086,6.2696,6.2032,6.1798,6.172,6.172,6.172,6.172,6.172,6.172,6.1798,6.1993,6.1798,6.1876,6.2267,6.2891,6.3047,6.2579,6.3516,6.4336,6.457,6.4804,6.5312,6.6366,6.617,6.6131,6.6678,6.6795,6.6795,6.6795,6.6795,6.6795,6.6795,6.6795,6.7264,6.8396,6.9879,7.1245,7.187,7.1987,7.1987,7.1987,7.1987,7.1987,7.1987,7.1987,7.1987,7.1987,7.1987,7.1987,7.1987,7.1987,7.1987,7.1987,7.1987,7.1987,7.1987,7.1987,7.1987,7.1987,7.1987,7.1987,7.1987,7.1987,7.1714,7.0582,7.0309,6.882,6.7615,6.6951,6.6834,6.6873,6.7029,6.7737,6.8088,6.7888,6.7927,6.82,6.8552,6.6449,6.5663,6.6014,6.5702,6.5702,6.6014,6.5663,6.5316,6.4999,6.4375,6.3633,6.2969,6.2891,6.2891,6.2891,6.293,6.3321,6.4179,6.5038,6.5468,6.5585,6.6249,6.6678,6.6678,6.6678,6.6249,6.539,6.4609,6.4101,6.3945,6.3906,6.3984,6.3984,6.4062,6.4101,6.4101,6.3438,6.2969,6.2813,6.2149,6.172,6.172,6.172,6.172,6.172,6.172,6.211,6.2735,6.2189,6.2423,6.3789,6.4101,6.414,6.4101,6.4219,6.4726,6.539,6.6053,6.6249,6.5936,6.6327,6.6717,6.6756,6.6795,6.6795,6.6795,6.6795,6.6795,6.6795,6.6912,6.7576,6.8981,7.0621,7.1792,7.1948,7.1987,7.1987,7.1987,7.1987,7.1987,7.1987,7.1987,7.1987,7.1987,7.1987,7.1987,7.1987,7.1987,7.1987,7.1987,7.1987,7.1987,7.1987,7.1987,7.1987,7.1987,7.1987,7.1987,7.1987,7.1987,7.1675,7.0699,7.0582,6.9372,6.8044,6.6873,6.6795,6.6795,6.6834,6.7185,6.7615,6.8083,6.8083,6.8044,6.7805,6.6751,6.5975,6.539,6.6014,6.5931,6.5424,6.5502,6.5312,6.4804,6.4492,6.4101,6.3789,6.375,6.375,6.3867,6.4297,6.4726,6.5116,6.5897,6.6327,6.6327,6.6639,6.6795,6.6795,6.6795,6.6639,6.6249,6.5507,6.4843,6.4336,6.4297,6.457,6.4999,6.5077,6.5077,6.5038,6.4726,6.4297,6.3789,6.3438,6.3008,6.254,6.2462,6.2462,6.2462,6.293,6.3164,6.3008,6.3164,6.3594,6.4219,6.4297,6.4492,6.5038,6.5507,6.578,6.5702,6.6327,6.6678,6.6405,6.66,6.6795,6.6795,6.6795,6.6795,6.6795,6.6795,6.6795,6.699,6.7732,6.8552,6.9489,7.0894,7.1948,7.1987,7.1987,7.1987,7.1987,7.1987,7.1987,7.1987,7.1987,7.1987,7.1987,7.1987,7.1987,7.1987,7.1987,7.1987,7.1987,7.1987,7.1987,7.1987,7.1987,7.1987,7.1987,7.1987,7.1987,7.1987,7.1987,7.1792,7.105,7.0894,6.9884,6.8557,6.7185,6.7146,6.7146,6.7107,6.6912,6.7185,6.7698,6.7737,6.7381,6.6868,6.7024,6.6561,6.5897,6.6717,6.6673,6.5775,6.6126,6.597,6.5351,6.5077,6.4843,6.4687,6.4648,6.4648,6.4765,6.5507,6.5936,6.6014,6.6522,6.6795,6.6795,6.6795,6.6795,6.6795,6.6795,6.6795,6.6717,6.6209,6.5624,6.5038,6.4999,6.5273,6.5897,6.5936,6.5936,6.5936,6.5741,6.5312,6.4726,6.4453,6.4023,6.3438,6.336,6.336,6.336,6.3945,6.414,6.3789,6.414,6.4492,6.4843,6.4804,6.5038,6.5819,6.6444,6.6483,6.6131,6.6444,6.6756,6.6795,6.6795,6.6795,6.6795,6.6795,6.6795,6.6795,6.6795,6.6912,6.7342,6.8591,6.9762,6.9957,7.105,7.1987,7.1987,7.1987,7.1987,7.1987,7.1987,7.1987,7.1987,7.1987,7.1987,7.1987,7.1987,7.1987,7.1987,7.1987,7.1987,7.1987,7.1987,7.1987,7.1987,7.1987,7.1987,7.1987,7.1987,7.1987,7.1987,7.1987,7.1987,7.1948,7.1636,7.0079,6.8869,6.8049,6.801,6.801,6.7893,6.7146,6.6834,6.6912,6.6912,6.6834,6.6873,6.7615,6.8401,6.883,6.8161,6.82,6.8596,6.8122,6.7932,6.7893,6.7107,6.6249,6.5546,6.5546,6.5546,6.5585,6.6327,6.6756,6.6756,6.6756,6.6795,6.6795,6.6795,6.6795,6.6795,6.6873,6.6834,6.6834,6.6795,6.6795,6.6722,6.6639,6.66,6.6717,6.6717,6.6717,6.6756,6.6053,6.5585,6.5468,6.4765,6.4336,6.4258,6.4258,6.4258,6.4219,6.4375,6.4687,6.5194,6.4804,6.4999,6.6249,6.5897,6.5858,6.6639,6.6717,6.6756,6.6678,6.6717,6.6795,6.6795,6.6795,6.6795,6.6795,6.6795,6.6795,6.6873,6.699,6.7342,6.8005,6.9567,7.0387,7.0699,7.1402,7.1987,7.1987,7.1987,7.1987,7.1987,7.1987,7.1987,7.1987,7.1987,7.1987,7.1987,7.1987,7.1987,7.1987,7.1987,7.1987,7.1987,7.1987,7.1987,7.1987,7.1987,7.1987,7.1987,7.1987,7.1987,7.1987,7.1987,7.1987,7.1324,7.0309,6.965,6.8903,6.8122,6.8083,6.8083,6.801,6.7185,6.6795,6.6795,6.6795,6.6795,6.6834,6.7698,6.7971,6.7737,6.7381,6.7459,6.7698,6.742,6.7264,6.7224,6.6912,6.6678,6.6405,6.6366,6.6366,6.6366,6.6678,6.6795,6.6795,6.6795,6.6795,6.6795,6.6795,6.6795,6.6873,6.7303,6.7654,6.7698,6.8166,6.8444,6.8379,6.739,6.6873,6.6873,6.6873,6.6834,6.6795,6.6522,6.6366,6.6288,6.5585,6.5351,6.578,6.5429,6.5116,6.5194,6.5624,6.578,6.5624,6.5819,6.6053,6.66,6.6522,6.6522,6.6756,6.6795,6.6795,6.6795,6.6795,6.6795,6.6795,6.6795,6.6795,6.6795,6.6795,6.699,6.7576,6.8083,6.863,6.902,6.9996,7.066,7.0777,7.1441,7.1909,7.1987,7.1987,7.1987,7.1987,7.1987,7.1987,7.1987,7.1987,7.1987,7.1987,7.1987,7.1987,7.1987,7.1987,7.1987,7.2026,7.2026,7.2221,7.2339,7.2378,7.2339,7.226,7.226,7.2378,7.1987,7.2339,7.226,7.1402,6.9996,7.0119,6.9723,6.8976,6.8937,6.8786,6.8479,6.7893,6.7498,6.7303,6.7498,6.7615,6.7737,6.8284,6.8239,6.7693,6.7654,6.7654,6.7615,6.7342,6.7224,6.7185,6.6912,6.6951,6.7185,6.7224,6.7342,6.7537,6.7068,6.6951,6.7224,6.6951,6.6795,6.6834,6.7068,6.7224,6.7386,6.8062,6.8531,6.8596,6.9064,6.9386,6.9283,6.8304,6.7559,6.7317,6.7043,6.6887,6.6848,6.6839,6.6834,6.6756,6.6327,6.6249,6.6678,6.6288,6.5975,6.6053,6.6483,6.6561,6.6053,6.6444,6.6795,6.6795,6.6795,6.6795,6.6795,6.6795,6.6795,6.6873,6.7068,6.7107,6.6873,6.6795,6.6951,6.7185,6.7224,6.7654,6.8435,6.9255,6.9723,6.9918,7.0621,7.105,7.1128,7.1675,7.1948,7.1987,7.1987,7.1987,7.1987,7.1987,7.1987,7.2149,7.231,7.2227,7.2188,7.2227,7.2149,7.2188,7.2149,7.2149,7.2104,7.226,7.2534,7.269,7.2807,7.2807,7.2768,7.308,7.3354,7.3119,7.2963,7.3008,7.2221,7.086,7.1602,7.1212,7.0387,7.0309,7.0074,6.9377,6.926,6.8747,6.8239,6.8903,6.9103,6.9299,6.9338,6.9372,6.9294,6.9372,6.9299,6.9103,6.8362,6.8044,6.8049,6.7303,6.7381,6.8083,6.8088,6.8513,6.9059,6.781,6.742,6.7849,6.7381,6.7146,6.6912,6.7737,6.8132,6.8293,6.898,6.9369,6.9421,6.9577,6.9703,6.964,6.9412,6.8983,6.8232,6.7451,6.7099,6.7018,6.6965,6.6917,6.6917,6.68,6.6839,6.68,6.6761,6.6756,6.6756,6.6756,6.6795,6.6678,6.6795,6.6795,6.6795,6.6795,6.6795,6.6795,6.6873,6.6873,6.7029,6.7654,6.7771,6.699,6.7029,6.742,6.7927,6.8161,6.8435,6.9333,7.0152,7.066,7.0855,7.1324,7.1753,7.1831,7.1909,7.1987,7.1987,7.1993,7.1993,7.2071,7.2227,7.2349,7.251,7.2631,7.251,7.2427,7.2505,7.2505,7.27,7.2739,7.2822,7.2822,7.3134,7.3369,7.3681,7.3798,7.3911,7.395,7.4223,7.4223,7.3989,7.3837,7.4067,7.1733,7.0775,7.0987,7.0621,6.9879,6.9801,6.9606,6.9411,6.9416,6.9215,6.9059,6.9294,6.9411,6.9567,6.9996,7.0309,7.0348,7.0855,7.0582,6.945,6.8552,6.8474,6.8752,6.8122,6.8161,6.8864,6.8981,6.9137,6.9255,6.8825,6.8786,6.8864,6.8713,6.8596,6.8596,6.8854,6.898,6.9099,6.9843,7.0312,7.0347,7.0898,7.1172,7.1131,7.0625,7.0117,6.9882,6.9061,6.8358,6.7812,6.7802,6.7519,6.7051,6.6895,6.6895,6.6856,6.6883,6.6873,6.6873,6.6873,6.6873,6.6873,6.6873,6.6834,6.6795,6.6873,6.6912,6.6912,6.7303,6.7698,6.7849,6.8474,6.8596,6.781,6.8239,6.8591,6.8986,6.9489,6.9957,7.0309,7.105,7.1519,7.1597,7.1948,7.1987,7.1993,7.1987,7.1987,7.2026,7.208,7.2323,7.2713,7.283,7.3065,7.3416,7.3693,7.3768,7.3568,7.3451,7.326,7.3338,7.342,7.3498,7.3732,7.4006,7.4318,7.4591,7.4787,7.4943,7.4787,7.4709,7.467,7.4591,7.4748,7.5021,7.2142,7.1679,7.1671,7.1147,7.0387,7.0348,7.0191,6.9957,7.023,7.0191,6.9996,7.023,7.0387,7.0465,7.0933,7.1167,7.1245,7.1792,7.1441,7.0348,6.9444,6.9411,6.9806,6.9333,6.9294,6.9762,6.9879,7.0074,7.0309,6.9762,6.9728,7.0245,7.0058,7.0054,7.0319,7.039,7.0351,7.0469,7.0898,7.1172,7.1289,7.1719,7.1992,7.1914,7.1484,7.1211,7.1133,7.0625,6.9844,6.8867,6.8631,6.8238,6.7496,6.7379,6.7222,6.6947,6.6904,6.6898,6.6891,6.6887,6.6887,6.6926,6.716,6.7317,6.7356,6.7546,6.7776,6.7863,6.8254,6.8566,6.8683,6.9351,6.9542,6.9152,6.9182,6.9533,6.985,7.0635,7.1139,7.129,7.1646,7.1924,7.2002,7.1993,7.1993,7.1997,7.2002,7.2232,7.2349,7.251,7.299,7.3468,7.3706,7.4056,7.4439,7.4751,7.5027,7.4829,7.4591,7.4324,7.4171,7.4212,7.4253,7.4722,7.5073,7.5425,7.5738,7.5816,7.5894,7.5581,7.539,7.5703,7.5937,7.5859,7.6011,7.3359,7.332,7.3203,7.2535,7.1768,7.169,7.126,7.086,7.1646,7.1524,7.105,7.1597,7.1948,7.1948,7.1831,7.187,7.1987,7.1948,7.2065,7.1753,7.1206,7.0855,7.0743,7.0777,7.0894,7.0938,7.0933,7.129,7.1807,7.0709,7.0479,7.1936,7.1519,7.1363,7.2017,7.2146,7.207,7.1953,7.2031,7.207,7.1953,7.1953,7.1992,7.1992,7.1953,7.1914,7.1836,7.1758,7.1055,6.9726,6.9375,6.8984,6.8398,6.8242,6.793,6.7305,6.7109,6.7186,6.714,6.7333,6.7294,6.7372,6.7841,6.8154,6.8232,6.8694,6.9078,6.9124,6.9325,6.9481,6.9638,7.0263,7.065,7.0689,7.0206,7.0162,7.0728,7.147,7.1783,7.1889,7.1971,7.1981,7.2017,7.2088,7.2163,7.2206,7.2291,7.2798,7.3143,7.3459,7.3814,7.4219,7.4609,7.5,7.543,7.5698,7.5972,7.5894,7.5703,7.5469,7.5234,7.5234,7.5273,7.5742,7.5976,7.6406,7.664,7.6601,7.668,7.6601,7.6719,7.7148,7.707,7.6758,7.664,7.3867,7.3242,7.2617,7.1835,7.1091,7.1052,7.0976,7.0937,7.2344,7.2486,7.1997,7.2573,7.2612,7.2065,7.2026,7.1987,7.2104,7.2026,7.2417,7.2885,7.2768,7.2221,7.1909,7.23,7.2578,7.2578,7.2539,7.2709,7.2925,7.2422,7.2773,7.3876,7.363,7.3633,7.3906,7.3867,7.3555,7.3047,7.293,7.2578,7.207,7.1992,7.1992,7.1992,7.1992,7.1992,7.1992,7.1992,7.1523,7.0469,6.9765,6.9414,6.918,6.9101,6.8945,6.875,6.8672,6.8711,6.8711,6.8711,6.875,6.8749,6.8867,6.9062,6.9062,6.9297,6.9453,6.9518,6.9914,7.0349,7.0499,7.1124,7.1549,7.1612,7.129,7.1251,7.1538,7.1827,7.199,7.1989,7.2014,7.2056,7.2183,7.2578,7.293,7.3068,7.339,7.3867,7.414,7.4297,7.457,7.5156,7.5625,7.6015,7.6367,7.668,7.6835,7.6836,7.6758,7.668,7.6523,7.6523,7.6601,7.6836,7.664,7.6875,7.6992,7.7031,7.7187,7.7226,7.7226,7.7226,7.7226,7.7031,7.6992,7.4844,7.4375,7.3828,7.3125,7.2383,7.2344,7.2344,7.25,7.3359,7.3587,7.3286,7.3588,7.3549,7.308,7.2729,7.2768,7.3002,7.2729,7.3041,7.3744,7.3822,7.3549,7.3315,7.3666,7.3833,7.3849,7.3833,7.3814,7.3828,7.3828,7.4336,7.4954,7.5154,7.5312,7.5586,7.4883,7.4375,7.3789,7.3203,7.2461,7.2031,7.1992,7.1992,7.1992,7.1992,7.1992,7.1992,7.1992,7.1719,7.125,7.0781,7.039,7.0039,6.9961,6.9805,6.9531,6.9414,6.9375,6.9453,6.9492,6.9453,6.9492,6.9648,6.9922,7.0039,7.0273,7.0544,7.0619,7.1014,7.121,7.1325,7.1716,7.1947,7.1942,7.2002,7.1997,7.1992,7.1989,7.1992,7.207,7.23,7.2539,7.2578,7.332,7.3711,7.39,7.4177,7.4648,7.5039,7.5117,7.5351,7.5976,7.6328,7.6601,7.6758,7.6953,7.7031,7.7109,7.7148,7.7187,7.7226,7.7226,7.7187,7.7148,7.7187,7.7226,7.7226,7.7226,7.7226,7.7226,7.7226,7.7226,7.7226,7.7226,7.7226,7.5976,7.5898,7.5898,7.539,7.4531,7.457,7.4297,7.4531,7.4648,7.4642,7.4535,7.4652,7.4574,7.4569,7.3705,7.3827,7.4462,7.3725,7.4033,7.4545,7.4857,7.4935,7.4896,7.4701,7.4751,7.4724,7.4748,7.4718,7.4726,7.4726,7.5234,7.5859,7.6055,7.6289,7.6328,7.5469,7.4726,7.4062,7.3047,7.2305,7.207,7.1992,7.1992,7.1992,7.1992,7.1992,7.1992,7.1992,7.1953,7.1992,7.1992,7.1484,7.0898,7.0859,7.0586,7.0117,7.0078,7.0156,6.9844,7.0,6.9883,7.0,7.0508,7.0898,7.1094,7.1523,7.1797,7.1953,7.2031,7.1875,7.1875,7.1992,7.2109,7.2226,7.2212,7.2173,7.2226,7.2187,7.2148,7.2305,7.3008,7.332,7.3633,7.414,7.4726,7.4765,7.5117,7.5625,7.5937,7.6015,7.6328,7.6797,7.7031,7.7109,7.7148,7.7187,7.7187,7.7187,7.7187,7.7226,7.7226,7.7226,7.7226,7.7226,7.7226,7.7226,7.7226,7.7226,7.7226,7.7226,7.7226,7.7226,7.7226,7.7226,7.7226,7.6523,7.5898,7.5898,7.539,7.4648,7.457,7.4609,7.4687,7.5351,7.5306,7.4892,7.5304,7.5262,7.4647,7.4452,7.4427,7.4726,7.4531,7.4803,7.5623,7.6365,7.6601,7.6406,7.5859,7.5625,7.5625,7.5625,7.5625,7.5625,7.5625,7.6055,7.6758,7.6601,7.664,7.6094,7.5664,7.4844,7.3789,7.3125,7.2578,7.207,7.1992,7.1992,7.1992,7.1992,7.1992,7.1992,7.1992,7.1992,7.1992,7.1992,7.1836,7.1758,7.2265,7.2148,7.1719,7.2031,7.2109,7.164,7.1484,7.1445,7.1484,7.168,7.1992,7.2617,7.2265,7.2461,7.2695,7.2422,7.2109,7.2109,7.2031,7.2383,7.2812,7.3047,7.3281,7.375,7.3437,7.332,7.3789,7.414,7.4336,7.4336,7.5078,7.5547,7.5664,7.6055,7.6601,7.6758,7.6797,7.6953,7.7226,7.7226,7.7226,7.7226,7.7226,7.7226,7.7226,7.7226,7.7226,7.7226,7.7226,7.7226,7.7226,7.7226,7.7226,7.7226,7.7226,7.7226,7.7226,7.7226,7.7226,7.7226,7.7226,7.7226,7.6914,7.6523,7.6523,7.625,7.5859,7.582,7.582,7.5898,7.6289,7.6287,7.5968,7.6366,7.6248,7.5809,7.5418,7.5386,7.5742,7.582,7.6055,7.6562,7.6992,7.6953,7.6562,7.625,7.6055,7.6406,7.6523,7.6523,7.6445,7.6133,7.6289,7.6992,7.6445,7.5976,7.5703,7.5156,7.4219,7.3437,7.289,7.2422,7.207,7.1992,7.1992,7.1992,7.1992,7.1992,7.1992,7.1992,7.1992,7.1992,7.1992,7.1992,7.2148,7.2812,7.3008,7.289,7.3398,7.3711,7.3281,7.3203,7.3203,7.3164,7.3203,7.3437,7.375,7.3437,7.3437,7.3594,7.3203,7.2617,7.2617,7.2617,7.3047,7.3672,7.3906,7.4258,7.4844,7.4453,7.4023,7.4609,7.4922,7.5117,7.5469,7.5976,7.6328,7.6484,7.6484,7.6992,7.6992,7.7031,7.707,7.7226,7.7226,7.7226,7.7226,7.7226,7.7226,7.7226,7.7226,7.7226,7.7226,7.7226,7.7226,7.7226,7.7226,7.7226,7.7226,7.7226,7.7226,7.7226,7.7226,7.7226,7.7265,7.7344,7.7305,7.7226,7.7226,7.7226,7.7226,7.7226,7.7148,7.7109,7.7148,7.7226,7.6914,7.6992,7.7031,7.6601,7.6562,7.6094,7.6406,7.6953,7.707,7.6953,7.6758,7.6797,7.6406,7.5859,7.5703,7.5859,7.6758,7.6523,7.6523,7.6367,7.6133,7.5859,7.6367,7.543,7.4961,7.5,7.418,7.3281,7.293,7.2422,7.2109,7.2031,7.1992,7.1992,7.1992,7.1992,7.1992,7.1992,7.1992,7.1992,7.1992,7.1992,7.1992,7.2187,7.2773,7.332,7.332,7.4023,7.4336,7.4297,7.4375,7.4414,7.457,7.4531,7.4648,7.4687,7.457,7.4531,7.4414,7.4062,7.3515,7.3476,7.3476,7.3945,7.4531,7.4805,7.5195,7.5742,7.543,7.5234,7.5234,7.5742,7.6055,7.625,7.664,7.6953,7.7226,7.7226,7.7226,7.7226,7.7226,7.7226,7.7226,7.7226,7.7226,7.7226,7.7226,7.7226,7.7305,7.7305,7.7461,7.7539,7.793,7.8008,7.7305,7.7226,7.7265,7.7265,7.7226,7.7226,7.7265,7.7539,7.7773,7.7734,7.7578,7.7578,7.7226,7.7226,7.7226,7.7226,7.7226,7.7187,7.7148,7.7226,7.7109,7.6758,7.6172,7.6133,7.5742,7.539,7.5781,7.6367,7.7031,7.7187,7.6836,7.6328,7.625,7.5859,7.5117,7.5,7.5,7.4961,7.5117,7.5156,7.5195,7.4883,7.5,7.5,7.4648,7.4375,7.3984,7.3359,7.3008,7.2773,7.2305,7.2148,7.2148,7.2109,7.2031,7.207,7.2148,7.2187,7.2109,7.2031,7.1992,7.1992,7.1992,7.2031,7.2344,7.2969,7.332,7.3476,7.4101,7.4609,7.4726,7.4648,7.4609,7.457,7.4765,7.5117,7.5312,7.5156,7.5195,7.5234,7.4922,7.4375,7.4375,7.4375,7.4805,7.539,7.5742,7.5976,7.6601,7.668,7.6523,7.6445,7.6719,7.6875,7.6914,7.6953,7.7109,7.7226,7.7226,7.7226,7.7226,7.7226,7.7226,7.7226,7.7226,7.7226,7.7226,7.7226,7.7226,7.7422,7.7578,7.8086,7.832,7.8984,7.8906,7.8164,7.7656,7.7578,7.75,7.7461,7.7734,7.8125,7.832,7.8476,7.8555,7.8594,7.8555,7.7226,7.7226,7.7226,7.7226,7.7109,7.6719,7.6523,7.6445,7.6055,7.5625,7.5351,7.5234,7.5039,7.4922,7.5508,7.6367,7.7031,7.7187,7.6719,7.6094,7.625,7.582,7.4805,7.4648,7.4258,7.4062,7.3945,7.4297,7.4492,7.4101,7.4258,7.4297,7.3828,7.3437,7.375,7.3555,7.3398,7.3125,7.293,7.2656,7.2695,7.2656,7.25,7.2265,7.2851,7.3086,7.2773,7.3203,7.3359,7.3359,7.3359,7.332,7.3437,7.3594,7.375,7.3594,7.414,7.4883,7.5156,7.5273,7.5469,7.5937,7.5898,7.6094,7.6367,7.625,7.5898,7.5781,7.5703,7.5273,7.5273,7.5273,7.5703,7.6367,7.6562,7.6758,7.707,7.7187,7.7226,7.7226,7.7109,7.707,7.7109,7.7148,7.7187,7.7226,7.7226,7.7226,7.7226,7.7344,7.7383,7.75,7.7539,7.7461,7.7539,7.7578,7.7305,7.7422,7.8086,7.8594,7.8906,7.9453,7.9453,7.8984,7.8555,7.8515,7.8515,7.875,7.8906,7.8984,7.9101,7.9258,7.9492,7.957,7.9531,7.7226,7.7226,7.7226,7.7109,7.6836,7.6211,7.5937,7.5742,7.5234,7.4883,7.4609,7.4805,7.4726,7.4687,7.543,7.6367,7.7148,7.7226,7.6797,7.6523,7.6797,7.6328,7.5547,7.5039,7.4883,7.4414,7.4531,7.414,7.4101,7.3984,7.4101,7.418,7.3125,7.3086,7.414,7.3945,7.414,7.414,7.3984,7.3594,7.3555,7.3515,7.3281,7.2656,7.3906,7.418,7.3711,7.4062,7.4336,7.4375,7.4453,7.4492,7.457,7.457,7.4258,7.3828,7.4414,7.5234,7.5898,7.6172,7.6406,7.6836,7.7109,7.7148,7.7148,7.6953,7.6836,7.6328,7.6172,7.6172,7.6172,7.6172,7.6484,7.6875,7.7148,7.7187,7.7187,7.7226,7.7226,7.7226,7.7226,7.7226,7.7226,7.7226,7.7226,7.7226,7.7226,7.7226,7.7265,7.7656,7.7773,7.793,7.7969,7.7851,7.793,7.8125,7.7695,7.7305,7.8437,7.9414,7.957,7.9805,7.9805,8.0117,8.0234,8.0234,8.0156,7.9805,7.9687,7.9687,7.9844,8.0195,8.0625,8.0664,8.0547,7.7226,7.7226,7.7226,7.6758,7.6094,7.5937,7.5898,7.582,7.5625,7.5312,7.4648,7.5234,7.4805,7.4336,7.5273,7.6367,7.6992,7.7187,7.7109,7.6953,7.7187,7.7187,7.6875,7.6914,7.625,7.5625,7.6133,7.5312,7.4531,7.4414,7.4453,7.4531,7.4414,7.4492,7.4805,7.4765,7.4492,7.4609,7.4531,7.4453,7.4453,7.4453,7.4414,7.4297,7.4609,7.4765,7.4609,7.4844,7.4961,7.4805,7.4726,7.4648,7.457,7.457,7.457,7.4726,7.5273,7.6094,7.6719,7.6758,7.6875,7.7109,7.7226,7.7226,7.7344,7.7383,7.7265,7.7109,7.707,7.707,7.7031,7.6992,7.7109,7.7109,7.7226,7.7226,7.7226,7.7226,7.7226,7.7226,7.7226,7.7226,7.7226,7.7226,7.7226,7.7226,7.7226,7.7305,7.75,7.7969,7.8398,7.8594,7.8672,7.8555,7.8476,7.8672,7.8242,7.7578,7.8789,8.0117,8.0039,8.0234,8.1406,8.164,8.1719,8.1289,8.0703,8.0351,8.0273,8.0469,8.0781,8.1328,8.1953,8.1797,8.1406,7.7226,7.7226,7.7226,7.668,7.5859,7.539,7.5156,7.5078,7.4609,7.4492,7.4648,7.4961,7.4922,7.4922,7.5664,7.6367,7.707,7.7226,7.7226,7.7422,7.7656,7.793,7.793,7.789,7.7461,7.6992,7.6914,7.6719,7.5703,7.5273,7.5351,7.5351,7.5,7.5156,7.5937,7.6055,7.6094,7.6094,7.6055,7.582,7.5586,7.5703,7.5625,7.4805,7.6015,7.6133,7.5781,7.6445,7.6445,7.625,7.6094,7.6055,7.6094,7.6094,7.6094,7.6133,7.6406,7.6562,7.6484,7.6562,7.6836,7.7148,7.7265,7.7422,7.7773,7.7969,7.8164,7.8594,7.8203,7.7969,7.7773,7.7461,7.7265,7.7226,7.7461,7.7344,7.7305,7.7226,7.7226,7.7226,7.7265,7.7344,7.7422,7.75,7.7539,7.7461,7.7734,7.8086,7.832,7.875,7.9101,7.9414,7.9453,7.9375,7.9297,7.9297,7.8906,7.8594,7.9531,8.0469,8.0273,8.0703,8.1797,8.2304,8.2109,8.164,8.1133,8.1172,8.1289,8.1484,8.1719,8.2031,8.2265,8.2226,8.1797,7.7226,7.7226,7.7226,7.668,7.5859,7.5195,7.4961,7.4844,7.4375,7.4375,7.4765,7.5039,7.5469,7.6055,7.625,7.664,7.7187,7.7226,7.7383,7.7695,7.8164,7.8711,7.8945,7.8984,7.8476,7.7812,7.8008,7.7539,7.707,7.6875,7.6758,7.6797,7.668,7.6797,7.7461,7.7812,7.7812,7.7812,7.7812,7.7539,7.7187,7.7265,7.6875,7.6836,7.7305,7.7969,7.7265,7.789,7.8281,7.7656,7.7422,7.7305,7.707,7.7187,7.7383,7.7461,7.7695,7.7734,7.7383,7.7148,7.6992,7.7265,7.7617,7.7969,7.8633,7.8828,7.8945,7.9453,7.914,7.8828,7.8672,7.8242,7.8164,7.8086,7.8047,7.7773,7.7617,7.7695,7.7539,7.7305,7.7422,7.7695,7.7773,7.789,7.7851,7.7734,7.8125,7.8789,7.9258,7.9687,7.9883,8.0234,8.0547,8.0351,7.9805,7.9687,7.9336,7.9531,8.0508,8.082,8.0625,8.1094,8.207,8.2304,8.2304,8.2148,8.1719,8.2031,8.2304,8.2148,8.2031,8.2148,8.2304,8.2304,8.207,7.7226,7.7226,7.7187,7.668,7.5898,7.5859,7.5781,7.5703,7.5664,7.5625,7.5781,7.582,7.6172,7.6836,7.6875,7.6992,7.7265,7.7226,7.7734,7.8203,7.8555,7.9258,7.9687,7.9726,7.9414,7.9258,7.8984,7.8242,7.7734,7.7851,7.8476,7.9219,7.8203,7.8984,7.9297,7.9101,7.9375,7.9375,7.9336,7.9219,7.8867,7.875,7.8476,7.8828,7.875,7.875,7.9336,7.9531,7.9258,7.8476,7.8398,7.8164,7.7851,7.8125,7.8359,7.8476,7.8828,7.8984,7.8906,7.8476,7.832,7.8359,7.8476,7.875,7.9531,7.9609,7.9687,7.9883,7.9844,7.9687,7.9609,7.9531,7.914,7.9023,7.8828,7.8672,7.8515,7.8437,7.8203,7.7656,7.7734,7.8203,7.8633,7.8828,7.8672,7.8555,7.9101,7.9765,8.039,8.082,8.082,8.1094,8.1679,8.1367,8.0234,8.0117,8.0508,8.0547,8.1015,8.1133,8.1015,8.1679,8.2304,8.2304,8.2304,8.2304,8.2304,8.2304,8.2304,8.2304,8.2304,8.2304,8.2304,8.2304,8.1953,7.6875,7.6406,7.6406,7.6211,7.5898,7.5898,7.5898,7.5898,7.5898,7.625,7.664,7.6211,7.6367,7.6875,7.668,7.707,7.7773,7.7383,7.8086,7.8672,7.9023,7.9258,7.9726,7.9805,7.9453,7.9101,7.8945,7.8828,7.8203,7.8281,7.8906,7.9258,7.875,7.8984,7.9258,7.9805,8.0234,8.0664,8.0234,7.9726,7.9648,7.9453,7.914,7.8867,8.0039,7.9765,7.9805,8.0273,7.9922,7.9492,7.9258,7.8945,7.8711,7.9062,7.9219,7.9297,7.9687,8.0039,8.0273,7.9765,7.9258,7.9219,7.9297,7.9609,8.039,8.0469,8.0859,8.0937,8.0742,8.0508,8.0469,8.0039,7.9609,7.9687,7.9687,7.9609,7.9414,7.9297,7.9062,7.8555,7.875,7.918,7.957,7.9961,7.9687,7.9453,8.0117,8.0742,8.125,8.1601,8.1523,8.1484,8.1953,8.207,8.1054,8.1328,8.1797,8.1679,8.1523,8.1445,8.1406,8.1797,8.2304,8.2304,8.2304,8.2304,8.2304,8.2304,8.2304,8.2304,8.2304,8.2304,8.2304,8.2304,8.2031,7.6836,7.6289,7.6289,7.5976,7.5586,7.5781,7.5898,7.5937,7.6211,7.6562,7.7148,7.6562,7.6601,7.6875,7.6719,7.6836,7.7617,7.7539,7.8008,7.8242,7.8359,7.8633,7.8984,7.9023,7.8633,7.8398,7.8164,7.8047,7.793,7.8086,7.832,7.8281,7.8008,7.8398,7.9375,7.9805,8.0351,8.0859,8.0508,7.9726,7.9687,7.9375,7.9375,7.8984,7.9922,8.0351,8.039,8.0859,8.0898,8.039,8.0078,7.9922,7.9883,7.9922,8.0078,8.0156,8.039,8.0742,8.0976,8.0625,8.0234,8.0508,8.0195,8.0625,8.1094,8.1367,8.164,8.1953,8.164,8.1367,8.1328,8.0976,8.0781,8.0937,8.0898,8.0781,8.0351,8.0117,7.9844,7.9492,7.9844,8.0117,8.0429,8.0781,8.0898,8.0742,8.1054,8.1523,8.1758,8.1953,8.1875,8.1875,8.1992,8.1992,8.1875,8.1953,8.2031,8.1992,8.1875,8.1836,8.1914,8.2187,8.2304,8.2304,8.2304,8.2304,8.2304,8.2304,8.2304,8.2304,8.2304,8.2304,8.2304,8.2304,8.2304,7.7148,7.7148,7.7031,7.6055,7.4805,7.5547,7.5937,7.6015,7.6719,7.7109,7.7187,7.707,7.6992,7.707,7.6797,7.707,7.7305,7.7305,7.7461,7.7656,7.7656,7.789,7.8086,7.8086,7.8047,7.8203,7.789,7.7461,7.7344,7.7656,7.7656,7.7578,7.7617,7.8086,7.957,7.9687,7.9726,7.9805,7.9805,7.9609,7.957,7.9062,7.8984,7.9297,7.9726,8.0117,8.0781,8.1328,8.1367,8.1094,8.0976,8.0703,8.0234,8.0703,8.0937,8.1015,8.1679,8.207,8.2148,8.1406,8.1367,8.1679,8.125,8.1328,8.1992,8.2226,8.2109,8.2265,8.2148,8.2148,8.2187,8.2148,8.1953,8.1875,8.1758,8.164,8.1172,8.0976,8.0742,8.0586,8.0781,8.1015,8.1289,8.1601,8.1953,8.207,8.2226,8.2304,8.2304,8.2265,8.2109,8.207,8.2109,8.2031,8.2031,8.2148,8.2226,8.2226,8.2187,8.2109,8.2109,8.2226,8.2304,8.2304,8.2304,8.2304,8.2304,8.2304,8.2304,8.2304,8.2304,8.2304,8.2304,8.2304,8.2304,7.6523,7.543,7.4844,7.4297,7.4062,7.5937,7.6445,7.6133,7.6758,7.7226,7.7226,7.7226,7.6836,7.6523,7.6484,7.6719,7.7148,7.7226,7.7344,7.7969,7.7539,7.7812,7.8008,7.789,7.7695,7.8047,7.7695,7.7226,7.7226,7.7539,7.7539,7.7461,7.789,7.832,7.8945,7.9375,7.9922,8.0234,7.9687,7.9101,7.9531,7.8945,7.8633,7.8945,7.9375,8.0078,8.0781,8.125,8.1484,8.164,8.1679,8.1562,8.1289,8.1758,8.1797,8.1836,8.2265,8.2265,8.2265,8.1953,8.1992,8.2109,8.207,8.1914,8.2304,8.2304,8.2304,8.2304,8.2304,8.2304,8.2265,8.2265,8.2148,8.2187,8.2109,8.2109,8.1875,8.1875,8.1758,8.1758,8.1836,8.1758,8.1914,8.1875,8.2187,8.2304,8.2304,8.2304,8.2304,8.2304,8.2226,8.2226,8.2187,8.2109,8.2109,8.2226,8.2304,8.2265,8.2265,8.2265,8.2265,8.2304,8.2304,8.2304,8.2304,8.2304,8.2304,8.2304,8.2304,8.2304,8.2304,8.2304,8.2304,8.2304,8.2304,7.6367,7.5,7.4101,7.375,7.4023,7.5586,7.625,7.6445,7.7226,7.75,7.7305,7.7461,7.7226,7.6601,7.6406,7.6523,7.7187,7.7226,7.7656,7.832,7.7969,7.832,7.8476,7.8125,7.8086,7.8164,7.7734,7.7226,7.7226,7.7734,7.8047,7.832,7.8633,7.918,7.9453,7.9844,7.9883,7.9961,7.9336,7.8789,7.8984,7.875,7.832,7.8476,7.8945,7.9844,8.0195,8.0664,8.125,8.1797,8.2109,8.2265,8.2304,8.2304,8.2304,8.2304,8.2304,8.2304,8.2265,8.2265,8.2226,8.2265,8.2304,8.2304,8.2304,8.2304,8.2304,8.2304,8.2304,8.2304,8.2304,8.2304,8.2304,8.2304,8.2304,8.2265,8.2265,8.2226,8.2226,8.2265,8.2265,8.2304,8.2304,8.2265,8.2304,8.2304,8.2304,8.2304,8.2304,8.2304,8.2304,8.2304,8.2304,8.2226,8.2187,8.2265,8.2304,8.2304,8.2304,8.2304,8.2304,8.2304,8.2304,8.2304,8.2304,8.2304,8.2304,8.2304,8.2304,8.2304,8.2304,8.2304,8.2304,8.2304,8.2304,7.668,7.582,7.4961,7.4531,7.4609,7.4765,7.5664,7.7187,7.8086,7.8008,7.7344,7.8281,7.8047,7.7305,7.7226,7.7265,7.7383,7.7383,7.8008,7.8476,7.8555,7.9101,7.918,7.8828,7.8594,7.8242,7.7734,7.7226,7.7226,7.7617,7.832,7.9492,7.9922,8.0469,8.0703,8.0742,8.0429,8.0078,7.9375,7.9062,7.9219,7.8711,7.8242,7.8242,7.875,7.9219,7.9609,8.0117,8.082,8.1406,8.1875,8.2187,8.2304,8.2304,8.2304,8.2304,8.2304,8.2304,8.2304,8.2304,8.2304,8.2304,8.2304,8.2304,8.2304,8.2304,8.2304,8.2304,8.2304,8.2304,8.2304,8.2304,8.2304,8.2304,8.2304,8.2304,8.2304,8.2304,8.2304,8.2304,8.2304,8.2304,8.2304,8.2304,8.2304,8.2304,8.2304,8.2304,8.2304,8.2304,8.2304,8.2304,8.2304,8.2304,8.2304,8.2304,8.2304,8.2304,8.2304,8.2304,8.2304,8.2304,8.2304,8.2304,8.2304,8.2304,8.2304,8.2304,8.2304,8.2304,8.2304,8.2304,8.2304,8.2304,8.2304,7.668,7.582,7.4961,7.457,7.457,7.457,7.5586,7.7187,7.8125,7.832,7.8203,7.9648,7.9062,7.7383,7.8398,7.8125,7.8047,7.832,7.8984,7.9297,7.9375,7.9922,7.9844,7.9336,7.9023,7.8633,7.8047,7.7265,7.7422,7.7734,7.9453,8.1211,8.125,8.1914,8.2304,8.2539,8.164,8.0664,7.9805,7.9687,7.9609,7.9219,7.8633,7.8555,7.8945,7.9297,7.9687,7.9922,8.0742,8.1875,8.2109,8.2304,8.2304,8.2304,8.2304,8.2304,8.2304,8.2304,8.2304,8.2304,8.2304,8.2304,8.2304,8.2304,8.2304,8.2304,8.2304,8.2304,8.2304,8.2304,8.2304,8.2304,8.2304,8.2304,8.2304,8.2304,8.2304,8.2304,8.2304,8.2304,8.2304,8.2304,8.2304,8.2304,8.2304,8.2304,8.2304,8.2304,8.2304,8.2304,8.2304,8.2304,8.2304,8.2304,8.2304,8.2304,8.2304,8.2304,8.2304,8.2304,8.2304,8.2304,8.2304,8.2304,8.2304,8.2304,8.2304,8.2304,8.2304,8.2304,8.2304,8.2304,8.2304,8.2304,8.2304,7.6797,7.5351,7.4453,7.4101,7.4101,7.4101,7.4922,7.6289,7.7812,7.8476,7.8711,8.0234,7.9961,7.8633,7.918,7.918,7.8476,7.9062,7.9765,8.0195,8.0156,8.0508,8.0351,7.9687,7.914,7.875,7.8164,7.7422,7.789,7.9023,8.0625,8.1992,8.2304,8.2851,8.3242,8.3242,8.2695,8.164,8.082,8.0469,8.0234,8.0117,7.9844,7.9336,7.9687,8.039,8.0273,8.0429,8.1484,8.2461,8.2617,8.25,8.2539,8.2578,8.2304,8.2304,8.2304,8.2304,8.2304,8.2304,8.2304,8.2304,8.2304,8.2304,8.2304,8.2304,8.2304,8.2304,8.2304,8.2304,8.2304,8.2304,8.2304,8.2304,8.2304,8.2304,8.2304,8.2304,8.2304,8.2304,8.2304,8.2304,8.2304,8.2304,8.2304,8.2304,8.2304,8.2304,8.2304,8.2304,8.2304,8.2304,8.2304,8.2304,8.2304,8.2304,8.2304,8.2304,8.2304,8.2304,8.2304,8.2304,8.2304,8.2304,8.2304,8.2304,8.2304,8.2304,8.2304,8.2304,8.2304,8.2304,8.2304,8.2304,8.2304,7.7226,7.5078,7.3945,7.3789,7.3633,7.3555,7.3984,7.5039,7.75,7.8476,7.8828,8.0273,8.0547,7.9805,8.0117,8.0078,7.9805,8.0117,8.0664,8.1054,8.082,8.1015,8.0898,8.0078,7.9258,7.8476,7.8086,7.8047,7.8945,7.9844,8.082,8.2304,8.25,8.2969,8.3476,8.3828,8.3281,8.2187,8.1797,8.1562,8.1094,8.125,8.1758,8.082,8.1679,8.2812,8.1836,8.1992,8.2773,8.3086,8.3242,8.3125,8.3203,8.2734,8.2422,8.2383,8.2422,8.2304,8.2304,8.2304,8.2304,8.2304,8.2304,8.2304,8.2304,8.2304,8.2304,8.2304,8.2304,8.2304,8.2304,8.2304,8.2304,8.2304,8.2304,8.2304,8.2304,8.2304,8.2304,8.2304,8.2304,8.2304,8.2304,8.2304,8.2304,8.2304,8.2304,8.2304,8.2304,8.2304,8.2304,8.2304,8.2304,8.2304,8.2304,8.2304,8.2304,8.2304,8.2304,8.2304,8.2304,8.2304,8.2304,8.2304,8.2304,8.2304,8.2304,8.2304,8.2304,8.2304,8.2304,8.2304,8.2304,8.2304,8.2304,7.9062,7.8242,7.6172,7.5625,7.5937,7.4101,7.4609,7.664,7.789,7.8515,7.8828,8.0156,8.0898,8.0664,8.1211,8.1172,8.0781,8.1094,8.1719,8.1601,8.1367,8.1289,8.1328,7.9844,7.918,7.9101,7.8906,7.8828,7.9844,8.0429,8.1211,8.3008,8.3242,8.3515,8.3594,8.4023,8.3828,8.2773,8.332,8.3242,8.2851,8.2812,8.2969,8.2773,8.3554,8.3711,8.3125,8.3164,8.3828,8.4297,8.4375,8.4414,8.4531,8.3125,8.2773,8.3047,8.2695,8.2461,8.2304,8.2304,8.2344,8.2383,8.2383,8.2344,8.2304,8.2304,8.2304,8.2344,8.2304,8.2304,8.2304,8.2304,8.2304,8.2304,8.2304,8.2304,8.2304,8.2304,8.2304,8.2304,8.2304,8.2304,8.2304,8.2304,8.2304,8.2304,8.2304,8.2304,8.2304,8.2304,8.2304,8.2304,8.2304,8.2304,8.2304,8.2304,8.2304,8.2304,8.2304,8.2304,8.2304,8.2304,8.2304,8.2304,8.2304,8.2304,8.2304,8.2304,8.2304,8.2304,8.2304,8.2304,8.2304,8.2304,8.2304,7.9844,7.8984,7.7265,7.6758,7.6875,7.5625,7.5898,7.7187,7.8125,7.8711,7.9258,8.0664,8.1367,8.1211,8.1914,8.1797,8.1289,8.1914,8.207,8.1992,8.1445,8.1328,8.0625,7.9531,7.9062,7.8945,7.9219,7.957,8.0508,8.1601,8.2539,8.3242,8.3554,8.3945,8.3828,8.4336,8.4492,8.3633,8.4883,8.5078,8.4687,8.4726,8.4453,8.4414,8.4765,8.4922,8.4804,8.4804,8.5273,8.5625,8.5664,8.5078,8.4844,8.4062,8.3594,8.3437,8.3125,8.2695,8.25,8.2422,8.2578,8.2734,8.289,8.3008,8.3515,8.3476,8.2656,8.2578,8.2344,8.2304,8.2304,8.2304,8.2304,8.2304,8.2304,8.2304,8.2304,8.2304,8.2304,8.2304,8.2304,8.2304,8.2304,8.2304,8.2304,8.2304,8.2304,8.2304,8.2304,8.2304,8.2304,8.2304,8.2304,8.2304,8.2304,8.2304,8.2304,8.2304,8.2304,8.2304,8.2304,8.2304,8.2304,8.2304,8.2304,8.2304,8.2304,8.2304,8.2304,8.2304,8.2304,8.2304,8.2304,8.2304,8.2304,8.0273,7.8789,7.789,7.7539,7.75,7.7383,7.7422,7.7695,7.8359,7.914,7.9961,8.1406,8.1562,8.1679,8.1679,8.1406,8.1367,8.1679,8.1992,8.1601,8.1054,8.082,8.0156,7.918,7.8672,7.8711,7.9062,7.9726,8.0547,8.164,8.2383,8.2773,8.3554,8.4414,8.4219,8.457,8.4961,8.5156,8.5781,8.625,8.6328,8.6367,8.5898,8.6054,8.6484,8.6992,8.6562,8.6484,8.6836,8.6719,8.6523,8.6054,8.5469,8.4961,8.457,8.4258,8.3984,8.3476,8.3086,8.3008,8.3281,8.3554,8.3711,8.3984,8.4453,8.4023,8.3203,8.2851,8.2617,8.2461,8.2461,8.2304,8.2304,8.25,8.25,8.2383,8.2383,8.2344,8.2304,8.2304,8.2304,8.2304,8.2304,8.2304,8.2304,8.2304,8.2304,8.2304,8.2304,8.2304,8.2304,8.2304,8.2304,8.2304,8.2304,8.2304,8.2304,8.2304,8.2304,8.2304,8.2304,8.2304,8.2304,8.2304,8.2304,8.2304,8.2304,8.2304,8.2304,8.2304,8.2304,8.2304,8.2304,8.2304,8.2304,8.1445,8.0429,7.9609,7.9219,7.914,7.8555,7.8633,7.918,7.9414,7.9961,8.0664,8.0976,8.1406,8.1992,8.1367,8.1094,8.1133,8.1367,8.0742,8.0156,8.0156,8.0039,7.9609,7.875,7.8164,7.8398,7.9023,7.9922,8.0937,8.1601,8.2617,8.4101,8.3711,8.4336,8.4922,8.539,8.5976,8.6211,8.6601,8.7109,8.7148,8.7148,8.7187,8.7226,8.7304,8.7383,8.7265,8.7265,8.7344,8.7187,8.6797,8.6601,8.6328,8.582,8.539,8.5195,8.4922,8.4492,8.414,8.3984,8.4297,8.4531,8.4609,8.4492,8.457,8.4101,8.3594,8.3515,8.3281,8.3047,8.289,8.2461,8.2344,8.2969,8.3203,8.2812,8.2617,8.2422,8.2304,8.2304,8.2304,8.2304,8.2304,8.2304,8.2304,8.2304,8.2304,8.2304,8.2304,8.2304,8.2304,8.2304,8.2304,8.2304,8.2304,8.2304,8.2304,8.2304,8.2304,8.2304,8.2304,8.2304,8.2304,8.2304,8.2304,8.2304,8.2304,8.2304,8.2304,8.2304,8.2304,8.2304,8.2304,8.2304,8.2304]},{"header":{"parameterUnit":"m.s-1","parameterCategory":1,"la1":31.0,"la2":29.5877,"lo1":-88.7671,"lo2":-86.6584,"dy":0.0162,"dx":0.0185,"nx":115,"ny":88,"refTime":"2023-11-15T06:00:00:Z","depth":0,"parameterNumber":3,"parameterNumberName":"V-component_of_WINDS"},"data":[0.0,0.0,0.0,0.0,0.0,0.0,0.0,0.0,0.0,0.0,0.0,0.0,0.0,0.0,0.0,0.0,0.0,0.0,0.0,0.0,0.0,0.0,0.0,0.0,0.0,0.0,0.0,0.0,0.0,0.0,0.0,0.0,0.0,0.0,0.0,0.0,0.0,0.0,0.0,0.0,0.0,0.0,0.0,0.0,0.0,0.0,0.0,0.0,0.0,0.0,0.0,0.0,0.0,0.0,0.0,0.0,0.0,0.0,0.0,0.0,0.0,0.0,0.0,0.0,0.0,0.0,0.0,0.0,0.0,0.0,0.0,0.0,0.0,0.0,0.0,0.0,0.0,0.0,0.0,0.0,0.0,0.0,0.0,0.0,0.0,0.0,0.0,0.0,0.0,0.0,0.0,0.0,0.0,0.0,0.0,0.0,0.0,0.0,0.0,0.0,0.0,0.0,0.0,0.0,0.0,0.0,0.0,0.0,0.0,0.0,0.0,0.0,0.0,0.0,0.0,0.0,0.0,0.0,0.0,0.0,0.0,0.0,0.0,0.0,0.0,0.0,0.0,0.0,0.0,0.0,0.0,0.0,0.0,0.0,0.0,0.0,0.0,0.0,0.0,0.0,0.0,0.0,0.0,0.0,0.0,0.0,0.0,0.0,0.0,0.0,0.0,0.0,0.0,0.0,0.0,0.0,0.0,0.0,0.0,0.0,0.0,0.0,0.0,0.0,0.0,0.0,0.0,0.0,0.0,0.0,0.0,0.0,0.0,0.0,0.0,0.0,0.0,0.0,0.0,0.0,0.0,0.0,0.0,0.0,0.0,0.0,0.0,0.0,0.0,0.0,0.0,0.0,0.0,0.0,0.0,0.0,0.0,0.0,0.0,0.0,0.0,0.0,0.0,0.0,0.0,0.0,0.0,0.0,0.0,0.0,0.0,0.0,0.0,0.0,0.0,0.0,0.0,0.0,0.0,0.0,0.0,0.0,0.0,0.0,0.0,0.0,0.0,0.0,0.0,0.0,0.0,0.0,0.0,0.0,0.0,0.0,0.0,0.0,0.0,0.0,0.0,0.0,0.0,0.0,0.0,0.0,0.0,0.0,0.0,0.0,0.0,0.0,0.0,0.0,0.0,0.0,0.0,0.0,0.0,0.0,0.0,0.0,0.0,0.0,0.0,0.0,0.0,0.0,0.0,0.0,0.0,0.0,0.0,0.0,0.0,0.0,0.0,0.0,0.0,0.0,0.0,0.0,0.0,0.0,0.0,0.0,0.0,0.0,0.0,0.0,0.0,0.0,0.0,0.0,0.0,0.0,0.0,0.0,0.0,0.0,0.0,0.0,0.0,0.0,0.0,0.0,0.0,0.0,0.0,0.0,0.0,0.0,0.0,0.0,0.0,0.0,0.0,0.0,0.0,0.0,0.0,0.0,0.0,0.0,0.0,0.0,0.0,0.0,0.0,0.0,0.0,0.0,0.0,0.0,0.0,0.0,0.0,0.0,0.0,0.0,0.0,0.0,0.0,0.0,0.0,0.0,0.0,0.0,0.0,0.0,0.0,0.0,0.0,0.0,0.0,0.0,0.0,0.0,0.0,0.0,0.0,0.0,0.0,0.0,0.0,0.0,0.0,0.0,0.0,0.0,0.0,0.0,0.0,0.0,0.0,0.0,0.0,0.0,0.0,0.0,0.0,0.0,0.0,0.0,0.0,0.0,0.0,0.0,0.0,0.0,0.0,0.0,0.0,0.0,0.0,0.0,0.0,0.0,0.0,0.0,0.0,0.0,0.0,0.0,0.0,0.0,0.0,0.0,0.0,0.0,0.0,0.0,0.0,0.0,0.0,0.0,0.0,0.0,0.0,0.0,0.0,0.0,0.0,0.0,0.0,0.0,0.0,0.0,0.0,0.0,0.0,0.0,0.0,0.0,0.0,0.0,0.0,0.0,0.0,0.0,0.0,0.0,0.0,0.0,0.0,0.0,0.0,0.0,0.0,0.0,0.0,0.0,0.0,0.0,0.0,0.0,0.0,0.0,0.0,0.0,0.0,0.0,0.0,0.0,0.0,0.0,0.0,0.0,0.0,0.0,0.0,0.0,0.0,0.0,0.0,0.0,0.0,0.0,0.0,0.0,0.0,0.0,0.0,0.0,0.0,0.0,0.0,0.0,0.0,0.0,0.0,0.0,0.0,0.0,0.0,0.0,0.0,0.0,0.0,0.0,0.0,0.0,0.0,0.0,0.0,0.0,0.0,0.0,0.0,0.0,0.0,0.0,0.0,0.0,0.0,0.0,0.0,0.0,0.0,0.0,0.0,0.0,0.0,0.0,0.0,0.0,0.0,0.0,0.0,0.0,0.0,0.0,0.0,0.0,0.0,0.0,0.0,0.0,0.0,0.0,0.0,0.0,0.0,0.0,0.0,0.0,0.0,0.0,0.0,0.0,0.0,0.0,0.0,0.0,0.0,0.0,0.0,0.0,0.0,0.0,0.0,0.0,0.0,0.0,0.0,0.0,0.0,0.0,0.0,0.0,0.0,0.0,0.0,0.0,0.0,0.0,0.0,0.0,0.0,0.0,0.0,0.0,0.0,0.0,0.0,0.0,0.0,0.0,0.0,0.0,0.0,0.0,0.0,0.0,0.0,0.0,0.0,0.0,0.0,0.0,0.0,0.0,0.0,0.0,0.0,0.0,0.0,0.0,0.0,0.0,0.0,0.0,0.0,0.0,0.0,0.0,0.0,0.0,0.0,0.0,0.0,0.0,0.0,0.0,0.0,0.0,0.0,0.0,0.0,0.0,0.0,0.0,0.0,0.0,0.0,0.0,0.0,0.0,0.0,0.0,0.0,0.0,0.0,0.0,0.0,0.0,0.0,0.0,0.0,0.0,0.0,0.0,0.0,0.0,0.0,0.0,0.0,0.0,0.0,0.0,0.0,0.0,0.0,0.0,0.0,0.0,0.0,0.0,0.0,0.0,0.0,0.0,0.0,0.0,0.0,0.0,0.0,0.0,0.0,0.0,0.0,0.0,0.0,0.0,0.0,0.0,0.0,0.0,0.0,0.0,0.0,0.0,0.0,0.0,0.0,0.0,0.0,0.0,0.0,0.0,0.0,0.0,0.0,0.0,0.0,0.0,0.0,0.0,0.0,0.0,0.0,0.0,0.0,0.0,0.0,0.0,0.0,0.0,0.0,0.0,0.0,0.0,0.0,0.0,0.0,0.0,0.0,0.0,0.0,0.0,0.0,0.0,0.0,0.0,0.0,0.0,0.0,0.0,0.0,0.0,0.0,0.0,0.0,0.0,0.0,0.0,0.0,0.0,0.0,0.0,0.0,0.0,0.0,0.0,0.0,0.0,0.0,0.0,0.0,0.0,0.0,0.0,0.0,0.0,0.0,0.0,0.0,0.0,0.0,0.0,0.0,0.0,0.0,0.0,0.0,0.0,0.0,0.0,0.0,0.0,0.0,0.0,0.0,0.0,0.0,0.0,0.0,0.0,0.0,0.0,0.0,0.0,0.0,0.0,0.0,0.0,0.0,0.0,0.0,0.0,0.0,0.0,0.0,0.0,0.0,0.0,0.0,0.0,0.0,0.0,0.0,0.0,0.0,0.0,0.0,0.0,0.0,0.0,0.0,0.0,0.0,0.0,0.0,0.0,0.0,0.0,0.0,0.0,0.0,0.0,0.0,0.0,0.0,0.0,0.0,0.0,0.0,0.0,0.0,0.0,0.0,0.0,0.0,0.0,0.0,0.0,0.0,0.0,0.0,0.0,0.0,0.0,0.0,0.0,0.0,0.0,0.0,0.0,0.0,0.0,0.0,0.0,0.0,0.0,0.0,0.0,0.0,0.0,0.0,0.0,0.0,0.0,0.0,0.0,0.0,0.0,0.0,0.0,0.0,0.0,0.0,0.0,0.0,0.0,0.0,0.0,0.0,0.0,0.0,0.0,0.0,0.0,0.0,0.0,0.0,0.0,0.0,0.0,0.0,0.0,0.0,0.0,0.0,0.0,0.0,0.0,0.0,0.0,0.0,0.0,0.0,0.0,0.0,0.0,0.0,0.0,0.0,0.0,0.0,0.0,0.0,0.0,0.0,0.0,0.0,0.0,0.0,0.0,0.0,0.0,0.0,0.0,0.0,0.0,0.0,0.0,0.0,0.0,0.0,0.0,0.0,0.0,0.0,0.0,0.0,0.0,0.0,0.0,0.0,0.0,0.0,0.0,0.0,0.0,0.0,0.0,0.0,0.0,0.0,0.0,0.0,0.0,0.0,0.0,0.0,0.0,-0.1437,0.0,0.0,0.0,0.0,0.0,0.0,0.0,0.0,0.0,0.0,0.0,0.0,0.0,0.0,0.0,0.0,0.0,0.0,0.0,0.0,0.0,0.0,0.0,0.0,0.0,0.0,0.0,0.0,0.0,0.0,0.0,0.0,0.0,0.0,0.0,0.0,0.0,0.0,0.0,0.0,0.0,0.0,0.0,0.0,0.0,0.0,0.0,0.0,0.0,0.0,0.0,0.0,0.0,0.0,0.0,0.0,0.0,0.0,0.0,0.0,0.0,0.0,0.0,0.0,0.0,0.0,0.0,0.0,0.0,0.0,0.0,0.0,0.0,0.0,0.0,0.0,0.0,0.0,0.0,0.0,0.0,0.0,0.0,0.0,0.0,0.0,0.0,0.0,0.0,0.0,0.0,0.0,0.0,0.0,0.0,0.0,0.0,0.0,0.0,0.0,0.0,0.0,0.0,0.0,0.0,0.0,0.0,0.0,0.0,0.0,-0.1449,-0.1436,-0.1449,-0.1449,-0.1436,0.0,0.0,0.0,0.0,0.0,0.0,0.0,0.0,0.0,0.0,0.0,0.0,0.0,0.0,0.0,0.0,0.0,0.0,0.0,0.0,0.0,0.0,0.0,0.0,0.0,0.0,0.0,0.0,0.0,0.0,0.0,0.0,0.0,0.0,0.0,0.0,0.0,0.0,0.0,0.0,0.0,0.0,0.0,0.0,0.0,0.0,0.0,0.0,0.0,0.0,0.0,0.0,0.0,0.0,0.0,0.0,0.0,0.0,0.0,0.0,0.0,0.0,0.0,0.0,0.0,0.0,0.0,0.0,0.0,0.0,0.0,0.0,0.0,0.0,0.0,0.0,0.0,0.0,0.0,0.0,0.0,0.0,0.0,0.0,0.0,0.0,0.0,0.0,0.0,0.0,0.0,0.0,0.0,0.0,0.0,0.0,0.0,0.0,0.0,0.0,0.0,0.0,0.0,0.0,0.0,0.0,0.0,0.0,0.0,0.0,0.0,0.0,-0.1448,-0.1449,-0.1437,0.0,0.0,0.0,0.0,0.0,0.0,0.0,0.0,0.0,0.0,0.0,0.0,0.0,0.0,0.0,0.0,0.0,0.0,0.0,0.0,0.0,0.0,0.0,0.0,0.0,0.0,0.0,0.0,0.0,0.0,0.0,0.0,0.0,0.0,0.0,0.0,0.0,0.0,0.0,0.0,0.0,0.0,0.0,0.0,0.0,0.0,0.0,0.0,0.0,0.0,0.0,0.0,0.0,0.0,0.0,0.0,0.0,0.0,0.0,0.0,0.0,0.0,0.0,0.0,0.0,0.0,0.0,0.0,0.0,0.0,0.0,0.0,0.0,0.0,0.0,0.0,0.0,0.0,0.0,0.0,0.0,0.0,0.0,0.0,0.0,0.0,0.0,0.0,0.0,0.0,0.0,0.0,0.0,0.0,0.0,0.0,0.0,0.0,0.0,0.0,0.0,0.0,0.0,0.0,0.0,0.0,0.0,0.0,0.0,0.0,-0.1491,-0.1438,-0.1489,0.0,-0.144,0.0,0.0,0.0,0.0,0.0,0.0,0.0,0.0,0.0,0.0,0.0,0.0,0.0,0.0,0.0,0.0,0.0,0.0,0.0,0.0,0.0,0.0,0.0,0.0,0.0,0.0,0.0,0.0,0.0,0.0,0.0,0.0,0.0,0.0,0.0,0.0,0.0,0.0,0.0,0.0,0.0,0.0,0.0,0.0,0.0,0.0,0.0,0.0,0.0,0.0,0.0,0.0,0.0,0.0,0.0,0.0,0.0,0.0,0.0,0.0,0.0,0.0,0.0,0.0,0.0,0.0,0.0,0.0,0.0,0.0,0.0,0.0,0.0,0.0,0.0,0.0,0.0,0.0,0.0,0.0,0.0,0.0,0.0,0.0,0.0,0.0,0.0,0.0,0.0,0.0,0.0,0.0,0.0,0.0,0.0,0.0,0.0,0.0,0.0,0.0,0.0,0.0,0.0,0.0,0.0,0.0,0.0,0.0,0.0,0.0,-0.146,-0.1436,-0.1459,-0.146,0.0,0.0,0.0,0.0,0.0,0.0,0.0,0.0,0.0,0.0,0.0,0.0,0.0,0.0,0.0,0.0,0.0,0.0,0.0,0.0,0.0,0.0,0.0,0.0,0.0,0.0,0.0,0.0,0.0,0.0,0.0,0.0,0.0,0.0,0.0,0.0,0.0,0.0,0.0,0.0,0.0,0.0,0.0,0.0,0.0,0.0,0.0,0.0,0.0,0.0,0.0,0.0,0.0,0.0,0.0,0.0,0.0,0.0,0.0,0.0,0.0,0.0,0.0,0.0,0.0,0.0,0.0,0.0,0.0,0.0,0.0,0.0,0.0,0.0,0.0,0.0,0.0,0.0,0.0,0.0,0.0,0.0,0.0,0.0,0.0,0.0,0.0,0.0,0.0,0.0,0.0,0.0,0.0,0.0,0.0,0.0,0.0,0.0,0.0,0.0,0.0,0.0,0.0,0.0,0.0,0.0,0.0,0.0,0.0,0.0,-0.1444,-0.1448,-0.1448,-0.144,-0.1436,-0.1436,0.0,0.0,0.0,0.0,0.0,0.0,0.0,0.0,0.0,0.0,0.0,0.0,0.0,0.0,0.0,0.0,0.0,0.0,0.0,0.0,0.0,0.0,0.0,0.0,0.0,0.0,0.0,0.0,0.0,0.0,0.0,0.0,0.0,0.0,0.0,0.0,0.0,0.0,0.0,0.0,0.0,0.0,0.0,0.0,0.0,0.0,0.0,0.0,0.0,0.0,0.0,0.0,0.0,0.0,0.0,0.0,0.0,0.0,0.0,0.0,0.0,0.0,0.0,0.0,0.0,0.0,0.0,0.0,0.0,0.0,0.0,0.0,0.0,0.0,0.0,0.0,0.0,0.0,0.0,0.0,0.0,0.0,0.0,0.0,0.0,0.0,0.0,0.0,0.0,0.0,0.0,0.0,0.0,0.0,0.0,0.0,0.0,0.0,0.0,0.0,0.0,0.0,0.0,0.0,0.0,0.0,0.0,0.0,-0.1436,-0.1463,-0.1478,-0.1476,-0.1451,-0.1436,0.0,0.0,0.0,0.0,0.0,0.0,0.0,0.0,0.0,0.0,0.0,0.0,0.0,0.0,0.0,0.0,0.0,0.0,0.0,0.0,0.0,0.0,0.0,0.0,0.0,0.0,0.0,0.0,0.0,0.0,0.0,0.0,0.0,0.0,0.0,0.0,0.0,0.0,0.0,0.0,0.0,0.0,0.0,0.0,0.0,0.0,0.0,0.0,0.0,0.0,0.0,0.0,0.0,0.0,0.0,0.0,0.0,0.0,0.0,0.0,0.0,0.0,0.0,0.0,0.0,0.0,0.0,0.0,0.0,0.0,0.0,0.0,0.0,0.0,0.0,0.0,0.0,0.0,0.0,0.0,0.0,0.0,0.0,0.0,0.0,0.0,0.0,0.0,0.0,0.0,0.0,0.0,0.0,0.0,0.0,0.0,0.0,0.0,0.0,0.0,0.0,0.0,0.0,0.0,0.0,0.0,0.0,0.0,0.0,-0.1436,-0.1446,-0.1452,-0.1451,-0.1441,-0.1436,0.0,0.0,0.0,0.0,0.0,0.0,0.0,0.0,0.0,0.0,0.0,0.0,0.0,0.0,0.0,0.0,0.0,0.0,0.0,0.0,0.0,0.0,0.0,0.0,0.0,0.0,0.0,0.0,0.0,0.0,0.0,0.0,0.0,0.0,0.0,0.0,0.0,0.0,0.0,0.0,0.0,0.0,0.0,0.0,0.0,0.0,0.0,0.0,0.0,0.0,0.0,0.0,0.0,0.0,0.0,0.0,0.0,0.0,0.0,0.0,0.0,0.0,0.0,0.0,0.0,0.0,0.0,0.0,0.0,0.0,0.0,0.0,0.0,0.0,0.0,0.0,0.0,0.0,0.0,0.0,0.0,0.0,0.0,0.0,0.0,0.0,0.0,0.0,0.0,0.0,0.0,0.0,0.0,0.0,0.0,0.0,0.0,0.0,0.0,0.0,0.0,0.0,0.0,0.0,0.0,0.0,0.0,0.0,0.0,-0.1436,0.0,-0.1436,-0.1436,-0.1436,-0.1436,0.0,0.0,0.0,0.0,0.0,0.0,0.0,0.0,0.0,0.0,0.0,0.0,0.0,0.0,0.0,0.0,0.0,0.0,0.0,0.0,0.0,0.0,0.0,0.0,0.0,0.0,0.0,0.0,0.0,0.0,0.0,0.0,0.0,0.0,0.0,0.0,0.0,0.0,0.0,0.0,0.0,0.0,0.0,0.0,0.0,0.0,0.0,0.0,0.0,0.0,0.0,0.0,0.0,0.0,0.0,0.0,0.0,0.0,0.0,0.0,0.0,0.0,0.0,0.0,0.0,0.0,0.0,0.0,0.0,0.0,0.0,0.0,0.0,0.0,0.0,0.0,0.0,0.0,0.0,0.0,0.0,0.0,0.0,0.0,0.0,0.0,0.0,0.0,0.0,0.0,0.0,0.0,0.0,0.0,0.0,0.0,0.0,0.0,0.0,0.0,0.0,0.0,0.0,0.0,0.0,0.0,0.0,0.0,-0.1437,-0.1437,-0.1438,-0.144,-0.1437,-0.1438,-0.1436,0.0,0.0,0.0,0.0,0.0,0.0,0.0,0.0,0.0,0.0,0.0,0.0,0.0,0.0,0.0,0.0,0.0,0.0,0.0,0.0,0.0,0.0,0.0,0.0,0.0,0.0,0.0,0.0,0.0,0.0,0.0,0.0,0.0,0.0,0.0,0.0,0.0,0.0,0.0,0.0,0.0,0.0,0.0,0.0,0.0,0.0,0.0,0.0,0.0,0.0,0.0,0.0,0.0,0.0,0.0,0.0,0.0,0.0,0.0,0.0,0.0,0.0,0.0,0.0,0.0,0.0,0.0,0.0,0.0,0.0,0.0,0.0,0.0,0.0,0.0,0.0,0.0,0.0,0.0,0.0,0.0,0.0,0.0,0.0,0.0,0.0,0.0,0.0,0.0,0.0,0.0,0.0,0.0,0.0,0.0,0.0,0.0,0.0,0.0,0.0,0.0,0.0,0.0,0.0,0.0,0.0,0.0,0.0,0.0,-0.1497,-0.1498,-0.1498,-0.1497,-0.1478,-0.1457,0.0,0.0,0.0,0.0,0.0,0.0,0.0,0.0,0.0,0.0,0.0,0.0,0.0,0.0,0.0,0.0,0.0,0.0,0.0,0.0,0.0,0.0,0.0,0.0,0.0,0.0,0.0,0.0,0.0,0.0,0.0,0.0,0.0,0.0,0.0,0.0,0.0,0.0,0.0,0.0,0.0,0.0,0.0,0.0,0.0,0.0,0.0,0.0,0.0,0.0,0.0,0.0,0.0,0.0,0.0,0.0,0.0,0.0,0.0,0.0,0.0,0.0,0.0,0.0,0.0,0.0,0.0,0.0,0.0,0.0,0.0,0.0,0.0,0.0,0.0,0.0,0.0,0.0,0.0,0.0,0.0,0.0,0.0,0.0,0.0,0.0,0.0,0.0,0.0,0.0,0.0,0.0,0.0,0.0,0.0,0.0,0.0,0.0,0.0,0.0,0.0,0.0,0.0,0.0,0.0,0.0,0.0,0.0,0.0,-0.1588,-0.156,-0.1543,-0.1543,-0.1513,-0.1483,-0.1453,0.0,0.0,0.0,0.0,0.0,0.0,0.0,0.0,0.0,0.0,0.0,0.0,0.0,0.0,0.0,0.0,0.0,0.0,0.0,0.0,0.0,0.0,0.0,0.0,0.0,0.0,0.0,0.0,0.0,0.0,0.0,0.0,0.0,0.0,0.0,0.0,0.0,0.0,0.0,0.0,0.0,0.0,0.0,0.0,0.0,0.0,0.0,0.0,0.0,0.0,0.0,0.0,0.0,0.0,0.0,0.0,0.0,0.0,0.0,0.0,0.0,0.0,0.0,0.0,0.0,0.0,0.0,0.0,0.0,0.0,0.0,0.0,0.0,0.0,0.0,0.0,0.0,0.0,0.0,0.0,0.0,0.0,0.0,0.0,0.0,0.0,0.0,0.0,0.0,0.0,0.0,0.0,0.0,0.0,0.0,0.0,0.0,0.0,0.0,0.0,0.0,0.0,0.0,0.0,0.0,0.0,0.0,0.0,-0.1703,-0.1626,-0.1587,-0.1583,-0.1551,-0.1517,0.0,0.0,0.0,0.0,0.0,0.0,0.0,0.0,0.0,0.0,0.0,0.0,0.0,0.0,0.0,0.0,0.0,0.0,0.0,0.0,0.0,0.0,0.0,0.0,0.0,0.0,0.0,0.0,0.0,0.0,0.0,0.0,0.0,0.0,0.0,0.0,0.0,0.0,0.0,0.0,0.0,0.0,0.0,0.0,0.0,0.0,0.0,0.0,0.0,0.0,0.0,0.0,0.0,0.0,0.0,0.0,0.0,0.0,0.0,0.0,0.0,0.0,0.0,0.0,0.0,0.0,0.0,0.0,0.0,0.0,0.0,0.0,0.0,0.0,0.0,0.0,0.0,0.0,0.0,0.0,0.0,0.0,0.0,0.0,0.0,0.0,0.0,0.0,0.0,0.0,0.0,0.0,0.0,0.0,0.0,0.0,0.0,0.0,0.0,0.0,0.0,0.0,0.0,0.0,0.0,0.0,0.0,0.0,0.0,-0.1703,-0.1746,-0.1749,-0.1704,-0.1654,-0.1591,0.0,0.0,0.0,0.0,0.0,0.0,0.0,0.0,0.0,0.0,0.0,0.0,0.0,0.0,0.0,0.0,0.0,0.0,0.0,0.0,0.0,0.0,0.0,0.0,0.0,0.0,0.0,0.0,0.0,0.0,0.0,0.0,0.0,0.0,0.0,0.0,0.0,0.0,0.0,0.0,0.0,0.0,0.0,0.0,0.0,0.0,0.0,0.0,0.0,0.0,0.0,0.0,0.0,0.0,0.0,0.0,0.0,0.0,0.0,0.0,0.0,0.0,0.0,0.0,0.0,0.0,0.0,0.0,0.0,0.0,0.0,0.0,0.0,0.0,0.0,0.0,0.0,0.0,0.0,0.0,0.0,0.0,0.0,0.0,0.0,0.0,0.0,0.0,0.0,0.0,0.0,0.0,0.0,0.0,0.0,0.0,0.0,0.0,0.0,0.0,0.0,0.0,0.0,0.0,0.0,0.0,0.0,0.0,-0.1689,-0.176,-0.1838,-0.1861,-0.1827,-0.173,-0.1637,0.0,0.0,0.0,0.0,0.0,0.0,0.0,0.0,0.0,0.0,0.0,0.0,0.0,0.0,0.0,0.0,0.0,0.0,0.0,0.0,0.0,0.0,0.0,0.0,0.0,0.0,0.0,0.0,0.0,0.0,0.0,0.0,0.0,0.0,0.0,0.0,0.0,0.0,0.0,0.0,0.0,0.0,0.0,0.0,0.0,0.0,0.0,0.0,0.0,0.0,0.0,0.0,0.0,0.0,0.0,0.0,0.0,0.0,0.0,0.0,0.0,0.0,0.0,0.0,0.0,0.0,0.0,0.0,0.0,0.0,0.0,0.0,0.0,0.0,0.0,0.0,0.0,0.0,0.0,0.0,0.0,0.0,0.0,0.0,0.0,0.0,0.0,0.0,0.0,0.0,0.0,0.0,0.0,0.0,0.0,0.0,0.0,0.0,0.0,0.0,0.0,0.0,0.0,0.0,0.0,0.0,0.0,0.0,-0.1752,-0.1838,-0.1903,-0.1934,-0.1928,-0.179,-0.1671,0.0,0.0,0.0,0.0,0.0,0.0,0.0,0.0,0.0,0.0,0.0,0.0,0.0,0.0,0.0,0.0,0.0,0.0,0.0,0.0,0.0,0.0,0.0,0.0,0.0,0.0,0.0,0.0,0.0,0.0,0.0,0.0,0.0,0.0,0.0,0.0,0.0,0.0,0.0,0.0,0.0,0.0,0.0,0.0,0.0,0.0,0.0,0.0,0.0,0.0,0.0,0.0,0.0,0.0,0.0,0.0,0.0,0.0,0.0,0.0,0.0,0.0,0.0,0.0,0.0,0.0,0.0,0.0,0.0,0.0,0.0,0.0,0.0,0.0,0.0,0.0,0.0,0.0,0.0,0.0,0.0,0.0,0.0,0.0,0.0,0.0,0.0,0.0,0.0,0.0,0.0,0.0,0.0,0.0,0.0,0.0,0.0,0.0,0.0,0.0,0.0,0.0,0.0,0.0,0.0,0.0,0.0,0.0,-0.1772,-0.1839,-0.1924,-0.1955,-0.193,-0.1829,-0.1734,0.0,0.0,0.0,0.0,0.0,0.0,0.0,0.0,0.0,0.0,0.0,0.0,0.0,0.0,0.0,0.0,0.0,0.0,0.0,0.0,0.0,0.0,0.0,0.0,0.0,0.0,0.0,0.0,0.0,0.0,0.0,0.0,0.0,0.0,0.0,0.0,0.0,0.0,0.0,0.0,0.0,0.0,0.0,0.0,0.0,0.0,0.0,0.0,-0.7536,0.0,0.0,0.0,0.0,0.0,0.0,0.0,0.0,0.0,0.0,0.0,0.0,0.0,0.0,0.0,0.0,0.0,0.0,0.0,0.0,0.0,0.0,0.0,0.0,0.0,0.0,0.0,0.0,0.0,0.0,0.0,0.0,0.0,0.0,0.0,0.0,0.0,0.0,0.0,0.0,0.0,0.0,0.0,0.0,0.0,0.0,0.0,0.0,0.0,0.0,0.0,0.0,0.0,0.0,0.0,0.0,0.0,0.0,0.0,-0.1708,-0.1883,-0.1944,-0.1969,-0.1951,-0.1864,-0.1768,0.0,0.0,0.0,0.0,0.0,0.0,0.0,0.0,0.0,0.0,0.0,0.0,0.0,0.0,0.0,0.0,0.0,0.0,0.0,0.0,0.0,0.0,0.0,0.0,0.0,0.0,0.0,0.0,0.0,0.0,0.0,0.0,0.0,0.0,0.0,0.0,0.0,0.0,0.0,0.0,0.0,0.0,0.0,0.0,0.0,0.0,0.0,0.0,0.0,0.0,0.0,0.0,0.0,0.0,0.0,0.0,0.0,0.0,0.0,0.0,0.0,0.0,0.0,0.0,0.0,0.0,0.0,0.0,0.0,0.0,0.0,0.0,0.0,0.0,0.0,0.0,0.0,0.0,0.0,0.0,0.0,0.0,0.0,0.0,0.0,0.0,0.0,0.0,0.0,0.0,0.0,0.0,0.0,0.0,0.0,0.0,0.0,0.0,0.0,0.0,0.0,0.0,0.0,0.0,0.0,0.0,0.0,-0.1779,-0.1752,-0.1929,-0.1962,-0.1977,-0.1975,-0.1888,-0.1787,-0.1673,0.0,0.0,0.0,0.0,0.0,0.0,0.0,0.0,0.0,0.0,0.0,0.0,0.0,0.0,0.0,0.0,0.0,0.0,0.0,0.0,0.0,0.0,0.0,0.0,0.0,0.0,0.0,0.0,0.0,0.0,0.0,0.0,0.0,0.0,0.0,0.0,0.0,0.0,-0.7414,-0.7584,0.0,0.0,0.0,0.0,0.0,0.0,0.0,0.0,-0.7963,0.0,0.0,0.0,0.0,0.0,0.0,0.0,0.0,0.0,0.0,0.0,0.0,0.0,0.0,0.0,0.0,0.0,0.0,0.0,0.0,0.0,0.0,0.0,0.0,0.0,0.0,0.0,0.0,0.0,0.0,0.0,0.0,0.0,0.0,0.0,0.0,0.0,0.0,0.0,0.0,0.0,0.0,0.0,0.0,0.0,0.0,0.0,0.0,0.0,0.0,0.0,0.0,0.0,0.0,0.0,0.0,-0.1869,-0.189,-0.1869,-0.193,-0.196,-0.1977,-0.1974,-0.1888,-0.1795,-0.1701,0.0,0.0,0.0,0.0,0.0,0.0,0.0,0.0,0.0,0.0,0.0,0.0,0.0,0.0,0.0,0.0,0.0,0.0,0.0,0.0,0.0,0.0,0.0,0.0,0.0,0.0,0.0,0.0,0.0,0.0,0.0,0.0,0.0,0.0,0.0,0.0,0.0,0.0,0.0,-0.795,-0.7977,0.0,0.0,0.0,0.0,0.0,0.0,0.0,0.0,-0.814,0.0,0.0,0.0,0.0,0.0,0.0,0.0,0.0,0.0,0.0,0.0,0.0,0.0,0.0,0.0,0.0,0.0,0.0,0.0,0.0,0.0,0.0,0.0,0.0,0.0,0.0,0.0,0.0,0.0,0.0,0.0,0.0,0.0,0.0,0.0,0.0,0.0,0.0,0.0,0.0,0.0,0.0,0.0,0.0,0.0,0.0,0.0,0.0,0.0,0.0,0.0,0.0,0.0,0.0,0.0,-0.1897,-0.1915,-0.2012,-0.1952,-0.1969,-0.1977,-0.1975,-0.1888,-0.1797,0.0,0.0,0.0,0.0,0.0,0.0,0.0,0.0,0.0,0.0,0.0,0.0,0.0,0.0,0.0,0.0,0.0,0.0,0.0,0.0,0.0,0.0,0.0,0.0,0.0,0.0,0.0,0.0,0.0,0.0,0.0,0.0,0.0,0.0,0.0,0.0,0.0,0.0,0.0,0.0,-0.8174,-0.8269,-0.8269,0.0,0.0,0.0,0.0,0.0,0.0,-0.8316,-0.8248,0.0,0.0,0.0,0.0,0.0,0.0,0.0,0.0,0.0,0.0,0.0,0.0,0.0,0.0,0.0,0.0,0.0,0.0,0.0,0.0,0.0,0.0,0.0,0.0,0.0,0.0,0.0,0.0,0.0,0.0,0.0,0.0,0.0,0.0,0.0,0.0,0.0,0.0,0.0,0.0,0.0,0.0,0.0,0.0,0.0,0.0,0.0,0.0,0.0,0.0,0.0,0.0,0.0,0.0,0.0,-0.1919,-0.1945,-0.2042,-0.1974,-0.1982,-0.1982,-0.1975,-0.1883,-0.1791,0.0,0.0,0.0,0.0,0.0,0.0,0.0,0.0,0.0,0.0,0.0,0.0,0.0,0.0,0.0,0.0,0.0,0.0,0.0,0.0,0.0,0.0,0.0,0.0,0.0,0.0,0.0,0.0,0.0,0.0,0.0,0.0,0.0,0.0,0.0,0.0,0.0,0.0,0.0,0.0,0.0,-0.8479,-0.8479,-0.8411,0.0,0.0,0.0,0.0,-0.854,-0.8499,0.0,0.0,0.0,0.0,0.0,0.0,0.0,0.0,0.0,0.0,0.0,0.0,0.0,0.0,0.0,0.0,0.0,0.0,0.0,0.0,0.0,0.0,0.0,0.0,0.0,0.0,0.0,0.0,0.0,0.0,0.0,0.0,0.0,0.0,0.0,0.0,0.0,0.0,0.0,0.0,0.0,0.0,0.0,0.0,0.0,0.0,0.0,0.0,0.0,0.0,0.0,0.0,0.0,0.0,0.0,0.0,-0.192,-0.1967,-0.2064,-0.1975,-0.2001,-0.2001,-0.1977,-0.1862,-0.177,0.0,0.0,0.0,0.0,0.0,0.0,0.0,0.0,0.0,0.0,0.0,0.0,0.0,0.0,0.0,0.0,0.0,0.0,0.0,0.0,0.0,0.0,0.0,0.0,0.0,0.0,0.0,0.0,0.0,0.0,0.0,0.0,0.0,0.0,0.0,0.0,0.0,0.0,0.0,0.0,0.0,-0.8479,-0.8479,-0.8587,-0.8615,0.0,0.0,-0.8845,-0.8879,-0.8974,0.0,0.0,0.0,0.0,0.0,0.0,0.0,0.0,0.0,0.0,0.0,0.0,0.0,0.0,0.0,0.0,0.0,0.0,0.0,0.0,0.0,0.0,0.0,0.0,0.0,0.0,0.0,0.0,0.0,0.0,0.0,0.0,0.0,0.0,0.0,0.0,0.0,0.0,0.0,0.0,0.0,0.0,0.0,0.0,0.0,0.0,0.0,0.0,0.0,0.0,0.0,0.0,0.0,0.0,0.0,-0.1559,-0.1975,-0.2106,-0.2084,-0.2023,-0.2022,-0.2005,-0.1977,-0.1874,-0.1776,0.0,0.0,0.0,0.0,0.0,0.0,0.0,0.0,0.0,0.0,0.0,0.0,0.0,0.0,0.0,0.0,0.0,0.0,0.0,0.0,0.0,0.0,0.0,0.0,0.0,0.0,0.0,0.0,0.0,0.0,0.0,0.0,0.0,0.0,0.0,0.0,0.0,0.0,0.0,0.0,0.0,0.0,-0.8628,-0.8886,0.0,0.0,0.0,-0.9157,-0.9076,0.0,0.0,0.0,0.0,0.0,0.0,0.0,0.0,0.0,0.0,0.0,0.0,0.0,0.0,0.0,0.0,0.0,0.0,0.0,0.0,0.0,0.0,0.0,0.0,0.0,0.0,0.0,0.0,0.0,0.0,0.0,0.0,0.0,0.0,0.0,0.0,0.0,0.0,0.0,0.0,0.0,0.0,0.0,0.0,0.0,0.0,0.0,0.0,0.0,0.0,0.0,0.0,0.0,0.0,0.0,0.0,0.0,-0.2018,-0.2136,-0.2113,-0.206,-0.2041,-0.2012,-0.1977,-0.1888,0.0,0.0,0.0,0.0,0.0,0.0,0.0,0.0,0.0,0.0,0.0,0.0,0.0,0.0,0.0,0.0,0.0,0.0,0.0,0.0,0.0,0.0,0.0,0.0,0.0,0.0,0.0,-0.6179,0.0,0.0,0.0,0.0,0.0,0.0,0.0,0.0,0.0,0.0,0.0,0.0,0.0,0.0,-0.896,-0.8886,-0.9225,-0.9415,0.0,0.0,-0.9449,-0.934,-0.9449,-0.9374,0.0,0.0,0.0,0.0,0.0,0.0,0.0,0.0,0.0,0.0,0.0,0.0,0.0,0.0,0.0,0.0,0.0,0.0,0.0,0.0,0.0,0.0,0.0,0.0,0.0,0.0,0.0,0.0,0.0,0.0,0.0,0.0,0.0,0.0,0.0,0.0,0.0,0.0,0.0,0.0,0.0,0.0,0.0,0.0,0.0,0.0,0.0,0.0,0.0,0.0,0.0,0.0,0.0,0.0,0.0,-0.2021,-0.2181,-0.2155,-0.2063,-0.2061,-0.2034,-0.1977,-0.1888,-0.1785,0.0,0.0,0.0,0.0,0.0,0.0,0.0,0.0,0.0,0.0,0.0,0.0,0.0,0.0,0.0,0.0,0.0,0.0,0.0,0.0,0.0,0.0,0.0,0.0,0.0,0.0,0.0,0.0,0.0,0.0,0.0,0.0,0.0,0.0,0.0,0.0,0.0,0.0,0.0,0.0,0.0,-0.9191,-0.932,-0.9598,-0.9781,0.0,0.0,-0.9788,-0.9774,-0.9897,-0.9754,-0.9042,0.0,0.0,0.0,0.0,0.0,0.0,0.0,0.0,0.0,0.0,0.0,0.0,0.0,0.0,0.0,0.0,0.0,0.0,0.0,0.0,0.0,0.0,0.0,0.0,0.0,0.0,0.0,0.0,0.0,0.0,0.0,0.0,0.0,0.0,0.0,0.0,0.0,0.0,0.0,0.0,0.0,0.0,0.0,0.0,0.0,0.0,0.0,0.0,0.0,0.0,0.0,0.0,0.0,-0.194,-0.2081,-0.2084,-0.218,-0.2114,-0.2083,-0.2045,-0.2004,-0.1915,-0.1812,0.0,0.0,0.0,0.0,0.0,0.0,0.0,0.0,0.0,0.0,0.0,0.0,0.0,0.0,0.0,0.0,0.0,0.0,0.0,0.0,0.0,0.0,0.0,0.0,0.0,0.0,0.0,0.0,-0.7305,-0.7482,-0.7305,0.0,0.0,0.0,0.0,0.0,0.0,0.0,0.0,0.0,0.0,-0.9381,-0.9618,-0.9829,0.0,0.0,-0.9897,-0.9924,-0.9836,-0.9869,-0.972,-0.9157,-0.8947,0.0,0.0,0.0,0.0,0.0,0.0,0.0,0.0,0.0,0.0,0.0,0.0,0.0,0.0,0.0,0.0,0.0,0.0,0.0,0.0,0.0,0.0,0.0,0.0,0.0,0.0,0.0,0.0,0.0,0.0,0.0,0.0,0.0,0.0,0.0,0.0,0.0,0.0,0.0,0.0,0.0,0.0,0.0,0.0,0.0,0.0,0.0,0.0,0.0,0.0,0.0,0.0,-0.1968,-0.2106,-0.2102,-0.2197,-0.2139,-0.209,-0.2049,-0.2018,-0.1932,-0.1832,0.0,0.0,0.0,0.0,0.0,0.0,0.0,0.0,0.0,0.0,0.0,0.0,0.0,0.0,0.0,0.0,0.0,0.0,0.0,0.0,0.0,0.0,0.0,0.0,0.0,0.0,0.0,0.0,-0.7502,-0.7597,-0.7394,0.0,0.0,0.0,0.0,0.0,0.0,0.0,0.0,0.0,0.0,-0.9673,-0.9924,-1.0053,-1.008,-0.9971,-1.0012,-1.0012,-0.9903,-0.989,-0.9741,-0.9293,0.0,0.0,0.0,0.0,0.0,0.0,0.0,0.0,0.0,0.0,0.0,0.0,0.0,0.0,0.0,0.0,0.0,0.0,0.0,0.0,0.0,0.0,0.0,0.0,0.0,0.0,0.0,0.0,0.0,0.0,0.0,0.0,0.0,0.0,0.0,0.0,0.0,0.0,0.0,0.0,0.0,0.0,0.0,0.0,0.0,0.0,0.0,0.0,0.0,0.0,0.0,0.0,0.0,-0.1778,-0.1958,-0.211,-0.2207,-0.2109,-0.2079,-0.2049,-0.2019,-0.1933,-0.1843,-0.175,0.0,0.0,0.0,0.0,0.0,0.0,0.0,0.0,0.0,0.0,0.0,0.0,0.0,0.0,0.0,0.0,0.0,0.0,0.0,0.0,0.0,0.0,0.0,0.0,0.0,0.0,-0.6993,-0.7204,-0.7387,0.0,0.0,0.0,0.0,0.0,0.0,0.0,0.0,0.0,0.0,-0.9754,-1.0093,-1.0249,-1.027,-1.027,-1.027,-1.0148,-1.0053,-0.9921,-1.0046,-0.9897,0.0,0.0,0.0,0.0,0.0,0.0,0.0,0.0,0.0,0.0,0.0,0.0,0.0,0.0,0.0,0.0,0.0,0.0,0.0,0.0,0.0,0.0,0.0,0.0,0.0,0.0,0.0,-0.1374,-0.1373,0.0,0.0,0.0,0.0,0.0,0.0,0.0,0.0,0.0,0.0,0.0,-0.1632,-0.1754,0.0,0.0,0.0,0.0,0.0,0.0,0.0,0.0,0.0,0.0,0.0,0.0,-0.1678,-0.1989,-0.2102,-0.2059,-0.2106,-0.206,-0.2038,-0.2048,-0.1963,-0.1864,-0.1753,0.0,0.0,0.0,0.0,0.0,0.0,0.0,0.0,0.0,0.0,0.0,0.0,0.0,0.0,0.0,0.0,0.0,0.0,0.0,0.0,0.0,0.0,0.0,0.0,0.0,-0.7373,0.0,0.0,0.0,0.0,0.0,0.0,0.0,0.0,0.0,0.0,0.0,-0.915,-0.9747,-0.9958,-1.0175,-1.0527,-1.0357,-1.0161,0.0,0.0,0.0,0.0,0.0,0.0,0.0,0.0,0.0,0.0,0.0,0.0,0.0,0.0,-0.913,-0.8832,-0.8703,-0.8669,-0.8764,0.0,0.0,0.0,0.0,0.0,0.0,0.0,0.0,0.0,0.0,0.0,0.0,0.0,0.0,0.0,0.0,-0.1433,0.0,0.0,0.0,0.0,0.0,0.0,0.0,0.0,-0.1682,-0.1715,-0.1834,-0.1961,-0.1851,0.0,-0.1624,-0.159,0.0,0.0,0.0,0.0,0.0,0.0,0.0,0.0,-0.182,-0.2021,-0.2,-0.2069,-0.2106,-0.2071,-0.2054,-0.2063,-0.1977,-0.1884,-0.1785,-0.1725,-0.1651,0.0,0.0,0.0,0.0,0.0,0.0,0.0,0.0,0.0,0.0,0.0,0.0,0.0,0.0,0.0,0.0,0.0,0.0,0.0,0.0,0.0,0.0,0.0,-0.755,0.0,0.0,0.0,0.0,0.0,0.0,0.0,0.0,0.0,-0.8737,-0.915,-0.9632,-1.0073,-1.0215,-1.0243,-1.0478,0.0,0.0,0.0,0.0,0.0,0.0,0.0,-0.739,-0.7985,-0.8149,-0.869,-0.9703,-1.0002,-1.0073,-1.012,0.0,0.0,-0.9544,-0.9388,-0.9367,-0.9517,-0.9544,-0.9578,-0.9673,-0.9693,-0.972,0.0,0.0,0.0,0.0,0.0,0.0,0.0,0.0,-0.1865,-0.186,0.0,-0.1522,0.0,0.0,0.0,0.0,0.0,0.0,0.0,0.0,-0.1718,-0.1873,-0.1963,-0.1964,-0.1963,-0.196,-0.1817,-0.1802,-0.2015,-0.1684,0.0,0.0,0.0,0.0,0.0,0.0,-0.1873,-0.2057,-0.2048,-0.2108,-0.2109,-0.2108,-0.2093,-0.2061,-0.1978,-0.1904,-0.1844,-0.1786,-0.1738,-0.1704,-0.1596,0.0,0.0,0.0,0.0,0.0,0.0,0.0,0.0,0.0,0.0,0.0,0.0,0.0,0.0,0.0,0.0,0.0,0.0,0.0,0.0,-0.7529,0.0,0.0,0.0,0.0,0.0,0.0,0.0,0.0,0.0,0.0,-0.9218,-0.9686,-1.0114,-1.0276,0.0,0.0,0.0,0.0,-0.9163,-0.8788,-0.9563,-0.971,-0.8269,-0.5992,-0.5099,-0.6717,0.0,0.0,-1.0399,-1.0571,-1.0293,-1.0571,-1.0452,-1.0464,-0.9923,-0.9948,-1.0107,-1.0256,-1.0149,-1.0169,-1.0176,-0.9921,-0.9921,-0.1855,0.0,0.0,0.0,0.0,-0.1696,-0.1829,-0.184,-0.1827,-0.1918,-0.1886,-0.1753,0.0,0.0,0.0,0.0,0.0,0.0,-0.1797,-0.1868,-0.1925,-0.1956,-0.1969,-0.1989,-0.1989,-0.1967,-0.1959,-0.1933,-0.201,-0.1974,-0.1793,-0.17,0.0,0.0,0.0,0.0,-0.2176,-0.2118,-0.2177,-0.2087,-0.2109,-0.2089,-0.2063,-0.2033,-0.1988,-0.1945,-0.1906,-0.1868,-0.1813,-0.174,-0.1704,0.0,0.0,0.0,0.0,0.0,0.0,0.0,0.0,0.0,0.0,0.0,0.0,0.0,0.0,0.0,0.0,0.0,0.0,0.0,-0.7658,-0.772,-0.7694,0.0,0.0,0.0,0.0,0.0,0.0,0.0,0.0,0.0,-0.9568,-0.9975,-1.0183,0.0,0.0,-0.9664,-0.945,-0.8467,-0.7704,-0.7947,0.0,0.0,0.0,-0.5211,-0.4667,-0.5471,-0.621,-0.6945,-0.7364,-0.7584,-0.7693,-0.7722,-0.7726,-0.7717,-0.7844,-0.9262,-1.0464,-1.0585,-0.9813,-0.9169,-0.912,-0.846,-0.7636,-0.2008,-0.1823,-0.1784,-0.1764,-0.1879,-0.1909,-0.2052,-0.2071,-0.1941,-0.1922,-0.2013,-0.1887,-0.185,-0.1793,-0.1782,0.0,0.0,0.0,-0.2022,-0.209,-0.2122,-0.202,-0.2038,-0.2056,-0.2183,-0.2037,-0.2037,-0.2019,-0.1984,-0.1984,-0.1947,-0.1874,0.0,0.0,-0.1657,-0.2076,-0.2265,-0.2202,-0.2247,-0.2139,-0.2144,-0.2104,-0.2072,-0.2054,-0.2015,-0.1979,-0.1949,-0.1919,-0.1873,-0.1806,-0.177,-0.17,0.0,0.0,0.0,0.0,0.0,0.0,0.0,0.0,0.0,0.0,0.0,-0.5854,-0.6245,0.0,0.0,0.0,-0.6733,-0.7051,-0.782,-0.7742,0.0,0.0,0.0,0.0,0.0,0.0,0.0,-0.8176,-0.8165,-0.843,-0.9199,-0.9001,-0.9209,-1.0257,-0.9661,-0.8989,-0.8844,0.0,-0.6493,-0.6497,-0.6272,-0.5747,-0.5181,-0.4221,-0.382,-0.4692,-0.5094,-0.5651,-0.6383,-0.6528,-0.6665,-0.6669,-0.6669,-0.6685,-0.6737,-0.8159,-0.9291,-0.9371,-0.8686,-0.8009,-0.8072,-0.7376,-0.6665,-0.214,-0.2232,-0.2087,-0.2042,-0.2191,-0.2225,-0.2239,-0.2237,-0.2015,-0.2009,-0.211,-0.2011,-0.1992,-0.194,-0.2032,0.0,0.0,-0.2097,-0.2253,-0.2157,-0.2187,-0.22,-0.22,-0.2202,-0.22,-0.22,-0.2197,-0.2068,-0.2067,-0.2064,-0.2065,-0.2065,-0.208,-0.1933,-0.1866,-0.2173,-0.2232,-0.2162,-0.2217,-0.223,-0.22,-0.2143,-0.2112,-0.2108,-0.2053,-0.2009,-0.1981,-0.1951,-0.1921,-0.1888,-0.1809,-0.176,-0.1746,0.0,0.0,0.0,0.0,0.0,0.0,0.0,0.0,0.0,0.0,0.0,0.0,0.0,0.0,0.0,-0.6469,0.0,-0.7832,-0.7523,0.0,0.0,0.0,-0.7069,-0.5409,-0.6436,-0.747,-0.7702,0.0,0.0,-0.8209,0.0,-0.7507,-1.0172,-0.9325,-0.826,-0.8094,-0.6438,-0.5188,-0.4911,-0.4073,-0.3794,-0.4087,-0.3128,-0.2874,-0.4068,-0.4469,-0.4881,-0.6076,-0.6383,-0.6532,-0.638,-0.6532,-0.6532,-0.6536,-0.6517,-0.668,-0.6677,-0.6677,-0.6817,-0.6813,-0.652,-0.6231,-0.2172,-0.2142,-0.2105,-0.2212,-0.2199,-0.2231,-0.2231,-0.2209,-0.2215,-0.22,-0.2171,-0.2178,-0.2173,-0.2158,-0.2151,-0.2165,-0.2196,-0.2205,-0.2225,-0.2255,-0.2262,-0.2132,-0.2133,-0.2133,-0.2132,-0.2132,-0.2241,-0.2229,-0.2228,-0.2205,-0.2076,-0.2097,-0.2199,-0.2075,-0.198,-0.2127,-0.2299,-0.2223,-0.2238,-0.223,-0.22,-0.2163,-0.2133,-0.2109,-0.2072,-0.2039,-0.2009,-0.1981,-0.1952,-0.1922,-0.1899,-0.1846,-0.1755,-0.1701,0.0,0.0,0.0,0.0,0.0,0.0,0.0,0.0,0.0,-0.5477,-0.595,0.0,-0.6491,0.0,-0.7517,-0.7832,-0.7394,-0.7049,0.0,0.0,-0.5941,-0.5577,-0.6302,-0.6166,-0.5954,-0.5904,-0.6017,-0.6237,-0.6533,-0.6279,-0.6585,-0.7612,-0.686,-0.6133,-0.574,-0.4664,-0.384,-0.3703,-0.3156,-0.2744,-0.2744,-0.2606,-0.2478,-0.2804,-0.2926,-0.305,-0.3348,-0.335,-0.335,-0.3348,-0.3348,-0.3494,-0.3496,-0.3348,-0.351,-0.3535,-0.4397,-0.5235,-0.5235,-0.4366,-0.3496,-0.221,-0.2193,-0.218,-0.2165,-0.215,-0.2154,-0.2144,-0.2262,-0.2262,-0.2252,-0.2236,-0.2236,-0.2236,-0.2236,-0.2236,-0.2245,-0.2261,-0.2262,-0.2139,-0.2154,-0.2155,-0.2155,-0.2155,-0.2155,-0.2155,-0.2154,-0.2138,-0.2262,-0.2262,-0.2245,-0.2113,-0.2129,-0.2129,-0.2151,-0.2193,-0.2195,-0.2218,-0.2264,-0.2252,-0.2237,-0.2219,-0.2165,-0.2125,-0.2109,-0.2067,-0.2035,-0.2019,-0.1978,-0.1948,-0.1932,-0.1906,-0.1859,-0.1794,-0.1749,-0.1689,0.0,0.0,0.0,0.0,0.0,0.0,0.0,0.0,0.0,0.0,0.0,-0.6904,-0.7557,-0.7862,-0.7758,-0.7055,-0.7355,-0.704,-0.5502,-0.5624,-0.5496,-0.4835,-0.4973,-0.5087,-0.5017,-0.4662,-0.4556,-0.527,-0.4843,-0.4427,-0.4746,-0.4435,-0.4277,-0.4564,-0.3732,-0.2885,-0.2886,-0.2625,-0.2358,-0.2371,-0.2373,-0.2379,-0.2393,-0.2384,-0.2373,-0.2373,-0.2373,-0.2372,-0.2373,-0.2373,-0.2373,-0.2373,-0.2372,-0.2379,-0.2539,-0.3129,-0.3559,-0.3703,-0.2965,-0.2372,-0.2249,-0.2243,-0.2217,-0.2203,-0.2198,-0.2172,-0.2158,-0.2155,-0.2155,-0.2155,-0.2155,-0.2155,-0.2155,-0.2155,-0.2155,-0.2155,-0.2155,-0.2155,-0.2155,-0.2155,-0.2155,-0.2155,-0.2155,-0.2155,-0.2155,-0.2155,-0.2155,-0.2155,-0.2155,-0.2155,-0.2155,-0.2155,-0.2155,-0.2185,-0.2243,-0.2245,-0.226,-0.229,-0.226,-0.2243,-0.2238,-0.2158,-0.2113,-0.2108,-0.2054,-0.2022,-0.2018,-0.1962,-0.1932,-0.1929,-0.188,-0.185,-0.1846,-0.1797,-0.1753,0.0,-0.1699,0.0,0.0,0.0,0.0,0.0,0.0,0.0,0.0,-0.5985,-0.7111,-0.7908,-0.7643,-0.704,-0.6571,-0.7406,-0.6869,-0.401,-0.5381,-0.5622,-0.2884,-0.3486,-0.4238,-0.4287,-0.3182,-0.2914,-0.4073,-0.3205,-0.2333,-0.2477,-0.2474,-0.291,-0.3939,-0.3212,-0.2338,-0.2339,-0.2364,-0.2394,-0.2418,-0.2424,-0.2423,-0.2427,-0.2423,-0.2424,-0.242,-0.2421,-0.2421,-0.2421,-0.2418,-0.2421,-0.2424,-0.2421,-0.2424,-0.2428,-0.258,-0.2577,-0.2571,-0.2417,-0.2423,-0.2267,-0.2245,-0.2238,-0.2223,-0.2199,-0.2193,-0.2177,-0.2155,-0.2155,-0.2155,-0.2155,-0.2155,-0.2155,-0.2155,-0.2155,-0.2155,-0.2155,-0.2155,-0.2155,-0.2155,-0.2155,-0.2155,-0.2155,-0.2155,-0.2155,-0.2155,-0.2155,-0.2155,-0.2155,-0.2155,-0.2155,-0.2155,-0.2155,-0.2185,-0.2243,0.0,0.0,0.0,-0.226,-0.2234,-0.2208,-0.2168,-0.2135,-0.211,-0.2074,0.0,-0.2018,-0.1962,-0.1932,-0.193,-0.1919,0.0,0.0,0.0,0.0,0.0,0.0,0.0,0.0,0.0,0.0,0.0,-0.2939,-0.3386,-0.3852,-0.4416,-0.5,-0.5459,-0.5621,-0.5441,-0.4665,-0.4816,-0.4723,-0.4262,-0.3548,-0.3332,-0.3767,-0.3276,-0.2752,-0.2758,-0.2474,-0.2333,-0.277,-0.2478,-0.2333,-0.2333,-0.2333,-0.249,-0.2809,-0.2664,-0.2369,-0.2372,-0.2397,-0.2425,-0.2455,-0.2442,-0.2438,-0.245,-0.2439,-0.2427,-0.2427,-0.2427,-0.2424,-0.2425,-0.2424,-0.2425,-0.2425,-0.2424,-0.2435,-0.2455,-0.2461,-0.2453,-0.2429,-0.2424,-0.2416,-0.2303,0.0,-0.2274,-0.2259,0.0,-0.2229,-0.2214,-0.2199,-0.2184,-0.2177,-0.2176,-0.2161,-0.2155,-0.2155,-0.2155,-0.2155,-0.2155,-0.2155,-0.2155,-0.2155,-0.2155,-0.2155,-0.2155,-0.2155,-0.2155,-0.2155,-0.2155,-0.2155,-0.2155,-0.2155,-0.2155,-0.2155,-0.2155,-0.2177,-0.2222,-0.2252,-0.2275,-0.229,-0.226,-0.223,-0.2199,-0.2155,-0.2119,-0.2087,0.0,0.0,0.0,0.0,0.0,0.0,0.0,0.0,0.0,0.0,0.0,-0.1909,-0.1907,-0.1914,-0.1928,-0.2064,-0.221,-0.2242,-0.2386,-0.2872,-0.3905,-0.4383,-0.4855,-0.5525,-0.53,-0.4847,-0.4286,-0.4803,-0.4687,-0.3422,-0.3178,-0.3347,-0.325,-0.2721,-0.2318,-0.2331,-0.2333,-0.2333,-0.2333,-0.2333,-0.2333,-0.2334,-0.2346,-0.236,-0.2373,-0.2378,-0.2386,-0.2417,-0.2435,-0.2457,-0.2482,-0.2481,-0.2472,-0.2485,-0.2478,-0.247,-0.2469,-0.2469,-0.2469,-0.2467,-0.2467,-0.2469,-0.2467,-0.2469,-0.2473,-0.2487,-0.2491,-0.2487,-0.247,-0.2469,-0.2465,-0.2343,-0.2345,-0.2312,-0.2298,-0.2296,-0.2266,-0.2253,-0.2252,0.0,0.0,0.0,-0.2187,-0.217,-0.217,-0.2159,-0.2155,-0.2155,-0.2155,-0.2155,-0.2155,-0.2155,-0.2155,-0.2155,-0.2155,-0.2155,-0.2155,-0.2155,-0.2155,-0.2155,-0.2155,-0.2155,-0.2155,-0.2155,-0.2173,-0.2208,-0.2268,-0.2296,-0.229,-0.226,-0.2232,-0.22,-0.2146,-0.2104,-0.2072,-0.2048,-0.2033,-0.2026,-0.1999,-0.1994,-0.2016,-0.1997,-0.1984,-0.1984,-0.1989,-0.1992,-0.1992,-0.1997,-0.2011,-0.2033,-0.2039,-0.2053,-0.2078,-0.2102,-0.2619,-0.3957,-0.4299,-0.476,-0.543,-0.4945,-0.4327,-0.3976,-0.4898,-0.4771,-0.2512,-0.3196,-0.3492,-0.2425,-0.2296,-0.2309,-0.2328,-0.2333,-0.2333,-0.2333,-0.2333,-0.2335,-0.2343,-0.2361,-0.2384,-0.2393,-0.2398,-0.2417,-0.2463,-0.2476,-0.2487,-0.2506,-0.2511,-0.2514,-0.2511,-0.2512,-0.2514,-0.2514,-0.2514,-0.2514,-0.2508,-0.2514,-0.2511,-0.2512,-0.251,-0.2514,-0.2514,-0.2514,-0.2514,-0.2514,-0.2514,-0.2508,-0.2238,-0.2256,-0.235,-0.2327,-0.2324,-0.2297,-0.2285,-0.2283,-0.2423,-0.2292,-0.2311,-0.2256,-0.2233,-0.223,-0.2178,-0.2155,-0.2155,-0.2155,-0.2155,0.0,-0.2155,-0.2155,-0.2155,-0.2155,-0.2155,-0.2155,-0.2155,-0.2155,-0.2155,-0.2155,-0.2155,-0.2155,-0.2155,-0.2183,-0.2238,-0.2297,-0.2315,-0.229,-0.2262,-0.223,-0.22,-0.2166,-0.2133,-0.2105,-0.2098,-0.2084,-0.2059,-0.203,-0.2015,-0.2019,-0.2015,-0.2012,-0.2014,-0.2038,-0.2052,-0.2053,-0.2076,-0.2093,-0.2097,-0.212,-0.2138,-0.2142,-0.2146,-0.2278,-0.2537,-0.2545,-0.2697,-0.2728,-0.2735,-0.2605,-0.2475,-0.2771,-0.2777,-0.2354,-0.2391,-0.2425,-0.2292,-0.2312,-0.2327,-0.2333,-0.2333,-0.2333,-0.2333,-0.2333,-0.2342,-0.2364,-0.238,-0.2398,-0.2442,-0.2455,-0.247,-0.2499,-0.2508,-0.251,-0.2512,-0.2514,-0.2514,-0.2514,-0.2514,-0.2514,-0.2514,-0.2514,-0.2514,-0.2514,-0.2514,-0.2514,-0.2514,-0.2514,-0.2514,-0.2514,-0.2514,-0.2514,-0.2514,-0.2514,-0.2506,-0.241,-0.2266,-0.2375,-0.2357,-0.2356,-0.2326,-0.2323,-0.2338,-0.2338,-0.2335,-0.2328,-0.2288,-0.226,-0.2243,-0.2217,-0.2185,-0.2155,-0.2189,-0.2187,-0.2157,-0.2172,-0.217,-0.2155,-0.2155,-0.2155,-0.2155,-0.2155,-0.2155,-0.2155,-0.2155,-0.2163,-0.218,-0.2195,-0.2218,-0.2247,-0.2289,-0.2304,-0.229,-0.2277,-0.2248,-0.2202,-0.2187,-0.2157,-0.211,-0.2109,-0.2112,-0.2113,-0.2099,-0.2099,-0.2116,-0.2117,-0.211,-0.2094,-0.2106,-0.2113,-0.2114,-0.2127,-0.2133,-0.2133,-0.2146,-0.2155,-0.2155,-0.2155,-0.2155,-0.2155,-0.217,-0.2178,-0.2177,-0.2204,-0.2225,-0.2225,-0.2237,-0.2252,-0.2271,-0.2286,-0.2297,-0.2312,-0.2323,-0.2333,-0.2333,-0.2333,-0.2333,-0.2333,-0.2333,-0.2345,-0.2373,-0.2402,-0.2443,-0.2485,-0.2493,-0.2497,-0.2511,-0.2514,-0.2514,-0.2514,-0.2514,-0.2514,-0.2514,-0.2514,-0.2514,-0.2514,-0.2514,-0.2514,-0.2514,-0.2514,-0.2514,-0.2514,-0.2514,-0.2514,-0.2514,-0.2514,-0.2514,-0.2514,-0.2514,-0.2503,-0.2433,-0.2431,-0.2394,-0.2375,-0.2367,-0.2343,-0.2346,-0.222,-0.2226,-0.2365,-0.2488,-0.232,-0.2301,-0.2285,-0.2266,-0.2233,-0.2204,-0.2237,-0.2233,-0.22,-0.2213,-0.2208,-0.2185,-0.2178,-0.2172,-0.2166,-0.2165,-0.2165,-0.2165,-0.2165,-0.218,-0.221,-0.2241,-0.2256,-0.2256,-0.2286,-0.23,-0.23,-0.23,-0.2275,-0.2223,-0.2214,-0.2187,-0.2144,-0.214,-0.2151,-0.2173,-0.2174,-0.2185,-0.2208,-0.2203,-0.2189,-0.2166,-0.2158,-0.2155,-0.2155,-0.2155,-0.2155,-0.2155,-0.2155,-0.2158,-0.2165,-0.2158,-0.2161,-0.2174,-0.2196,-0.2202,-0.2185,-0.2218,-0.2247,-0.2255,-0.2263,-0.2281,-0.2318,-0.2311,-0.2309,-0.2328,-0.2333,-0.2333,-0.2333,-0.2333,-0.2333,-0.2333,-0.2333,-0.2349,-0.2388,-0.244,-0.2488,-0.251,-0.2514,-0.2514,-0.2514,-0.2514,-0.2514,-0.2514,-0.2514,-0.2514,-0.2514,-0.2514,-0.2514,-0.2514,-0.2514,-0.2514,-0.2514,-0.2514,-0.2514,-0.2514,-0.2514,-0.2514,-0.2514,-0.2514,-0.2514,-0.2514,-0.2514,-0.2504,-0.2465,-0.2455,-0.2554,-0.2361,-0.2338,-0.2334,-0.2335,-0.2341,-0.2217,-0.2229,-0.2371,-0.2372,-0.2382,-0.2394,-0.2175,-0.2293,-0.2305,-0.2294,-0.2294,-0.2305,-0.2293,-0.2138,-0.227,-0.2248,-0.2222,-0.2199,-0.2196,-0.2196,-0.2196,-0.2198,-0.2211,-0.2241,-0.2271,-0.2286,-0.229,-0.2313,-0.2328,-0.2328,-0.2328,-0.2313,-0.2283,-0.2256,-0.2238,-0.2233,-0.2232,-0.2234,-0.2234,-0.2237,-0.2238,-0.2238,-0.2215,-0.2199,-0.2193,-0.217,-0.2155,-0.2155,-0.2155,-0.2155,-0.2155,-0.2155,-0.2169,-0.2191,-0.2172,-0.218,-0.2228,-0.2238,-0.224,-0.2238,-0.2243,-0.226,-0.2283,-0.2307,-0.2313,-0.2303,-0.2316,-0.233,-0.2331,-0.2333,-0.2333,-0.2333,-0.2333,-0.2333,-0.2333,-0.2337,-0.236,-0.2409,-0.2466,-0.2507,-0.2512,-0.2514,-0.2514,-0.2514,-0.2514,-0.2514,-0.2514,-0.2514,-0.2514,-0.2514,-0.2514,-0.2514,-0.2514,-0.2514,-0.2514,-0.2514,-0.2514,-0.2514,-0.2514,-0.2514,-0.2514,-0.2514,-0.2514,-0.2514,-0.2514,-0.2514,-0.2503,-0.2469,-0.2465,-0.2423,-0.2376,-0.2335,-0.2333,-0.2333,-0.2334,-0.2346,-0.2361,-0.2378,-0.2378,-0.2376,-0.2516,-0.2477,-0.2304,-0.2283,-0.2305,-0.2446,-0.2428,-0.243,-0.2281,-0.2263,-0.2252,-0.2238,-0.2228,-0.2226,-0.2226,-0.223,-0.2245,-0.226,-0.2274,-0.2301,-0.2316,-0.2316,-0.2327,-0.2333,-0.2333,-0.2333,-0.2327,-0.2313,-0.2288,-0.2264,-0.2247,-0.2245,-0.2255,-0.227,-0.2273,-0.2273,-0.2271,-0.226,-0.2245,-0.2228,-0.2215,-0.22,-0.2184,-0.2181,-0.2181,-0.2181,-0.2198,-0.2206,-0.22,-0.2206,-0.2221,-0.2243,-0.2245,-0.2252,-0.2271,-0.2288,-0.2297,-0.2294,-0.2316,-0.2328,-0.2319,-0.2326,-0.2333,-0.2333,-0.2333,-0.2333,-0.2333,-0.2333,-0.2333,-0.2339,-0.2365,-0.2394,-0.2427,-0.2476,-0.2512,-0.2514,-0.2514,-0.2514,-0.2514,-0.2514,-0.2514,-0.2514,-0.2514,-0.2514,-0.2514,-0.2514,-0.2514,-0.2514,-0.2514,-0.2514,-0.2514,-0.2514,-0.2514,-0.2514,-0.2514,-0.2514,-0.2514,-0.2514,-0.2514,-0.2514,-0.2514,-0.2507,-0.2481,-0.2476,-0.2288,-0.2244,-0.2346,-0.2345,-0.2345,-0.2343,-0.2337,-0.2346,-0.2216,-0.2217,-0.2353,-0.2481,-0.2487,-0.2324,-0.2301,-0.233,-0.2474,-0.2441,-0.2454,-0.2448,-0.2282,-0.2273,-0.2264,-0.2259,-0.2258,-0.2258,-0.2262,-0.2288,-0.2303,-0.2305,-0.2323,-0.2333,-0.2333,-0.2333,-0.2333,-0.2333,-0.2333,-0.2333,-0.233,-0.2312,-0.2292,-0.2271,-0.227,-0.2279,-0.2301,-0.2303,-0.2303,-0.2303,-0.2296,-0.2281,-0.226,-0.2251,-0.2236,-0.2215,-0.2213,-0.2213,-0.2213,-0.2233,-0.224,-0.2228,-0.224,-0.2252,-0.2264,-0.2263,-0.2271,-0.2298,-0.232,-0.2322,-0.2309,-0.232,-0.2331,-0.2333,-0.2333,-0.2333,-0.2333,-0.2333,-0.2333,-0.2333,-0.2333,-0.2337,-0.2352,-0.2395,-0.2436,-0.2443,-0.2481,-0.2514,-0.2514,-0.2514,-0.2514,-0.2514,-0.2514,-0.2514,-0.2514,-0.2514,-0.2514,-0.2514,-0.2514,-0.2514,-0.2514,-0.2514,-0.2514,-0.2514,-0.2514,-0.2514,-0.2514,-0.2514,-0.2514,-0.2514,-0.2514,-0.2514,-0.2514,-0.2514,-0.2514,-0.2512,-0.2502,-0.2294,-0.2255,-0.2228,-0.2226,-0.2226,-0.2223,-0.2345,-0.2334,-0.2337,-0.2337,-0.2334,-0.2335,-0.2361,-0.2239,-0.2253,-0.238,-0.2382,-0.2246,-0.2379,-0.2224,-0.2223,-0.2343,-0.2313,-0.2289,-0.2289,-0.2289,-0.229,-0.2316,-0.2331,-0.2331,-0.2331,-0.2333,-0.2333,-0.2333,-0.2333,-0.2333,-0.2335,-0.2334,-0.2334,-0.2333,-0.2333,-0.2184,-0.2327,-0.2326,-0.233,-0.233,-0.233,-0.2331,-0.2307,-0.229,-0.2286,-0.2262,-0.2247,-0.2244,-0.2244,-0.2244,-0.2243,-0.2248,-0.2259,-0.2277,-0.2263,-0.227,-0.2313,-0.2301,-0.23,-0.2327,-0.233,-0.2331,-0.2328,-0.233,-0.2333,-0.2333,-0.2333,-0.2333,-0.2333,-0.2333,-0.2333,-0.2335,-0.2339,-0.2352,-0.2375,-0.2429,-0.2458,-0.2469,-0.2493,-0.2514,-0.2514,-0.2514,-0.2514,-0.2514,-0.2514,-0.2514,-0.2514,-0.2514,-0.2514,-0.2514,-0.2514,-0.2514,-0.2514,-0.2514,-0.2514,-0.2514,-0.2514,-0.2514,-0.2514,-0.2514,-0.2514,-0.2514,-0.2514,-0.2514,-0.2514,-0.2514,-0.2514,-0.2491,-0.2455,-0.228,-0.2406,-0.2379,-0.2378,-0.2378,-0.2226,-0.2346,-0.2333,-0.2333,-0.2333,-0.2333,-0.2334,-0.2216,-0.2225,-0.2217,-0.2353,-0.2356,-0.2216,-0.2354,-0.2349,-0.2348,-0.2337,-0.2328,-0.2319,-0.2318,-0.2318,-0.2318,-0.2328,-0.2333,-0.2333,-0.2333,-0.2333,-0.2333,-0.2333,-0.2333,-0.2335,-0.235,-0.2363,-0.2216,-0.2232,-0.2091,-0.1641,-0.2059,-0.2335,-0.2335,-0.2335,-0.2334,-0.2333,-0.2323,-0.2318,-0.2315,-0.229,-0.2282,-0.2297,-0.2285,-0.2274,-0.2277,-0.2292,-0.2297,-0.2292,-0.2298,-0.2307,-0.2326,-0.2323,-0.2323,-0.2331,-0.2333,-0.2333,-0.2333,-0.2333,-0.2333,-0.2333,-0.2333,-0.2333,-0.2333,-0.2333,-0.2339,-0.236,-0.2378,-0.2397,-0.241,-0.2444,-0.2467,-0.2472,-0.2495,-0.2511,-0.2514,-0.2514,-0.2514,-0.2514,-0.2514,-0.2514,-0.2514,-0.2514,-0.2514,-0.2514,-0.2514,-0.2514,-0.2514,-0.2514,-0.2514,-0.2515,-0.2515,-0.2522,-0.2526,-0.2527,-0.2526,-0.2523,-0.2523,-0.2527,-0.2514,-0.2526,-0.2523,-0.2493,-0.2444,-0.2295,-0.2435,-0.2559,-0.2558,-0.2402,-0.2242,-0.2223,-0.2357,-0.235,-0.2357,-0.2361,-0.2217,-0.2235,-0.2383,-0.2364,-0.2363,-0.2363,-0.2361,-0.2352,-0.2348,-0.2346,-0.2337,-0.2338,-0.2346,-0.2348,-0.2352,-0.2358,-0.2342,-0.2338,-0.2348,-0.2338,-0.2333,-0.2334,-0.2342,-0.2348,-0.2206,-0.1782,-0.1795,-0.2246,-0.2261,-0.1968,-0.1361,-0.149,-0.1622,-0.191,-0.1902,-0.1898,-0.1896,-0.2188,-0.2334,-0.2331,-0.2316,-0.2313,-0.2328,-0.2315,-0.2304,-0.2307,-0.2322,-0.2324,-0.2307,-0.232,-0.2333,-0.2333,-0.2333,-0.2333,-0.2333,-0.2333,-0.2333,-0.2335,-0.2342,-0.2343,-0.2335,-0.2333,-0.2338,-0.2346,-0.2348,-0.2363,-0.239,-0.2418,-0.2435,-0.2442,-0.2466,-0.2481,-0.2484,-0.2503,-0.2512,-0.2514,-0.2514,-0.2514,-0.2514,-0.2514,-0.2514,-0.2362,-0.2209,-0.2364,-0.2363,-0.2364,-0.2362,-0.2363,-0.2362,-0.2362,-0.2518,-0.2523,-0.2533,-0.2538,-0.2542,-0.2542,-0.2541,-0.2552,-0.2562,-0.2553,-0.2548,-0.239,-0.2522,-0.232,-0.2344,-0.2331,-0.2458,-0.2455,-0.2447,-0.2271,-0.2267,-0.2401,-0.2383,-0.2406,-0.2262,-0.2269,-0.227,-0.2423,-0.242,-0.2423,-0.2269,-0.2262,-0.2238,-0.2376,-0.2228,-0.235,-0.2353,-0.2378,-0.2229,-0.2393,-0.2412,-0.2368,-0.2354,-0.2369,-0.2353,-0.2345,-0.2337,-0.2217,-0.2082,-0.1937,-0.0752,-0.0908,-0.2121,-0.2126,-0.1825,-0.1064,-0.0454,-0.0451,-0.1191,-0.1177,-0.1171,-0.1316,-0.19,-0.2191,-0.2191,-0.2187,-0.2188,-0.2187,-0.2186,-0.2331,-0.2331,-0.2331,-0.2333,-0.2328,-0.2333,-0.2333,-0.2333,-0.2333,-0.2333,-0.2333,-0.2335,-0.2335,-0.2341,-0.2363,-0.2367,-0.2339,-0.2341,-0.2354,-0.2372,-0.238,-0.239,-0.2421,-0.245,-0.2467,-0.2474,-0.2491,-0.2506,-0.2508,-0.2511,-0.2514,-0.2514,-0.2357,-0.2357,-0.2359,-0.2364,-0.221,-0.2057,-0.1902,-0.2057,-0.2213,-0.2215,-0.2215,-0.2221,-0.2222,-0.2066,-0.2066,-0.2075,-0.2081,-0.209,-0.2094,-0.2258,-0.2259,-0.2268,-0.2268,-0.2261,-0.2095,-0.2263,-0.1878,-0.0926,-0.2014,-0.2466,-0.244,-0.2438,-0.2431,-0.2424,-0.2272,-0.2417,-0.2412,-0.242,-0.2424,-0.2429,-0.2444,-0.2455,-0.2457,-0.2474,-0.2465,-0.2425,-0.2394,-0.2391,-0.2251,-0.2379,-0.238,-0.2405,-0.2409,-0.2414,-0.2418,-0.2403,-0.2402,-0.2405,-0.2249,-0.2246,-0.2246,-0.1352,-0.0752,-0.0603,-0.0305,-0.0307,-0.0767,0.0,0.0,-0.0466,-0.0154,-0.0153,-0.0305,-0.0452,-0.0447,0.0,-0.1183,-0.1621,-0.1609,-0.1606,-0.1606,-0.1605,-0.2043,-0.2335,-0.2335,-0.2335,-0.2335,-0.2335,-0.2335,-0.2334,-0.2333,-0.2335,-0.2337,-0.2337,-0.235,-0.2216,-0.2369,-0.2391,-0.2246,-0.2368,-0.2383,-0.2395,-0.2258,-0.2427,-0.2443,-0.2455,-0.2481,-0.2497,-0.25,-0.2512,-0.2514,-0.2357,-0.2514,-0.2514,-0.2515,-0.2045,-0.1736,-0.1745,-0.1748,-0.1754,-0.1762,-0.1608,-0.1771,-0.1926,-0.1923,-0.1758,-0.176,-0.1602,-0.1604,-0.1609,-0.1615,-0.1622,-0.1628,-0.1632,-0.1635,-0.1632,-0.163,-0.1629,-0.1628,-0.1631,-0.1637,-0.0944,-0.0156,-0.1095,-0.1863,-0.2458,-0.2457,-0.2451,-0.2443,-0.2453,-0.2451,-0.2444,-0.2453,-0.2458,-0.2461,-0.2477,-0.2485,-0.2488,-0.2507,-0.2495,-0.2457,-0.2577,-0.2424,-0.2285,-0.2421,-0.242,-0.2436,-0.244,-0.2447,-0.2455,-0.2436,-0.2283,-0.1993,-0.1682,-0.1834,-0.2148,0.0,0.0,0.0,0.0,0.0,0.0,0.0,0.0,0.0,0.0,0.0,0.0,0.0,0.0,0.0,-0.0449,-0.0744,-0.0736,-0.0735,-0.0733,-0.0876,-0.1168,-0.146,-0.1752,-0.1898,-0.1898,-0.1899,-0.1905,-0.191,-0.1911,-0.2064,-0.2219,-0.1925,-0.1936,-0.1945,-0.1948,-0.1816,-0.1973,-0.1962,-0.2265,-0.2276,-0.2134,-0.2004,-0.2173,-0.2334,-0.2189,-0.204,-0.2043,-0.2357,-0.2357,-0.22,-0.2043,-0.2207,-0.221,-0.2057,-0.1593,-0.1122,-0.0804,-0.0969,-0.1462,-0.1468,-0.131,-0.1469,-0.1628,-0.1297,-0.1133,-0.0971,-0.081,-0.0815,-0.0819,-0.0823,-0.0826,-0.0827,-0.0828,-0.0824,0.0,0.0,0.0,0.0,-0.0829,0.0,0.0,0.0,-0.0791,-0.2036,-0.2034,-0.2022,-0.232,-0.2189,-0.2341,-0.2481,-0.25,-0.2512,-0.2512,-0.2508,-0.251,-0.2514,-0.2512,-0.2517,-0.2506,-0.2487,-0.2474,-0.2316,-0.2472,-0.2476,-0.2322,-0.2477,-0.2334,-0.2037,-0.216,-0.1999,-0.157,-0.078,-0.0778,-0.1414,-0.063,0.0,0.0,0.0,0.0,0.0,0.0,0.0,0.0,0.0,0.0,0.0,0.0,0.0,0.0,0.0,0.0,0.0,0.0,0.0,0.0,0.0,-0.044,-0.1025,-0.1175,-0.1175,-0.1176,-0.1184,-0.119,-0.1191,-0.1499,-0.1809,-0.1508,-0.121,-0.1213,-0.1216,-0.1226,-0.1387,-0.1388,-0.1992,-0.2144,-0.1389,-0.1403,-0.141,-0.1882,-0.1728,-0.1256,-0.1414,-0.173,-0.189,-0.1733,-0.142,-0.143,-0.1756,-0.1603,-0.145,0.0,0.0,0.0,0.0,-0.0826,-0.0829,-0.0828,0.0,0.0,0.0,0.0,0.0,0.0,0.0,0.0,0.0,0.0,0.0,0.0,0.0,0.0,0.0,0.0,0.0,0.0,0.0,0.0,-0.0313,-0.062,-0.062,0.0,0.0,0.0,-0.1423,-0.22,-0.2534,-0.2536,-0.2517,-0.2515,-0.2514,-0.2518,-0.2515,-0.2529,-0.2545,-0.2541,-0.2522,-0.2511,-0.2525,-0.2376,-0.2376,-0.2375,-0.1904,-0.0796,0.0,0.0,-0.2096,-0.0643,0.0,0.0,0.0,0.0,0.0,0.0,0.0,0.0,0.0,0.0,0.0,0.0,0.0,0.0,0.0,0.0,0.0,0.0,0.0,0.0,0.0,0.0,0.0,0.0,0.0,0.0,0.0,0.0,-0.03,0.0,0.0,-0.0301,0.0,0.0,-0.1365,-0.1068,-0.0614,-0.1077,-0.1086,-0.1405,-0.2032,-0.2334,-0.2333,-0.1873,-0.1097,-0.0471,-0.0628,-0.1571,-0.1415,-0.0787,0.0,0.0,-0.1594,-0.1121,0.0,0.0,0.0,0.0,0.0,0.0,0.0,0.0,0.0,-0.0335,-0.0168,0.0,0.0,0.0,0.0,0.0,0.0,0.0,0.0,0.0,0.0,0.0,0.0,0.0,0.0,0.0,0.0,0.0,0.0,0.0,0.0,0.0,0.0,0.0,0.0,0.0,0.0,-0.0963,-0.2239,-0.257,-0.2568,-0.2552,-0.254,-0.2541,-0.2549,-0.254,-0.2551,-0.2575,-0.2578,-0.2568,-0.256,-0.2572,-0.2256,-0.1611,-0.2256,-0.145,0.0,0.0,0.0,-0.0981,-0.0492,0.0,0.0,0.0,0.0,0.0,0.0,0.0,0.0,0.0,0.0,0.0,0.0,0.0,0.0,0.0,0.0,0.0,0.0,0.0,0.0,0.0,0.0,0.0,0.0,0.0,0.0,0.0,0.0,0.0,0.0,0.0,0.0,0.0,-0.0616,-0.0924,-0.0465,-0.0311,-0.0622,-0.0626,-0.0942,-0.1256,-0.2043,-0.22,0.0,-0.0628,0.0,0.0,-0.0789,0.0,0.0,0.0,0.0,-0.0967,-0.0647,0.0,0.0,0.0,0.0,0.0,0.0,0.0,0.0,0.0,0.0,0.0,0.0,0.0,0.0,0.0,0.0,0.0,0.0,0.0,0.0,0.0,0.0,0.0,0.0,0.0,0.0,0.0,0.0,0.0,0.0,0.0,0.0,0.0,0.0,0.0,0.0,0.0,-0.0977,-0.2277,-0.2281,-0.2278,-0.2441,-0.2574,-0.2417,-0.2112,-0.1931,-0.21,-0.1952,-0.196,-0.1962,-0.1961,-0.1956,-0.1468,-0.0652,-0.1631,-0.1141,0.0,0.0,0.0,0.0,0.0,0.0,0.0,0.0,0.0,0.0,0.0,0.0,0.0,0.0,0.0,0.0,0.0,0.0,0.0,0.0,0.0,0.0,0.0,0.0,0.0,0.0,0.0,0.0,0.0,0.0,0.0,0.0,0.0,0.0,0.0,0.0,0.0,0.0,0.0,0.0,0.0,0.0,0.0,0.0,0.0,0.0,-0.1418,-0.1417,0.0,0.0,0.0,0.0,0.0,0.0,0.0,0.0,0.0,0.0,0.0,0.0,0.0,0.0,0.0,0.0,0.0,0.0,0.0,0.0,0.0,0.0,0.0,0.0,0.0,0.0,0.0,0.0,0.0,0.0,0.0,0.0,0.0,0.0,0.0,0.0,0.0,0.0,0.0,0.0,0.0,0.0,0.0,0.0,0.0,0.0,0.0,0.0,-0.0986,-0.2125,-0.115,-0.1314,-0.2444,-0.2437,-0.1949,0.0,0.0,-0.049,-0.0495,-0.05,0.0,0.0,0.0,0.0,0.0,0.0,0.0,0.0,0.0,0.0,0.0,0.0,0.0,0.0,0.0,0.0,0.0,0.0,0.0,0.0,0.0,0.0,0.0,0.0,0.0,0.0,0.0,0.0,0.0,0.0,0.0,0.0,0.0,0.0,0.0,0.0,0.0,0.0,0.0,0.0,0.0,0.0,0.0,0.0,0.0,0.0,0.0,0.0,0.0,0.0,0.0,0.0,0.0,0.0,0.0,0.0,0.0,0.0,0.0,0.0,0.0,0.0,0.0,0.0,0.0,0.0,0.0,0.0,0.0,0.0,0.0,0.0,0.0,0.0,0.0,0.0,0.0,0.0,0.0,0.0,0.0,0.0,0.0,0.0,0.0,0.0,0.0,0.0,0.0,0.0,0.0,0.0,0.0,0.0,0.0,0.0,0.0,0.0,0.0,0.0,0.0,0.0,0.0,-0.0499,-0.116,-0.0333,-0.0499,-0.1323,-0.1316,-0.0822,0.0,0.0,0.0,0.0,0.0,0.0,0.0,0.0,0.0,0.0,0.0,0.0,0.0,0.0,0.0,0.0,0.0,0.0,0.0,0.0,0.0,0.0,0.0,0.0,0.0,0.0,0.0,0.0,0.0,0.0,0.0,0.0,0.0,0.0,0.0,0.0,0.0,0.0,0.0,0.0,0.0,0.0,0.0,0.0,0.0,0.0,0.0,0.0,0.0,0.0,0.0,0.0,0.0,0.0,0.0,0.0,0.0,0.0,0.0,0.0,0.0,0.0,0.0,0.0,0.0,0.0,0.0,0.0,0.0,0.0,0.0,0.0,0.0,0.0,0.0,0.0,0.0,0.0,0.0,0.0,0.0,0.0,0.0,0.0,0.0,0.0,0.0,0.0,0.0,0.0,0.0,0.0,0.0,0.0,0.0,0.0,0.0,0.0,0.0,0.0,0.0,0.0,0.0,0.0,0.0,0.0,0.0,0.0,0.0,0.0,0.0,0.0,0.0,0.0,0.0,0.0,0.0,0.0,0.0,0.0,0.0,0.0,0.0,0.0,0.0,0.0,0.0,0.0,0.0,0.0,0.0,0.0,0.0,0.0,0.0,0.0,0.0,0.0,0.0,0.0,0.0,0.0,0.0,0.0,0.0,0.0,0.0,0.0,0.0,0.0,0.0,0.0,0.0,0.0,0.0,0.0,0.0,0.0,0.0,0.0,0.0,0.0,0.0,0.0,0.0,0.0,0.0,0.0,0.0,0.0,0.0,0.0,0.0,0.0,0.0,0.0,0.0,0.0,0.0,0.0,0.0,0.0,0.0,0.0,0.0,0.0,0.0,0.0,0.0,0.0,0.0,0.0,0.0,0.0,0.0,0.0,0.0,0.0,0.0,0.0,0.0,0.0,0.0,0.0,0.0,0.0,0.0,0.0,0.0,0.0,0.0,0.0,0.0,0.0,0.0,0.0,0.0,0.0,0.0,0.0,0.0,0.0,0.0,0.0,0.0,0.0,0.0,0.0,0.0,0.0,0.0,0.0,0.0,0.0,0.0,0.0,0.0,0.0,0.0,0.0,0.0,0.0,0.0,0.0,0.0,0.0,0.0,0.0,0.0,0.0,0.0,0.0,0.0,0.0,0.0,0.0,0.0,0.0,0.0,0.0,0.0,0.0,0.0,0.0,0.0,0.0,0.0,0.0,0.0,0.0,0.0,0.0,0.0,0.0,0.0,0.0,0.0,0.0,0.0,0.0,0.0,0.0,0.0,0.0,0.0,0.0,0.0,0.0,0.0,0.0,0.0,0.0,0.0,0.0,0.0,0.0,0.0,0.0,0.0,0.0,0.0,0.0,0.0,0.0,0.0,0.0,0.0,0.0,0.0,0.0,0.0,0.0,0.0,0.0,0.0,0.0,0.0,0.0,0.0,0.0,0.0,0.0,0.0,0.0,0.0,0.0,0.0,0.0,0.0,0.0,0.0,0.0,0.0,0.0,0.0,0.0,0.0,0.0,0.0,0.0,0.0,0.0,0.0,0.0,0.0,0.0,0.0,0.0,0.0,0.0,0.0,0.0,0.0,0.0,0.0,0.0,0.0,0.0,0.0,0.0,0.0,0.0,0.0,0.0,0.0,0.0,0.0,0.0,0.0,0.0,0.0,0.0,0.0,0.0,0.0,0.0,0.0,0.0,0.0,0.0,0.0,0.0,0.0,0.0,0.0,0.0,0.0,0.0,0.0,0.0,0.0,0.0,0.0,0.0,0.0,0.0,0.0,0.0,0.0,0.0,0.0,0.0,0.0,0.0,0.0,0.0,0.0,0.0,0.0,0.0,0.0,0.0,0.0,0.0,0.0,0.0,0.0,0.0,0.0,0.0,0.0,0.0,0.0,0.0,0.0,0.0,0.0,0.0,0.0,0.0,0.0,0.0,0.0,0.0,0.0,0.0,0.0,0.0,0.0,0.0,0.0,0.0,0.0,0.0,0.0,0.0,0.0,0.0,0.0,0.0,0.0,0.0,0.0,0.0,0.0,0.0,0.0,0.0,0.0,0.0,0.0,0.0,0.0,0.0,0.0,0.0,0.0,0.0,0.0,0.0,0.0,0.0,0.0,0.0,0.0,0.0,0.0,0.0,0.0,0.0,0.0,0.0,0.0,0.0,0.0,0.0,0.0,0.0,0.0,0.0,0.0,0.0,0.0,0.0,0.0,0.0,0.0,0.0,0.0,0.0,0.0,0.0,0.0,0.0,0.0,0.0,0.0,0.0,0.0,0.0,0.0,0.0,0.0,0.0,0.0,0.0,0.0,0.0,0.0,0.0,0.0,0.0,0.0,0.0,0.0,0.0,0.0,0.0,0.0,0.0,0.0,0.0,0.0,0.0,0.0,0.0,0.0,0.0,0.0,0.0,0.0,0.0,0.0,0.0,0.0,0.0,0.0,0.0,0.0,0.0,0.0,0.0,0.0,0.0,0.0,0.0,0.0,0.0,0.0,0.0,0.0,0.0,0.0,0.0,0.0,0.0,0.0,0.0,0.0,0.0,0.0,0.0,0.0,0.0,0.0,0.0,0.0,0.0,0.0,0.0,0.0,0.0,0.0,0.0,0.0,0.0,0.0,0.0,0.0,0.0,0.0,0.0,0.0,0.0,0.0,0.0,0.0,0.0,0.0,0.0,0.0,0.0,0.0,0.0,0.0,0.0,0.0,0.0,0.0,0.0,0.0,0.0,0.0,0.0,0.0,0.0,0.0,0.0,0.0,0.0,0.0,0.0,0.0,0.0,0.0,0.0,0.0,0.0,0.0,0.0,0.0,0.0,0.0,0.0,0.0,0.0,0.0,0.0,0.0,0.0,0.0,0.0,0.0,0.0,0.0,0.0,0.0,0.0,0.0,0.0,0.0,0.0,0.0,0.0,0.0,0.0,0.0,0.0,0.0,0.0,0.0,0.0,0.0,0.0,0.0,0.0,0.0,0.0,0.0,0.0,0.0,0.0,0.0,0.0,0.0,0.0,0.0,0.0,0.0,0.0,0.0,0.0,0.0,0.0,0.0,0.0,0.0,0.0,0.0,0.0,0.0,0.0,0.0,0.0,0.0,0.0,0.0,0.0,0.0,0.0,0.0,0.0,0.0,0.0,0.0,0.0,0.0,0.0,0.0,0.0,0.0,0.0,0.0,0.0,0.0,0.0,0.0,0.0,0.0,0.0,0.0,0.0,0.0,0.0,0.0,0.0,0.0,0.0,0.0,0.0,0.0,0.0,0.0,0.0,0.0,0.0,0.0,0.0,0.0,0.0,0.0,0.0,0.0,0.0,0.0,0.0,0.0,0.0,0.0,0.0,0.0,0.0,0.0,0.0,0.0,0.0,0.0,0.0,0.0,0.0,0.0,0.0,0.0,0.0,0.0,0.0,0.0,0.0,0.0,0.0,0.0,0.0,0.0,0.0,0.0,0.0,0.0,0.0,0.0,0.0,0.0,0.0,0.0,0.0,0.0,0.0,0.0,0.0,0.0,0.0,0.0,0.0,0.0,0.0,0.0,0.0,0.0,0.0,0.0,0.0,0.0,0.0,0.0,0.0,0.0,0.0,0.0,0.0,0.0,0.0,0.0,0.0,0.0,0.0,0.0,0.0,0.0,0.0,0.0,0.0,0.0,0.0,0.0,0.0,0.0,0.0,0.0,0.0,0.0,0.0,0.0,0.0,0.0,0.0,0.0,0.0,0.0,0.0,0.0,0.0,0.0,0.0,0.0,0.0,0.0,0.0,0.0,0.0,0.0,0.0,0.0,0.0,0.0,0.0,0.0,0.0,0.0,0.0,0.0,0.0,0.0,0.0,0.0,0.0,0.0,0.0,0.0,0.0,0.0,0.0,0.0,0.0,0.0,0.0,0.0,0.0,0.0,0.0,0.0,0.0,0.0,0.0,0.0,0.0,0.0,0.0,0.0,0.0,0.0,0.0,0.0,0.0,0.0,0.0,0.0,0.0,0.0,0.0,0.0,0.0,0.0,0.0,0.0,0.0,0.0,0.0,0.0,0.0,0.0,0.0,0.0,0.0,0.0,0.0,0.0,0.0,0.0,0.0,0.0,0.0,0.0,0.0,0.0,0.0,0.0,0.0,0.0,0.0,0.0,0.0,0.0,0.0,0.0,0.0,0.0,0.0,0.0,0.0,0.0,0.0,0.0,0.0,0.0,0.0,0.0,0.0,0.0,0.0,0.0,0.0,0.0,0.0,0.0,0.0,0.0,0.0,0.0,0.0,0.0,0.0,0.0,0.0,0.0,0.0,0.0,0.0,0.0,0.0,0.0,0.0,0.0,0.0,0.0,0.0,0.0,0.0,0.0,0.0,0.0,0.0,0.0,0.0,0.0,0.0,0.0,0.0,0.0,0.0,0.0,0.0,0.0,0.0,0.0,0.0,0.0,0.0,0.0,0.0,0.0,0.0,0.0,0.0,0.0,0.0,0.0,0.0,0.0,0.0,0.0,0.0,0.0,0.0,0.0,0.0,0.0,0.0,0.0,0.0,0.0,0.0,0.0,0.0,0.0,0.0,0.0,0.0,0.0,0.0,0.0,0.0,0.0,0.0,0.0,0.0,0.0,0.0,0.0,0.0,0.0,0.0,0.0,0.0,0.0,0.0,0.0,0.0,0.0,0.0,0.0,0.0,0.0,0.0,0.0,0.0,0.0,0.0,0.0,0.0,0.0,0.0,0.0,0.0,0.0,0.0,0.0,0.0,0.0,0.0,0.0,0.0,0.0,0.0,0.0,0.0,0.0,0.0,0.0,0.0,0.0,0.0,0.0,0.0,0.0,0.0,0.0,0.0,0.0,0.0,0.0,0.0,0.0,0.0,0.0,0.0,0.0,0.0,0.0,0.0,0.0,0.0,0.0,0.0,0.0,0.0,0.0,0.0,0.0,0.0,0.0,0.0,0.0,0.0,0.0,0.0,0.0,0.0,0.0,0.0,0.0,0.0,0.0,0.0,0.0,0.0,0.0,0.0,0.0,0.0,0.0,0.0,0.0,0.0,0.0,0.0,0.0,0.0,0.0,0.0,0.0,0.0,0.0,0.0,0.0,0.0,0.0,0.0,0.0,0.0,0.0,0.0,0.0,0.0,0.0,0.0,0.0,0.0,0.0,0.0,0.0,0.0,0.0,0.0,0.0,0.0,0.0,0.0,0.0,0.0,0.0,0.0,0.0,0.0,0.0,0.0,0.0,0.0,0.0,0.0,0.0,0.0,0.0,0.0,0.0,0.0,0.0,0.0,0.0,0.0,0.0,0.0,0.0,0.0,0.0,0.0,0.0,0.0,0.0,0.0,0.0,0.0,0.0,0.0,0.0,0.0,0.0,0.0,0.0,0.0,0.0,0.0,0.0,0.0,0.0,0.0,0.0,0.0,0.0,0.0,0.0,0.0,0.0,0.0,0.0,0.0,0.0,0.0,0.0,0.0,0.0,0.0,0.0,0.0,0.0,0.0,0.0,0.0,0.0,0.0,0.0,0.0,0.0,0.0,0.0,0.0,0.0,0.0,0.0,0.0,0.0,0.0,0.0,0.0,0.0,0.0,0.0,0.0,0.0,0.0,0.0,0.0,0.0,0.0,0.0,0.0,0.0,0.0,0.0,0.0,0.0,0.0,0.0,0.0,0.0,0.0,0.0,0.0,0.0,0.0,0.0,0.0,0.0,0.0,0.0,0.0,0.0,0.0,0.0,0.0,0.0,0.0,0.0,0.0,0.0,0.0,0.0,0.0,0.0,0.0,0.0,0.0,0.0,0.0,0.0,0.0,0.0,0.0,0.0,0.0,0.0,0.0,0.0,0.0,0.0,0.0,0.0,0.0,0.0,0.0,0.0,0.0,0.0,0.0,0.0,0.0,0.0,0.0,0.0,0.0,0.0,0.0,0.0,0.0,0.0,0.0,0.0,0.0,0.0,0.0,0.0,0.0,0.0,0.0,0.0,0.0,0.0,0.0,0.0,0.0,0.0,0.0,0.0,0.0,0.0,0.0,0.0,0.0,0.0,0.0,0.0,0.0,0.0,0.0,0.0,0.0,0.0,0.0,0.0,0.0,0.0,0.0,0.0,0.0,0.0,0.0,0.0,0.0,0.0,0.0,0.0,0.0,0.0,0.0,0.0,0.0,0.0,0.0,0.0,0.0,0.0,0.0,0.0,0.0,0.0,0.0,0.0,0.0,0.0,0.0,0.0,0.0,0.0,0.0,0.0,0.0,0.0,0.0,0.0,0.0,0.0,0.0,0.0,0.0,0.0,0.0,0.0,0.0,0.0,0.0,0.0,0.0,0.0,0.0,0.0,0.0,0.0,0.0,0.0,0.0,0.0,0.0,0.0,0.0,0.0,0.0,0.0,0.0,0.0,0.0,0.0,0.0,0.0,0.0,0.0,0.0,0.0,0.0,0.0,0.0,0.0,0.0,0.0,0.0,0.0,0.0,0.0,0.0,0.0,0.0,0.0,0.0,0.0,0.0,0.0,0.0,0.0,0.0,0.0,0.0,0.0,0.0,0.0,0.0,0.0,0.0,0.0,0.0,0.0,0.0,0.0,0.0,0.0,0.0,0.0,0.0,0.0,0.0,0.0,0.0,0.0,0.0,0.0,0.0,0.0,0.0,0.0,0.0,0.0,0.0,0.0,0.0,0.0,0.0,0.0,0.0,0.0,0.0,0.0,0.0,0.0,0.0,0.0,0.0,0.0,0.0,0.0,0.0,0.0,0.0,0.0,0.0,0.0,0.0,0.0,0.0,0.0,0.0,0.0,0.0,0.0,0.0,0.0,0.0,0.0,0.0,0.0,0.0,0.0,0.0,0.0,0.0,0.0,0.0,0.0,0.0,0.0,0.0,0.0,0.0,0.0,0.0,0.0,0.0,0.0,0.0,0.0,0.0,0.0,0.0,0.0,0.0,0.0,0.0,0.0,0.0,0.0,0.0,0.0,0.0,0.0,0.0,0.0,0.0,0.0,0.0,0.0,0.0,0.0,0.0,0.0,0.0,0.0,0.0,0.0,0.0,0.0,0.0,0.0,0.0,0.0,0.0,0.0,0.0,0.0,0.0,0.0,0.0,0.0,0.0,0.0,0.0,0.0,0.0,0.0,0.0,0.0,0.0,0.0,0.0,0.0,0.0,0.0,0.0,0.0,0.0,0.0,0.0,0.0,0.0,0.0,0.0,0.0,0.0,0.0,0.0,0.0,0.0,0.0,0.0,0.0,0.0,0.0,0.0,0.0,0.0,0.0,0.0,0.0,0.0,0.0,0.0,0.0,0.0,0.0,0.0,0.0,0.0,0.0,0.0,0.0,0.0,0.0,0.0,0.0,0.0,0.0,0.0,0.0,0.0,0.0,0.0,0.0,0.0,0.0,0.0,0.0,0.0,0.0,0.0,0.0,0.0,0.0,0.0,0.0,0.0,0.0,0.0,0.0,0.0,0.0,0.0,0.0,0.0,0.0,0.0,0.0,0.0,0.0,0.0,0.0,0.0,0.0,0.0,0.0,0.0,0.0,0.0,0.0,0.0,0.0,0.0,0.0,0.0,0.0,0.0,0.0,0.0,0.0,0.0,0.0,0.0,0.0,0.0,0.0,0.0,0.0,0.0,0.0,0.0,0.0,0.0,0.0,0.0,0.0,0.0,0.0,0.0,0.0,0.0,0.0,0.0,0.0,0.0,0.0,0.0,0.0,0.0,0.0,0.0,0.0,0.0,0.0,0.0,0.0,0.0,0.0,0.0,0.0,0.0,0.0,0.0,0.0,0.0,0.0,0.0,0.0,0.0,0.0,0.0,0.0,0.0,0.0,0.0,0.0,0.0,0.0,0.0,0.0,0.0,0.0,0.0,0.0,0.0,0.0,0.0,0.0,0.0,0.0,0.0,0.0,0.0,0.0,0.0,0.0,0.0,0.0,0.0,0.0,0.0,0.0,0.0,0.0,0.0,0.0,0.0,0.0,0.0,0.0,0.0,0.0,0.0,0.0,0.0,0.0,0.0,0.0,0.0,0.0,0.0,0.0,0.0,0.0,0.0,0.0,0.0,0.0,0.0,0.0,0.0,0.0,0.0,0.0,0.0,0.0,0.0,0.0,0.0,0.0,0.0,0.0,0.0,0.0,0.0,0.0,0.0,0.0,0.0,0.0,0.0,0.0,0.0,0.0,0.0,0.0,0.0,0.0,0.0,0.0,0.0,0.0,0.0,0.0,0.0,0.0,0.0,0.0,0.0,0.0,0.0,0.0,0.0,0.0,0.0,0.0,0.0,0.0,0.0,0.0,0.0,0.0,0.0,0.0,0.0,0.0,0.0,0.0,0.0,0.0,0.0,0.0,0.0,0.0,0.0,0.0,0.0,0.0,0.0,0.0,0.0,0.0,0.0,0.0,0.0,0.0,0.0,0.0,0.0,0.0,0.0,0.0,0.0,0.0,0.0,0.0,0.0,0.0,0.0,0.0,0.0,0.0,0.0,0.0,0.0,0.0,0.0,0.0,0.0,0.0,0.0,0.0,0.0,0.0,0.0,0.0,0.0,0.0,0.0,0.0,0.0,0.0,0.0,0.0,0.0,0.0,0.0,0.0,0.0,0.0,0.0,0.0,0.0,0.0,0.0,0.0,0.0,0.0,0.0,0.0,0.0,0.0,0.0,0.0,0.0,0.0,0.0,0.0,0.0,0.0,0.0,0.0,0.0,0.0,0.0,0.0,0.0,0.0,0.0,0.0,0.0,0.0,0.0,0.0,0.0,0.0,0.0,0.0,0.0,0.0,0.0,0.0,0.0,0.0,0.0,0.0,0.0,0.0,0.0,0.0,0.0,0.0,0.0,0.0,0.0,0.0,0.0,0.0,0.0,0.0,0.0,0.0,0.0,0.0,0.0,0.0,0.0,0.0,0.0,0.0,0.0,0.0,0.0,0.0,0.0,0.0,0.0,0.0,0.0,0.0,0.0,0.0,0.0,0.0,0.0,0.0,0.0,0.0,0.0,0.0,0.0,0.0,0.0,0.0,0.0,0.0,0.0,0.0,0.0,0.0,0.0,0.0,0.0,0.0,0.0,0.0,0.0,0.0,0.0,0.0,0.0,0.0,0.0,0.0,0.0,0.0,0.0,0.0,0.0,0.0,0.0,0.0,0.0,0.0,0.0,0.0,0.0,0.0,0.0,0.0,0.0,0.0,0.0,0.0,0.0,0.0,0.0,0.0,0.0,0.0,0.0,0.0,0.0,0.0,0.0,0.0,0.0,0.0,0.0,0.0,0.0,0.0,0.0,0.0,0.0,0.0,0.0,0.0,0.0,0.0,0.0,0.0,0.0,0.0,0.0,0.0,0.0,0.0,0.0,0.0,0.0,0.0,0.0,0.0,0.0,0.0,0.0,0.0,0.0,0.0,0.0,0.0,0.0,0.0,0.0,0.0,0.0,0.0,0.0,0.0,0.0,0.0,0.0,0.0,0.0,0.0,0.0,0.0,0.0,0.0,0.0,0.0,0.0,0.0,0.0,0.0,0.0,0.0,0.0,0.0,0.0,0.0,0.0,0.0,0.0,0.0,0.0,0.0,0.0,0.0,0.0,0.0,0.0,0.0,0.0,0.0,0.0,0.0,0.0,0.0,0.0,0.0,0.0,0.0,0.0,0.0,0.0,0.0,0.0,0.0,0.0,0.0,0.0,0.0,0.0,0.0,0.0,0.0,0.0,0.0,0.0,0.0,0.0,0.0,0.0,0.0,0.0,0.0,0.0,0.0,0.0,0.0,0.0,0.0,0.0,0.0,0.0,0.0,0.0,0.0,0.0,0.0,0.0,0.0,0.0,0.0,0.0,0.0,0.0,0.0,0.0,0.0,0.0,0.0,0.0,0.0,0.0,0.0,0.0,0.0,0.0,0.0,0.0,0.0,0.0,0.0,0.0,0.0,0.0,0.0,0.0,0.0,0.0,0.0,0.0,0.0,0.0,0.0,0.0,0.0,0.0,0.0,0.0,0.0,0.0,0.0,0.0,0.0,0.0,0.0,0.0,0.0,0.0,0.0,0.0,0.0,0.0,0.0,0.0,0.0,0.0,0.0,0.0,0.0,0.0,0.0,0.0,0.0,0.0,0.0,0.0,0.0,0.0,0.0,0.0,0.0,0.0,0.0,0.0,0.0,0.0,0.0,0.0,0.0,0.0,0.0,0.0,0.0,0.0,0.0,0.0,0.0,0.0,0.0,0.0,0.0,0.0,0.0,0.0,0.0,0.0,0.0,0.0,0.0,0.0,0.0,0.0,0.0,0.0,0.0,0.0,0.0,0.0,0.0,0.0,0.0,0.0,0.0,0.0,0.0,0.0,0.0,0.0,0.0,0.0,0.0,0.0,0.0,0.0,0.0,0.0,0.0,0.0,0.0,0.0,0.0,0.0,0.0,0.0,0.0,0.0,0.0,0.0,0.0,0.0,0.0,0.0,0.0,0.0,0.0,0.0,0.0,0.0,0.0,0.0,0.0,0.0,0.0,0.0,0.0,0.0,0.0,0.0,0.0,0.0,0.0,0.0,0.0,0.0,0.0,0.0,0.0,0.0,0.0,0.0,0.0,0.0,0.0,0.0,0.0,0.0,0.0,0.0,0.0,0.0,0.0,0.0,0.0,0.0,0.0,0.0,0.0,0.0,0.0,0.0,0.0,0.0,0.0,0.0,0.0,0.0,0.0,0.0,0.0,0.0,0.0,0.0,0.0,0.0,0.0,0.0,0.0,0.0,0.0,0.0,0.0,0.0,0.0,0.0,0.0,0.0,0.0,0.0,0.0,0.0,0.0,0.0,0.0,0.0,0.0,0.0,0.0,0.0,0.0,0.0,0.0,0.0,0.0,0.0,0.0,0.0,0.0,0.0,0.0,0.0,0.0,0.0,0.0,0.0,0.0,0.0,0.0,0.0,0.0,0.0,0.0,0.0,0.0,0.0,0.0,0.0,0.0,0.0,0.0,0.0,0.0,0.0,0.0,0.0,0.0,0.0,0.0,0.0,0.0,0.0,0.0,0.0,0.0,0.0,0.0,0.0,0.0,0.0,0.0,0.0,0.0,0.0,0.0,0.0,0.0,0.0,0.0,0.0,0.0,0.0,0.0,0.0,0.0,0.0,0.0,0.0,0.0,0.0,0.0,0.0,0.0,0.0]}]]